[[{"header":{"parameterUnit":"m.s-1","parameterCategory":1,"la1":30.6,"la2":29.2853,"lo1":-89.7004,"lo2":-87.6739,"dy":0.0162,"dx":0.0183,"nx":112,"ny":82,"refTime":"2023-04-19T12:00:00:Z","depth":0,"parameterNumber":2,"parameterNumberName":"U-component_of_WINDS"},"data":[0.0,0.0,0.0,0.0,0.0,0.0,0.0,0.0,0.0,0.0,0.0,0.0,0.0,0.0,0.0,0.0,0.0,0.0,0.0,0.0,0.0,0.0,0.0,0.0,0.0,0.0,0.0,0.0,0.0,0.0,0.0,0.0,0.0,0.0,0.0,0.0,0.0,0.0,0.0,0.0,0.0,0.0,0.0,0.0,0.0,0.0,0.0,0.0,0.0,0.0,0.0,0.0,0.0,0.0,0.0,0.0,0.0,0.0,0.0,0.0,0.0,0.0,0.0,0.0,0.0,0.0,0.0,0.0,0.0,0.0,0.0,0.0,0.0,0.0,0.0,0.0,0.0,0.0,0.0,0.0,0.0,0.0,0.0,0.0,0.0,0.0,0.0,0.0,0.0,0.0,-4.6321,-4.828,-4.8861,-4.888,-4.8312,-4.735,-4.6314,-4.5164,0.0,0.0,0.0,0.0,0.0,0.0,0.0,0.0,0.0,0.0,0.0,0.0,0.0,0.0,0.0,0.0,0.0,0.0,0.0,0.0,0.0,0.0,0.0,0.0,0.0,0.0,0.0,0.0,0.0,0.0,0.0,0.0,0.0,0.0,0.0,0.0,0.0,0.0,0.0,0.0,0.0,0.0,0.0,0.0,0.0,0.0,0.0,0.0,0.0,0.0,0.0,0.0,0.0,0.0,0.0,0.0,0.0,0.0,0.0,0.0,0.0,0.0,0.0,0.0,0.0,0.0,0.0,0.0,0.0,0.0,0.0,0.0,0.0,0.0,0.0,0.0,0.0,0.0,0.0,0.0,0.0,0.0,0.0,0.0,0.0,0.0,0.0,0.0,0.0,0.0,0.0,0.0,0.0,0.0,0.0,0.0,0.0,0.0,0.0,0.0,0.0,0.0,0.0,0.0,-4.4254,-4.6085,-4.7738,-4.8676,-4.8615,-4.8255,-4.7571,-4.6485,0.0,0.0,0.0,0.0,0.0,0.0,0.0,0.0,0.0,0.0,0.0,0.0,0.0,0.0,0.0,0.0,0.0,0.0,0.0,0.0,0.0,0.0,0.0,0.0,0.0,0.0,0.0,0.0,0.0,0.0,0.0,0.0,0.0,0.0,0.0,0.0,0.0,0.0,0.0,0.0,0.0,0.0,0.0,0.0,0.0,0.0,0.0,0.0,0.0,0.0,0.0,0.0,0.0,0.0,0.0,0.0,0.0,0.0,0.0,0.0,0.0,0.0,0.0,0.0,0.0,0.0,0.0,0.0,0.0,0.0,0.0,0.0,0.0,0.0,0.0,0.0,0.0,0.0,0.0,0.0,0.0,0.0,0.0,0.0,0.0,0.0,0.0,0.0,0.0,0.0,0.0,0.0,0.0,0.0,0.0,0.0,0.0,0.0,0.0,0.0,0.0,0.0,0.0,-4.5548,-4.5372,-4.6732,-4.7789,-4.8254,-4.796,-4.7607,-4.7,-4.6097,-4.6063,0.0,0.0,0.0,0.0,0.0,0.0,0.0,0.0,0.0,0.0,0.0,0.0,0.0,0.0,0.0,0.0,0.0,0.0,0.0,0.0,0.0,0.0,0.0,0.0,0.0,0.0,0.0,0.0,0.0,0.0,0.0,0.0,0.0,0.0,0.0,0.0,0.0,0.0,0.0,0.0,0.0,0.0,0.0,0.0,0.0,0.0,0.0,0.0,0.0,0.0,0.0,0.0,0.0,0.0,0.0,0.0,0.0,0.0,0.0,0.0,0.0,0.0,0.0,0.0,0.0,0.0,0.0,0.0,0.0,0.0,0.0,0.0,0.0,0.0,0.0,0.0,0.0,0.0,0.0,0.0,0.0,0.0,0.0,0.0,0.0,0.0,0.0,0.0,0.0,0.0,0.0,0.0,0.0,0.0,0.0,0.0,0.0,0.0,0.0,0.0,0.0,0.0,-4.5845,-4.6465,-4.7241,-4.7702,-4.7833,-4.7442,-4.7079,-4.6488,-4.5681,-4.6575,0.0,0.0,0.0,0.0,0.0,0.0,0.0,0.0,0.0,0.0,0.0,0.0,0.0,0.0,0.0,0.0,0.0,0.0,0.0,0.0,0.0,0.0,0.0,0.0,0.0,0.0,0.0,0.0,0.0,0.0,0.0,0.0,0.0,0.0,0.0,0.0,0.0,0.0,0.0,0.0,0.0,0.0,0.0,0.0,0.0,0.0,0.0,0.0,0.0,0.0,0.0,0.0,0.0,0.0,0.0,0.0,0.0,0.0,0.0,0.0,0.0,0.0,0.0,0.0,0.0,0.0,0.0,0.0,0.0,0.0,0.0,0.0,0.0,0.0,0.0,0.0,0.0,0.0,0.0,0.0,0.0,0.0,0.0,0.0,0.0,0.0,0.0,0.0,0.0,0.0,0.0,0.0,0.0,0.0,0.0,0.0,0.0,0.0,0.0,0.0,0.0,0.0,-4.4614,-4.5801,-4.594,-4.6783,-4.7454,-4.7648,-4.7648,-4.7143,-4.603,-4.7294,0.0,0.0,0.0,0.0,0.0,0.0,0.0,0.0,0.0,0.0,0.0,0.0,0.0,0.0,0.0,0.0,0.0,0.0,0.0,0.0,0.0,0.0,0.0,0.0,0.0,0.0,0.0,0.0,0.0,0.0,0.0,0.0,0.0,0.0,0.0,0.0,0.0,0.0,0.0,0.0,0.0,0.0,0.0,0.0,0.0,0.0,0.0,0.0,0.0,0.0,0.0,0.0,0.0,0.0,0.0,0.0,0.0,0.0,0.0,0.0,0.0,0.0,0.0,0.0,0.0,0.0,0.0,0.0,0.0,0.0,0.0,0.0,0.0,0.0,0.0,0.0,0.0,0.0,0.0,0.0,0.0,0.0,0.0,0.0,0.0,0.0,0.0,0.0,0.0,0.0,0.0,0.0,0.0,0.0,0.0,0.0,0.0,0.0,0.0,0.0,0.0,0.0,-4.368,-4.4582,0.0,-4.6605,-4.7075,-4.732,-4.6695,-4.666,-4.7445,0.0,0.0,0.0,0.0,0.0,0.0,0.0,0.0,0.0,0.0,0.0,0.0,0.0,0.0,0.0,0.0,0.0,0.0,0.0,0.0,0.0,0.0,0.0,0.0,0.0,0.0,0.0,0.0,0.0,0.0,0.0,0.0,0.0,0.0,0.0,0.0,0.0,0.0,0.0,0.0,0.0,0.0,0.0,0.0,0.0,0.0,0.0,0.0,0.0,0.0,0.0,0.0,0.0,0.0,0.0,0.0,0.0,0.0,0.0,0.0,0.0,0.0,0.0,0.0,0.0,0.0,0.0,0.0,0.0,0.0,0.0,0.0,0.0,0.0,0.0,0.0,0.0,0.0,0.0,0.0,0.0,0.0,0.0,0.0,0.0,0.0,0.0,0.0,0.0,0.0,0.0,0.0,0.0,0.0,0.0,0.0,0.0,0.0,0.0,0.0,0.0,0.0,-4.2337,-4.2474,-4.3235,0.0,-4.5817,-4.6236,-4.6771,-4.5916,-4.6012,-4.7598,0.0,0.0,0.0,0.0,0.0,0.0,0.0,0.0,0.0,0.0,0.0,0.0,0.0,0.0,0.0,0.0,0.0,0.0,0.0,0.0,0.0,0.0,0.0,0.0,0.0,0.0,0.0,0.0,0.0,0.0,0.0,0.0,0.0,0.0,0.0,0.0,0.0,0.0,0.0,0.0,0.0,0.0,0.0,0.0,0.0,0.0,0.0,0.0,0.0,0.0,0.0,0.0,0.0,0.0,0.0,0.0,0.0,0.0,0.0,0.0,0.0,0.0,0.0,0.0,0.0,0.0,0.0,0.0,0.0,0.0,0.0,0.0,0.0,0.0,0.0,0.0,0.0,0.0,0.0,0.0,0.0,0.0,0.0,0.0,0.0,0.0,0.0,0.0,0.0,0.0,0.0,0.0,0.0,0.0,0.0,0.0,0.0,0.0,0.0,0.0,0.0,0.0,-4.0824,-4.0987,-4.179,-4.3829,-4.4208,-4.4782,-4.6049,-4.5438,-4.5315,0.0,0.0,0.0,0.0,0.0,0.0,0.0,0.0,0.0,0.0,0.0,0.0,0.0,0.0,0.0,0.0,0.0,0.0,0.0,0.0,0.0,0.0,0.0,0.0,0.0,0.0,0.0,0.0,0.0,0.0,0.0,0.0,0.0,0.0,0.0,0.0,0.0,0.0,0.0,0.0,0.0,0.0,0.0,0.0,0.0,0.0,0.0,0.0,0.0,0.0,0.0,0.0,0.0,0.0,0.0,0.0,0.0,0.0,0.0,0.0,0.0,0.0,0.0,0.0,0.0,0.0,0.0,0.0,0.0,0.0,0.0,0.0,0.0,0.0,0.0,0.0,0.0,0.0,0.0,0.0,0.0,0.0,0.0,0.0,0.0,0.0,0.0,0.0,0.0,0.0,0.0,0.0,0.0,0.0,0.0,0.0,0.0,0.0,0.0,0.0,0.0,0.0,0.0,-4.0243,-4.0282,-4.0757,-4.2137,-4.302,-4.3486,-4.3451,-4.3803,-4.4232,-4.4775,0.0,0.0,0.0,0.0,0.0,0.0,0.0,0.0,0.0,0.0,0.0,0.0,0.0,0.0,0.0,0.0,0.0,0.0,0.0,0.0,0.0,0.0,0.0,0.0,0.0,0.0,0.0,0.0,0.0,0.0,0.0,0.0,0.0,0.0,0.0,0.0,0.0,0.0,0.0,0.0,0.0,0.0,0.0,0.0,0.0,0.0,0.0,0.0,0.0,0.0,0.0,0.0,0.0,0.0,0.0,0.0,0.0,0.0,0.0,0.0,0.0,0.0,0.0,0.0,0.0,0.0,0.0,0.0,0.0,0.0,0.0,0.0,0.0,0.0,0.0,0.0,0.0,0.0,0.0,0.0,0.0,0.0,0.0,0.0,0.0,0.0,0.0,0.0,0.0,0.0,0.0,0.0,0.0,0.0,0.0,0.0,0.0,0.0,0.0,0.0,0.0,0.0,-3.9311,-3.9117,-3.9332,-4.0553,-4.1281,-4.1821,-4.2161,-4.2473,-4.2997,-4.3786,0.0,0.0,0.0,0.0,0.0,0.0,0.0,0.0,0.0,0.0,0.0,0.0,0.0,0.0,0.0,0.0,0.0,0.0,0.0,0.0,0.0,0.0,0.0,0.0,0.0,0.0,0.0,0.0,0.0,0.0,0.0,0.0,0.0,0.0,0.0,0.0,0.0,0.0,0.0,0.0,0.0,0.0,0.0,0.0,0.0,0.0,0.0,0.0,0.0,0.0,0.0,0.0,0.0,0.0,0.0,0.0,0.0,0.0,0.0,0.0,0.0,0.0,0.0,0.0,0.0,0.0,0.0,0.0,0.0,0.0,0.0,0.0,0.0,0.0,0.0,0.0,0.0,0.0,0.0,0.0,0.0,0.0,0.0,0.0,0.0,0.0,0.0,0.0,0.0,0.0,0.0,0.0,0.0,0.0,0.0,0.0,0.0,0.0,0.0,0.0,0.0,0.0,-3.8205,-3.7727,-3.7816,-3.9056,-3.9321,-4.0021,-4.1537,-4.1435,-4.1778,-4.2997,0.0,0.0,0.0,0.0,0.0,0.0,0.0,0.0,0.0,0.0,0.0,0.0,0.0,0.0,0.0,0.0,0.0,0.0,0.0,0.0,0.0,0.0,0.0,0.0,0.0,0.0,0.0,0.0,0.0,0.0,0.0,0.0,0.0,0.0,0.0,0.0,0.0,0.0,0.0,0.0,0.0,0.0,0.0,0.0,0.0,0.0,0.0,0.0,0.0,0.0,0.0,0.0,0.0,0.0,0.0,0.0,0.0,0.0,0.0,0.0,-4.0025,0.0,0.0,0.0,0.0,0.0,0.0,0.0,0.0,0.0,0.0,0.0,0.0,0.0,0.0,0.0,0.0,0.0,0.0,0.0,0.0,0.0,0.0,0.0,0.0,0.0,0.0,0.0,0.0,0.0,0.0,0.0,0.0,0.0,0.0,0.0,0.0,0.0,0.0,0.0,0.0,0.0,-3.7565,-3.7164,-3.6999,-3.7395,-3.8663,-3.9402,-3.9208,-4.0859,-4.1753,-4.1363,-4.1013,0.0,0.0,0.0,0.0,0.0,0.0,0.0,0.0,0.0,0.0,0.0,0.0,0.0,0.0,0.0,0.0,0.0,0.0,0.0,0.0,0.0,0.0,0.0,0.0,0.0,0.0,0.0,0.0,0.0,0.0,0.0,0.0,0.0,0.0,0.0,0.0,0.0,0.0,0.0,0.0,0.0,0.0,0.0,0.0,0.0,0.0,0.0,0.0,0.0,0.0,0.0,0.0,0.0,0.0,0.0,0.0,0.0,0.0,0.0,0.0,-3.9672,0.0,0.0,0.0,0.0,0.0,0.0,0.0,0.0,0.0,0.0,0.0,0.0,0.0,0.0,0.0,0.0,0.0,0.0,0.0,0.0,0.0,0.0,0.0,0.0,0.0,0.0,0.0,0.0,0.0,0.0,0.0,0.0,0.0,0.0,0.0,0.0,0.0,0.0,0.0,0.0,-3.6997,-3.643,-3.6038,-3.615,-3.7156,-3.787,-3.8053,-3.9546,-4.0465,-4.0417,-4.0674,0.0,0.0,0.0,0.0,0.0,0.0,0.0,0.0,0.0,0.0,0.0,0.0,0.0,0.0,0.0,0.0,0.0,0.0,0.0,0.0,0.0,0.0,0.0,0.0,0.0,0.0,0.0,0.0,0.0,0.0,0.0,0.0,0.0,0.0,0.0,0.0,0.0,0.0,0.0,0.0,0.0,0.0,0.0,0.0,0.0,0.0,0.0,0.0,0.0,0.0,0.0,0.0,0.0,-3.7317,-3.7344,-3.7657,-3.7699,-3.7593,-3.733,-3.776,-3.831,-3.8928,-3.8824,0.0,0.0,0.0,0.0,0.0,0.0,0.0,0.0,0.0,0.0,0.0,0.0,0.0,0.0,0.0,0.0,0.0,0.0,0.0,0.0,0.0,0.0,0.0,0.0,-3.1257,-3.1318,0.0,0.0,0.0,0.0,0.0,0.0,0.0,0.0,0.0,0.0,0.0,0.0,-3.6383,-3.5638,-3.5085,-3.5172,-3.5649,-3.6353,-3.7256,-3.808,-3.8879,-3.9681,-4.0321,-4.0353,0.0,0.0,0.0,0.0,0.0,0.0,0.0,0.0,0.0,0.0,0.0,0.0,0.0,0.0,0.0,0.0,0.0,0.0,0.0,0.0,0.0,0.0,0.0,0.0,0.0,0.0,0.0,0.0,0.0,0.0,0.0,0.0,-3.9621,-3.8628,0.0,0.0,0.0,0.0,0.0,0.0,0.0,0.0,0.0,0.0,0.0,0.0,0.0,-3.7034,-3.7281,-3.7294,-3.6981,-3.6354,-3.6762,-3.6735,-3.6354,-3.6515,-3.6605,-3.6568,-3.6791,0.0,-3.7429,-3.6901,0.0,0.0,0.0,0.0,0.0,0.0,0.0,0.0,0.0,0.0,0.0,0.0,0.0,0.0,0.0,0.0,0.0,0.0,0.0,0.0,0.0,0.0,-3.0798,-3.0621,-3.0216,-3.0012,0.0,-3.1563,-3.2627,-3.2903,-3.3346,0.0,0.0,0.0,0.0,0.0,0.0,0.0,-3.5529,-3.4957,-3.4438,-3.4274,-3.5242,-3.5891,-3.5869,-3.7124,-3.8102,-3.8577,-3.8821,-3.8944,-3.9017,-3.9082,0.0,0.0,0.0,0.0,0.0,0.0,0.0,0.0,0.0,0.0,0.0,0.0,0.0,0.0,0.0,0.0,0.0,0.0,0.0,0.0,0.0,0.0,0.0,0.0,0.0,0.0,0.0,0.0,0.0,-3.8942,-3.8241,-3.7986,-3.8223,-3.7772,0.0,0.0,0.0,0.0,0.0,0.0,0.0,0.0,0.0,-3.6779,-3.6519,-3.643,-3.6502,-3.6353,-3.6347,-3.6456,-3.6392,-3.6437,-3.6651,-3.6742,-3.6606,-3.6352,-3.6415,-3.626,-3.5912,-3.6155,-3.6377,-3.6503,0.0,0.0,0.0,0.0,-3.5668,-3.5878,-3.5864,-3.6085,0.0,-3.5515,0.0,0.0,0.0,0.0,0.0,0.0,0.0,0.0,0.0,0.0,0.0,-2.9857,-2.9419,-2.9067,-2.9263,-2.9644,-3.0293,0.0,-3.1978,-3.2398,-3.2953,0.0,0.0,0.0,0.0,-3.3671,-3.4245,-3.3713,-3.3241,-3.3136,-3.399,-3.4583,-3.4696,-3.5681,-3.6564,-3.7234,-3.7659,-3.7831,-3.7719,-3.8421,-3.8465,0.0,0.0,0.0,0.0,0.0,0.0,0.0,0.0,0.0,0.0,0.0,0.0,0.0,0.0,0.0,0.0,0.0,0.0,0.0,0.0,0.0,0.0,0.0,0.0,0.0,0.0,0.0,0.0,-3.8104,-3.7387,-3.7332,-3.7468,-3.6885,0.0,0.0,0.0,0.0,0.0,0.0,-3.6302,-3.6386,-3.6328,-3.6159,-3.607,-3.5962,-3.5814,-3.5628,-3.5815,-3.6392,-3.6003,-3.6121,-3.6734,-3.6781,-3.6523,-3.6001,-3.6093,-3.5488,-3.4615,-3.5489,-3.5759,-3.5588,-3.5426,-3.517,-3.4886,-3.458,-3.458,-3.47,-3.454,-3.478,-3.5074,-3.4566,0.0,-3.3356,-3.2424,0.0,0.0,0.0,0.0,-3.0674,-3.0855,-3.0055,-2.9263,-2.9263,-2.8724,-2.8299,-2.8447,-2.8201,-2.8385,0.0,-3.0376,-3.0736,-3.1336,0.0,0.0,0.0,0.0,-3.2299,-3.2897,-3.2461,-3.2078,-3.2055,-3.264,-3.3141,-3.3361,-3.4134,-3.4946,-3.5776,-3.6503,-3.6887,-3.6844,-3.7886,-3.7981,-3.6859,0.0,0.0,0.0,0.0,0.0,0.0,0.0,0.0,0.0,0.0,0.0,0.0,0.0,0.0,0.0,0.0,0.0,0.0,0.0,0.0,0.0,0.0,0.0,0.0,0.0,0.0,0.0,0.0,0.0,-3.6919,-3.6505,0.0,0.0,0.0,0.0,-3.4771,-3.5261,-3.5224,-3.4458,-3.4919,-3.5112,-3.4903,-3.5361,-3.5619,-3.5619,-3.5619,-3.5644,-3.5656,-3.5644,-3.5644,-3.5668,-3.593,-3.5774,-3.5288,-3.5462,-3.4777,-3.3664,-3.4571,-3.4751,-3.4481,-3.4481,-3.4454,-3.4428,-3.44,-3.44,-3.4441,-3.44,-3.4413,-3.4397,-3.4204,-3.3081,-3.1866,-3.2113,-3.1371,0.0,0.0,-3.0494,-3.033,-2.9896,-2.9314,-2.8831,-2.8831,-2.8155,-2.7551,-2.7551,-2.7678,-2.7873,0.0,-2.8522,-2.9001,-2.9558,0.0,-3.1167,-3.1702,-3.1646,-3.1539,-3.1613,-3.1405,-3.1209,-3.1086,-3.1556,-3.185,-3.1743,-3.2651,-3.352,-3.4269,-3.5284,-3.6175,-3.6863,-3.7372,-3.7553,-3.7281,-3.6883,0.0,0.0,0.0,0.0,0.0,0.0,0.0,0.0,0.0,0.0,0.0,0.0,0.0,0.0,0.0,0.0,0.0,0.0,0.0,0.0,0.0,0.0,0.0,0.0,0.0,0.0,0.0,0.0,-3.5215,-3.535,0.0,-3.3991,-3.4505,-3.4732,-3.4284,-3.4734,-3.491,-3.4619,-3.5125,-3.5373,-3.5325,-3.5318,-3.532,-3.532,-3.5175,-3.5175,-3.532,-3.532,-3.5428,-3.562,-3.5704,-3.5456,-3.4974,-3.5367,-3.4898,-3.3839,-3.42,-3.3928,-3.3313,-3.3313,-3.3386,-3.3501,-3.3501,-3.3501,-3.3501,-3.3501,-3.3428,-3.3207,-3.2629,-3.203,-3.1514,-3.1323,-3.0947,-3.053,-3.018,-3.0114,-2.9918,-2.9126,-2.8542,-2.8131,-2.7995,-2.7441,-2.6962,-2.7085,-2.6892,-2.6714,-2.6767,-2.7762,-2.8629,-2.8811,-2.9231,-2.9653,-2.9986,-2.9884,-2.9884,-3.0304,-3.0063,-2.9922,-3.0139,-3.0558,-3.0746,-3.057,-3.1736,-3.2678,-3.3206,-3.405,-3.4935,-3.5898,-3.6034,-3.6215,-3.6468,-3.6296,-3.6057,0.0,0.0,0.0,0.0,0.0,0.0,0.0,0.0,0.0,0.0,0.0,0.0,0.0,0.0,0.0,0.0,0.0,0.0,0.0,0.0,0.0,0.0,0.0,0.0,0.0,0.0,-3.4186,-3.442,-3.4299,-3.408,-3.3694,-3.4028,-3.421,-3.3991,-3.4491,-3.4795,-3.4795,-3.5029,-3.5223,-3.5223,-3.5199,-3.5065,-3.4847,-3.4906,-3.4906,-3.4835,-3.4835,-3.4932,-3.509,-3.509,-3.4895,-3.4539,-3.4905,-3.4599,-3.3873,-3.3768,-3.3387,-3.2892,-3.2698,-3.268,-3.2797,-3.2797,-3.2797,-3.2785,-3.2686,-3.2481,-3.2127,-3.1501,-3.1172,-3.0991,-3.0736,-3.0519,-3.0288,-3.0089,-2.9896,-2.9629,-2.8664,-2.8145,-2.776,-2.7272,-2.6745,-2.6437,-2.6715,-2.6363,-2.6087,-2.6329,-2.727,-2.7997,-2.785,-2.8259,-2.8605,-2.8566,-2.8566,-2.8752,-2.9133,-2.8949,-2.8922,-2.925,-2.951,-2.974,-2.9824,-3.0984,-3.1979,-3.2696,-3.3197,-3.3965,-3.5113,-3.4968,-3.5047,-3.5453,-3.5155,-3.4772,-3.4371,0.0,0.0,0.0,0.0,0.0,0.0,0.0,0.0,0.0,0.0,0.0,0.0,0.0,0.0,0.0,0.0,0.0,0.0,0.0,0.0,0.0,0.0,0.0,-3.4824,-3.3918,-3.3501,-3.4485,-3.3334,-3.2898,-3.3882,-3.3976,-3.3994,-3.4018,-3.4486,-3.4775,-3.4787,-3.4531,-3.4396,-3.4408,-3.4883,-3.4819,-3.416,-3.4807,-3.4795,-3.4125,-3.4125,-3.4125,-3.4125,-3.4125,-3.4074,-3.3994,-3.4006,-3.3859,-3.3562,-3.3331,-3.3238,-3.3234,-3.2633,-3.2393,-3.2425,-3.2369,-3.2369,-3.23,-3.2045,-3.1637,-3.1217,-3.0949,-3.0496,-3.0156,-3.046,-3.0156,-2.9775,-3.0111,-2.9961,-2.9527,-2.8566,-2.8145,-2.7725,-2.6757,-2.6188,-2.5968,-2.6362,-2.6177,-2.6063,-2.6727,-2.6967,-2.6976,-2.6564,-2.7449,-2.8007,-2.7563,-2.7886,0.0,-2.8179,-2.8191,-2.8283,-2.8431,-2.851,-2.8795,-2.9428,-3.0358,-3.1449,-3.2682,-3.2772,-3.3318,-3.4566,-3.4176,-3.4063,-3.434,-3.3433,-3.2735,-3.2271,0.0,0.0,0.0,0.0,0.0,0.0,0.0,0.0,0.0,0.0,0.0,0.0,0.0,0.0,0.0,0.0,0.0,0.0,0.0,0.0,0.0,-3.3288,-3.2935,-3.2911,-3.2292,-3.207,-3.2723,-3.2448,-3.2678,-3.3882,-3.4005,-3.4102,-3.4292,-3.4447,-3.4445,-3.431,-3.4211,-3.4327,-3.4693,-3.4492,-3.448,-3.4604,-3.448,-3.4304,-3.4125,-3.4125,-3.4125,-3.4125,-3.4125,-3.3891,-3.3504,-3.3882,-3.3801,-3.3375,-3.3327,-3.3043,-3.2711,-3.2763,-3.2656,-3.2454,-3.225,-3.1717,-3.1071,-3.1015,-3.0758,-3.0487,-3.0442,-3.0146,-2.9907,-3.0,-3.0054,-2.9979,-2.9716,-2.9817,-2.9824,-2.8846,-2.8048,-2.7318,-2.6718,-2.5955,-2.5411,-2.5527,-2.558,-2.5717,-2.6104,-2.6427,-2.6694,-2.6769,-2.7145,-2.7429,-2.7307,-2.7278,0.0,-2.7482,-2.763,-2.7764,-2.776,-2.8433,-2.8868,-2.8828,-3.0103,-3.1166,-3.1816,-3.1914,-3.2327,-3.3139,-3.2758,-3.2658,-3.2879,-3.2311,-3.1853,0.0,0.0,0.0,0.0,0.0,0.0,0.0,0.0,0.0,0.0,0.0,0.0,0.0,0.0,0.0,0.0,0.0,0.0,0.0,0.0,0.0,0.0,-3.2759,-3.2089,-3.1658,-3.1645,-3.1884,-3.2514,-3.2509,-3.2924,-3.4198,-3.4138,-3.4124,-3.4274,-3.4249,-3.4211,-3.4125,-3.3977,-3.415,-3.4641,-3.4384,-3.4322,-3.445,-3.4171,-3.3977,-3.3779,-3.363,-3.3679,-3.3779,-3.3779,-3.3665,0.0,-3.3553,-3.3461,-3.3264,-3.2957,-3.2676,0.0,0.0,0.0,0.0,0.0,-3.0969,-3.0318,-3.0318,-3.0045,-2.9715,-2.9715,-2.9566,-2.9371,-2.9371,-2.9463,-2.951,-2.9172,-2.9331,-2.9351,-2.8274,-2.7566,-2.6953,-2.6077,-2.5477,-2.5115,-2.5285,-2.5285,-2.5369,-2.5843,0.0,0.0,-2.6437,-2.6798,-2.6992,-2.6828,-2.6798,-2.6809,-2.6951,-2.7174,-2.7324,-2.7428,-2.8029,-2.8505,-2.8628,-2.9765,0.0,0.0,0.0,-3.1291,-3.1709,-3.1397,0.0,0.0,0.0,-3.0418,0.0,0.0,0.0,0.0,-3.0868,-3.1033,0.0,0.0,0.0,0.0,0.0,0.0,0.0,0.0,0.0,0.0,0.0,0.0,0.0,0.0,0.0,0.0,-3.2195,-3.1321,-3.0938,-3.1595,-3.2405,-3.3099,-3.303,-3.3367,-3.4581,-3.4359,-3.4075,-3.4075,-3.4075,-3.4026,-3.3977,0.0,0.0,0.0,0.0,-3.4088,-3.3902,-3.3845,-3.3604,-3.3231,-3.298,-3.298,-3.3231,-3.3231,-3.3331,-3.3545,-3.307,-3.3008,-3.3166,-3.2471,-3.2298,-3.2465,-3.243,-3.1831,-3.0965,-3.0646,-3.0227,-2.9794,-2.9794,0.0,0.0,-2.9035,-2.885,-2.8664,-2.8664,-2.8595,-2.8585,-2.8585,-2.8631,-2.8435,-2.7428,-2.7036,-2.6657,-2.5379,-2.4977,-2.4946,-2.5327,-2.5115,-2.5031,-2.5684,-2.5611,-2.5538,-2.577,-2.6354,-2.6644,-2.6282,-2.6396,-2.652,-2.652,-2.6768,-2.7036,-2.7216,0.0,0.0,-2.8634,-2.9304,-2.9954,-3.0598,-3.0407,-3.0295,-3.0352,-3.0114,-3.0057,-3.0307,-2.9428,-2.8852,-2.8585,-2.8609,-2.8847,-2.9254,-2.9639,-3.0052,0.0,0.0,0.0,0.0,0.0,0.0,0.0,0.0,0.0,0.0,0.0,0.0,0.0,0.0,0.0,-3.2466,-3.2116,-3.1668,-3.0789,-3.1659,-3.2503,-3.2628,-3.2808,-3.3221,-3.4164,-3.4162,-3.4026,-3.3779,-3.3779,-3.358,-3.3142,-3.3081,-3.3157,-3.3429,-3.3045,-3.3034,-3.3337,-3.2994,-3.2746,-3.2656,0.0,0.0,-3.2656,-3.2656,-3.2706,-3.2745,-3.2867,-3.2821,-3.2648,-3.2719,-3.2533,-3.2162,-3.1914,-3.1518,-3.0917,-3.0456,-2.9852,-2.9266,-2.9266,-2.8943,-2.8535,-2.8535,-2.8196,-2.782,-2.782,-2.782,0.0,-2.782,-2.8102,-2.8398,-2.8215,-2.7396,-2.6619,-2.6349,-2.5396,-2.4583,-2.4668,-2.4625,-2.4658,-2.5031,-2.5031,-2.5073,-2.5285,-2.5759,-2.6104,-2.6199,-2.6115,-2.6021,-2.6021,-2.6724,-2.7151,-2.6971,-2.7954,-2.8536,-2.8465,-2.873,-2.8995,-2.9198,-2.8932,-2.8967,-2.9387,-2.8744,-2.8629,-2.9018,-2.8509,-2.8081,-2.782,-2.7996,-2.8201,-2.8457,-2.9329,-3.0085,0.0,0.0,0.0,0.0,0.0,0.0,0.0,0.0,0.0,0.0,0.0,-3.4928,-3.4666,0.0,-3.2897,-3.2886,-3.2003,-3.1325,-3.1324,-3.1678,-3.1995,-3.2279,-3.2681,-3.3093,-3.3656,-3.3679,-3.3679,-3.3679,-3.358,-3.3431,-3.3331,-3.3042,-3.3056,-3.3377,-3.2802,-3.274,-3.3193,-3.2587,-3.2331,-3.2493,-3.2331,-3.2342,-3.2493,-3.2493,-3.2493,-3.2482,-3.2347,-3.2245,-3.2112,-3.1926,-3.1728,-3.1484,-3.1369,-3.1015,-3.0602,-3.0045,-2.9485,-2.8943,-2.8814,-2.8581,-2.8395,-2.8243,-2.7914,-2.7584,-2.7584,-2.7547,-2.7404,-2.7309,-2.7462,-2.76,-2.7358,-2.6846,-2.6382,-2.6277,-2.5534,-2.4848,-2.4848,-2.4662,-2.454,-2.4658,-2.47,-2.4786,-2.4988,-2.5242,-2.5464,-2.5675,-2.5591,-2.5635,-2.5872,-2.653,-2.7005,-2.7105,-2.7904,-2.8369,-2.8223,-2.8269,-2.8362,-2.842,-2.8149,-2.8115,-2.8338,-2.7757,-2.7556,-2.7813,-2.7461,-2.7204,-2.7071,-2.7143,-2.7505,-2.8006,-2.8543,-2.9168,0.0,0.0,0.0,0.0,0.0,0.0,0.0,-3.5277,-3.4657,-3.4582,-3.4448,-3.4294,-3.4019,-3.3076,-3.2609,-3.323,-3.206,-3.1256,-3.1794,-3.1639,-3.1562,-3.1948,-3.2519,-3.2992,-3.3181,-3.3281,-3.3381,-3.363,-3.3431,-3.3381,-3.353,-3.3131,-3.3011,-3.3282,-3.2695,-3.2582,-3.2893,-3.2225,-3.2077,-3.2342,-3.2026,-3.2077,-3.2342,-3.2342,-3.2342,-3.2319,-3.1878,-3.17,-3.1716,-3.1127,-3.0927,-3.0975,-3.0875,-3.06,-3.0166,-2.9695,-2.9214,-2.8748,-2.8524,-2.8441,-2.8346,-2.8136,-2.7836,-2.7536,-2.7536,-2.7404,-2.7167,-2.6948,-2.69,-2.6819,-2.6451,-2.6335,-2.6264,-2.6057,-2.5678,-2.5313,-2.5269,-2.4908,-2.4545,-2.4502,-2.4473,-2.4497,-2.4743,-2.4849,-2.5008,-2.5168,-2.5275,-2.5477,-2.586,-2.6402,-2.6902,-2.7239,-2.7675,-2.7904,-2.7857,-2.7857,-2.7857,-2.7857,-2.7631,-2.7452,-2.7452,-2.7034,-2.6832,-2.6812,-2.6592,-2.6448,-2.64,-2.64,-2.6811,-2.7542,-2.7622,-2.8184,-3.5122,-3.5086,-3.4889,-3.5119,-3.4932,-3.487,0.0,-3.5248,-3.4797,-3.5044,-3.4738,-3.4248,-3.3817,-3.3601,-3.3241,-3.2381,-3.2483,-3.2347,-3.1501,-3.1716,-3.1847,-3.1695,-3.2381,-3.2891,-3.2942,-3.3181,-3.3331,-3.3331,-3.3331,-3.3181,-3.298,-3.2942,-3.269,-3.2205,-3.2099,-3.1947,-3.1757,-3.1702,-3.168,-3.1721,-3.168,-3.1669,-3.1721,-3.1721,-3.1721,-3.1721,-3.1615,-3.1746,-3.1905,-3.1218,-3.1031,-3.1197,-3.0814,-3.0349,-2.9891,-2.9624,-2.9152,-2.8721,-2.8673,-2.8492,-2.8309,-2.8261,-2.7833,-2.7309,-2.7309,-2.7177,-2.6948,-2.69,-2.69,-2.689,-2.6839,-2.6701,-2.6558,-2.6553,-2.6144,-2.5768,-2.5507,-2.5125,-2.4764,-2.4533,-2.4341,-2.4249,-2.4282,-2.4751,-2.518,-2.5179,-2.5562,-2.5849,-2.5902,-2.6645,-2.7229,-2.7271,-2.7509,-2.7584,-2.7394,-2.7394,-2.7394,-2.7394,-2.7129,-2.6996,-2.6996,-2.6699,-2.6544,-2.6544,-2.6496,-2.64,-2.6149,-2.6149,-2.6309,-2.6565,-2.6937,-2.7823,-3.4182,-3.4208,-3.4394,-3.4472,-3.4274,-3.4175,-3.4703,-3.447,-3.424,-3.4485,-3.4232,-3.3986,-3.4094,-3.3777,-3.3362,-3.3081,-3.2681,-3.2411,-3.2252,-3.1873,-3.1716,-3.2106,-3.2454,-3.2667,-3.2667,-3.3069,-3.3381,-3.353,-3.3381,-3.3331,-3.3381,-3.3081,-3.2718,-3.228,-3.2128,-3.1874,-3.1618,-3.1772,-3.1772,-3.1618,-3.1772,-3.1772,-3.1618,-3.1618,-3.1618,-3.1618,-3.1618,-3.1669,-3.1761,-3.1451,-3.1374,-3.1464,-3.1256,-3.0783,-3.0215,-2.9851,-2.9219,-2.8539,-2.8652,-2.8338,-2.7919,-2.8046,-2.7731,-2.7309,-2.7309,-2.7214,-2.7081,-2.6948,-2.69,-2.69,-2.69,-2.6853,-2.6794,-2.6972,-2.6667,-2.6279,-2.6151,-2.5665,-2.5257,-2.5292,-2.5104,-2.5026,-2.5149,-2.5437,-2.5633,-2.5602,-2.5782,-2.5923,-2.6069,-2.6397,-2.6739,-2.7056,-2.7158,-2.7177,-2.7081,-2.7081,-2.7088,-2.7199,-2.7167,-2.7051,-2.681,-2.6579,-2.6352,-2.6024,-2.6024,-2.5975,-2.5868,-2.5868,-2.6055,-2.6396,-2.6572,-2.7263,-3.3896,-3.3886,-3.4,-3.3957,-3.3805,-3.3625,-3.3805,-3.3928,-3.401,-3.4119,-3.386,-3.3799,-3.4314,-3.3706,-3.3277,-3.3604,-3.2952,-3.2548,-3.2835,-3.2313,-3.2012,-3.251,-3.2656,-3.2706,-3.2706,-3.3069,-3.3381,-3.358,-3.3431,-3.3381,-3.358,-3.3131,-3.283,-3.2606,-3.2229,-3.1924,-3.1721,-3.1823,-3.1772,-3.1618,-3.1823,-3.1772,-3.1618,-3.1618,-3.1618,-3.1618,-3.1618,-3.1618,-3.1567,-3.1527,-3.1476,-3.1476,-3.1476,-3.1081,-3.0471,-3.0241,-2.948,-2.8588,-2.8726,-2.8378,-2.7907,-2.7911,-2.7707,-2.7417,-2.734,-2.7309,-2.7262,-2.7081,-2.6996,-2.6996,-2.6996,-2.6996,-2.7034,-2.7167,-2.6909,-2.6671,-2.6568,-2.6033,-2.5625,-2.5752,-2.5569,-2.5442,-2.5568,-2.5807,-2.598,-2.598,-2.6185,-2.6295,-2.6326,-2.6412,-2.658,-2.6764,-2.6853,-2.6853,-2.6805,-2.6805,-2.6881,-2.7071,-2.7018,-2.6881,-2.6725,-2.6436,-2.612,-2.5693,-2.5693,-2.5693,-2.5693,-2.5693,-2.5849,-2.6211,-2.6338,-2.6787,-3.4519,-3.4206,-3.3802,-3.362,-3.3636,-3.3512,-3.3306,-3.3907,-3.4426,-3.4262,-3.4044,-3.3963,-3.4227,-3.3538,-3.3039,-3.3555,-3.3428,-3.317,-3.293,-3.3119,-3.3108,-3.2807,-3.3069,-3.3281,0.0,-3.3281,-3.3281,-3.3331,-3.3281,-3.3281,-3.3331,-3.3042,-3.2891,-3.2891,-3.2291,-3.2015,-3.1964,-3.1721,-3.1618,-3.1618,-3.1618,-3.1618,-3.1618,-3.1618,-3.1618,-3.1618,-3.1618,-3.1618,-3.1578,-3.1322,-3.123,-3.123,-3.123,-3.0928,-3.0558,-3.0765,-3.0052,-2.9003,-2.9013,-2.8825,-2.8504,-2.8059,-2.7914,-2.7821,-2.7444,-2.7309,-2.7309,-2.7309,-2.7309,-2.7309,-2.7309,-2.7309,-2.7214,-2.6948,-2.689,-2.6832,-2.6572,-2.6124,-2.5718,-2.553,-2.5331,-2.5133,-2.4894,-2.5577,-2.6196,-2.6196,-2.68,-2.7112,-2.663,-2.7009,-2.7051,-2.6544,-2.6747,-2.6794,-2.6544,-2.6496,-2.6687,-2.7071,-2.6485,-2.6347,-2.6784,-2.6104,-2.5742,-2.5693,-2.5693,-2.5693,-2.5693,-2.5693,-2.5693,-2.5713,-2.6191,-2.6621,-3.4506,-3.4327,-3.4336,-3.3592,-3.3503,-3.3579,-3.3466,-3.3861,-3.4256,-3.4361,-3.3856,-3.3498,-3.3933,-3.3281,-3.2724,-3.3095,-3.3245,-3.3281,-3.3181,-3.2919,-3.2857,-3.3119,-3.2919,0.0,0.0,0.0,0.0,-3.3281,-3.3281,-3.3281,-3.3281,-3.3042,-3.283,-3.2656,-3.2443,-3.2128,-3.1721,-3.2026,-3.1986,-3.1618,-3.1618,-3.1618,-3.1618,-3.1618,-3.1618,-3.1618,-3.1618,-3.1618,-3.1578,-3.1333,-3.1178,-3.1178,-3.1178,-3.0979,-3.0737,-3.0982,-3.0427,-2.9465,-2.931,-2.8956,-2.8587,-2.8431,-2.8173,-2.7893,-2.7748,-2.7489,-2.7262,-2.7081,-2.7167,-2.7262,-2.7081,-2.7177,-2.7262,-2.7167,-2.7177,-2.7081,-2.6794,-2.6625,-2.6523,-2.6428,-2.6354,-2.6347,-2.6421,-2.6742,-2.6855,-2.6666,-2.674,-2.6723,-2.6571,-2.6539,-2.6549,-2.6703,-2.6792,-2.6792,-2.6694,-2.6684,-2.6655,-2.6616,-2.6446,-2.6406,-2.6507,-2.6153,-2.5868,-2.5693,-2.5693,-2.5693,-2.5693,-2.5693,-2.5693,-2.5693,-2.584,-2.6191,-3.5016,-3.4715,-3.4698,-3.4149,-3.3889,-3.3793,-3.3909,-3.4188,-3.4479,-3.4791,-3.3955,-3.3446,-3.4062,-3.3175,-3.2448,-3.2904,-3.3094,-3.3142,-3.3142,-3.2919,-3.2919,-3.3281,-3.2908,-3.2807,0.0,0.0,0.0,-3.3142,-3.3142,-3.3142,-3.3142,-3.288,-3.2718,-3.2667,-3.2443,-3.2128,-3.1772,-3.2037,-3.1975,-3.1618,-3.1618,-3.1618,-3.1618,-3.1618,-3.1618,-3.1618,-3.1618,-3.1618,-3.1567,-3.123,-3.1086,-3.1023,-3.0972,-3.0817,-3.0672,-3.0972,-3.0563,-2.9928,-2.9616,-2.9207,-2.8835,-2.8669,-2.8524,-2.839,-2.8214,-2.7852,-2.75,-2.7318,-2.729,-2.7262,-2.7081,-2.7177,-2.7262,-2.7167,-2.7177,-2.7129,-2.6948,-2.69,-2.69,-2.69,-2.69,-2.689,-2.688,-2.687,-2.6832,-2.6747,-2.6554,-2.6352,-2.6352,-2.6294,-2.6376,-2.6626,-2.6567,-2.6586,-2.6656,-2.6478,-2.6409,-2.6377,-2.627,-2.627,-2.6367,-2.6104,-2.5868,-2.5693,-2.5693,-2.5693,-2.5693,-2.5693,-2.5693,-2.5693,-2.5586,-2.5819,-3.5949,-3.5399,-3.4903,-3.5235,-3.471,-3.4229,-3.4493,-3.4736,-3.5013,-3.5278,-3.4356,-3.3726,-3.4462,-3.322,-3.2305,-3.303,-3.2983,-3.2891,-3.2891,-3.3081,-3.3231,-3.3281,-3.2958,-3.3008,-3.358,0.0,0.0,-3.288,0.0,-3.2891,-3.2891,-3.2617,-3.2606,-3.2841,-3.2291,-3.2015,-3.1975,-3.1721,-3.1618,-3.1618,-3.1618,-3.1618,-3.1618,-3.1618,-3.1618,-3.1618,-3.1618,-3.1618,-3.1578,-3.1023,-3.0786,-3.0776,-3.0505,-3.0391,-3.0391,-3.0724,-3.0609,-3.0328,-2.9877,-2.9587,-2.9259,-2.8804,-2.8949,-2.9228,-2.8783,-2.8328,-2.7906,-2.7906,-2.7655,-2.7372,-2.7324,-2.7382,-2.7276,-2.7027,-2.6931,-2.6921,-2.6911,-2.69,-2.69,-2.69,-2.69,-2.6699,-2.6197,-2.61,-2.6197,-2.6448,-2.6245,-2.611,-2.613,-2.6314,-2.6435,-2.6417,-2.6281,-2.6231,-2.6407,-2.6025,-2.5967,-2.6328,-2.5967,-2.5879,-2.6338,-2.5908,-2.5684,-2.5635,-2.5684,-2.5684,-2.5684,-2.5684,-2.5684,-2.5684,-2.544,-2.5554,-3.6677,-3.6444,-3.6248,-3.5592,-3.5257,-3.5037,-3.4922,-3.4668,-3.4522,-3.4762,-3.4079,-3.3548,-3.3567,-3.3209,-3.2759,-3.2361,-3.2645,-3.283,-3.2606,-3.2443,-3.2443,-3.2656,-3.2392,-3.2381,-3.2757,-3.2656,0.0,0.0,-3.2667,-3.2891,-3.2891,-3.2403,-3.2179,-3.224,-3.2077,-3.1913,-3.1721,-3.1618,-3.1618,-3.1618,-3.1618,-3.1618,-3.1618,-3.1618,-3.1618,-3.1618,-3.1618,-3.1618,-3.1578,-3.1023,-3.0786,-3.0776,-3.0505,-3.0297,-3.0151,-3.062,-3.0609,-3.037,-3.0255,-3.0068,-2.9746,-2.928,-2.9208,-2.928,-2.9166,-2.8804,-2.8382,-2.8173,-2.82,-2.8216,-2.8008,-2.8107,-2.8183,-2.7744,-2.7662,-2.7531,-2.702,-2.7081,-2.7071,-2.6699,-2.6602,-2.6544,-2.64,-2.6245,-2.61,-2.6197,-2.5965,-2.5986,-2.6547,-2.6221,-2.6173,-2.6777,-2.6799,-2.6652,-2.6406,-2.6572,-2.6465,-2.5888,-2.5752,-2.5635,-2.5595,-2.5449,-2.5294,-2.5088,-2.5284,-2.5391,-2.5391,-2.5586,-2.5586,-2.5391,-2.5333,-2.5244,-3.7036,-3.6975,-3.693,-3.6504,-3.6096,-3.5815,-3.5758,-3.5364,-3.4999,-3.5024,-3.4261,-3.3477,-3.3249,-3.29,-3.2501,-3.2059,-3.2403,-3.2606,-3.2342,-3.2128,-3.2077,-3.224,-3.2128,-3.2128,-3.2443,-3.2493,-3.2443,0.0,-3.2403,-3.2505,-3.2505,-3.2179,-3.2077,-3.2229,-3.2229,-3.2077,-3.1772,-3.1772,-3.1721,-3.1618,-3.1618,-3.1618,-3.1618,-3.1618,-3.1618,-3.1618,0.0,-3.1527,-3.1373,-3.0983,-3.0724,-3.0609,-3.0349,-3.0141,-3.0047,-3.036,-3.036,-3.0245,-3.0245,-3.0151,-2.9953,-2.9694,-2.9611,-2.9611,-2.9611,-2.929,-2.8867,-2.8756,-2.8662,-2.8568,-2.8397,-2.8507,-2.8545,-2.8286,-2.8224,-2.8113,-2.7729,-2.76,-2.7404,-2.6777,-2.6496,-2.6294,-2.6294,-2.61,-2.5917,-2.5917,-2.5986,-2.6221,-2.6792,-2.6378,-2.6279,-2.6943,-2.7012,-2.6992,-2.6953,-2.6992,-2.6728,-2.6064,-2.6025,-2.5839,-2.5489,-2.5489,-2.5391,-2.5235,-2.5391,-2.5489,-2.5489,-2.5635,-2.5635,-2.5489,-2.5235,-2.5039,-3.7261,-3.7248,-3.727,-3.7461,-3.6952,-3.6517,-3.6648,-3.6242,-3.5797,-3.5683,-3.4578,-3.3594,-3.3348,-3.267,-3.2144,-3.2026,-3.2229,-3.2291,-3.1975,-3.1924,-3.1924,-3.1913,-3.1975,-3.2077,-3.2342,-3.2392,-3.2392,-3.2392,-3.2128,-3.1975,-3.2066,-3.2015,-3.2128,-3.2493,-3.2443,-3.228,-3.2015,-3.1964,-3.1823,-3.1618,-3.1618,-3.1618,-3.1618,-3.1618,-3.1618,-3.1618,0.0,0.0,-3.123,-3.0931,-3.0672,-3.0443,-3.0151,-3.0047,-3.0047,-3.0151,-3.0151,-3.0151,-3.0151,-3.0151,-3.0099,-2.9994,-2.9994,-2.9994,-2.9994,-2.9715,-2.9394,-2.9394,-2.9104,-2.8794,-2.8794,-2.8794,-2.8783,-2.8721,-2.8711,-2.869,-2.8628,-2.8247,-2.7757,-2.7145,-2.6579,-2.619,-2.618,-2.5908,-2.5762,-2.5859,-2.6143,-2.6505,-2.6926,-2.666,-2.6631,-2.706,-2.7051,-2.7148,-2.7523,-2.7148,-2.6748,-2.6328,-2.6299,-2.6133,-2.5655,-2.5645,-2.5635,-2.5586,-2.5635,-2.5645,-2.5645,-2.5684,-2.5635,-2.5586,-2.5137,-2.4833,-3.7703,-3.7861,-3.792,-3.7575,-3.7415,-3.7168,-3.6798,-3.6003,-3.5402,-3.58,-3.4799,-3.3902,-3.3851,-3.3372,-3.2771,-3.2082,-3.1874,-3.1732,-3.1669,-3.1476,-3.1424,-3.1618,-3.1669,-3.1669,-3.1732,-3.1783,0.0,0.0,-3.1721,-3.1874,-3.2392,-3.2128,-3.2128,-3.2493,-3.2229,-3.2066,-3.2015,-3.1772,-3.1629,-3.1618,-3.1618,-3.1618,-3.1618,-3.1618,-3.1618,-3.1618,-3.1618,0.0,-3.1476,-3.0983,-3.0776,-3.0724,-3.0453,-3.0339,-3.0391,-3.0817,-3.0972,-3.0972,-3.0972,-3.0827,-3.0568,-3.0151,-2.9994,-2.9994,-2.9994,-2.9942,-2.988,-2.988,-2.9818,-2.9756,-2.9756,-2.9756,-2.9653,-2.927,-2.9187,-2.9073,-2.869,-2.8346,-2.8064,-2.7703,-2.7142,-2.6636,-2.6626,-2.6104,-2.6006,-2.6803,-2.6506,-2.6329,-2.6765,-2.688,-2.707,-2.751,-2.7226,-2.6904,-2.6631,-2.6543,-2.6318,-2.583,-2.5801,-2.5664,-2.5391,-2.5391,-2.5284,-2.5039,-2.5235,-2.5391,-2.5391,-2.5586,-2.5489,-2.5039,-2.4932,-2.4587,-3.7564,-3.7887,-3.8011,-3.7907,-3.7677,-3.7431,-3.7171,-3.6356,-3.5586,-3.556,-3.4719,-3.3916,-3.3676,-3.3435,-3.2989,-3.2161,-3.2247,-3.2222,-3.1662,-3.1756,-3.1821,-3.1805,-3.1669,-3.1669,-3.1772,-3.1669,-3.1618,-3.1618,-3.1618,-3.1772,-3.2229,-3.2229,-3.2331,-3.2493,-3.2331,-3.2179,-3.2015,-3.1874,-3.1721,-3.1618,-3.1618,-3.1618,-3.1618,-3.1618,-3.1618,-3.1618,-3.1618,0.0,-3.1178,-3.0931,-3.062,-3.036,-3.0401,-3.0391,-3.0443,-3.0703,-3.0868,-3.0931,-3.0661,-3.0557,-3.0505,-3.0151,-2.9994,-2.9994,-2.9994,-2.9994,-2.9994,-2.9994,-2.9994,-2.9994,-2.9994,-2.9994,-2.9942,-2.9715,-2.9559,-2.927,-2.8666,-2.836,-2.8025,-2.7642,-2.724,-2.6901,-2.6841,-2.6583,-2.6525,-2.7022,-2.7021,-2.692,-2.6901,-2.7378,-2.751,-2.7051,-2.7012,-2.6934,-2.6728,-2.6709,-2.6533,-2.6103,-2.6074,-2.5927,-2.5499,-2.5489,-2.544,-2.5333,-2.5294,-2.5284,-2.5284,-2.5284,-2.5088,-2.4686,-2.4538,-2.4233,-3.7446,-3.7795,-3.807,-3.8167,-3.7952,-3.769,-3.7551,-3.6781,-3.6051,-3.5611,-3.481,-3.4075,-3.3719,-3.3542,-3.3145,-3.2252,-3.2652,-3.2694,-3.1746,-3.1864,-3.2025,-3.1918,-3.1669,-3.1629,-3.1863,-3.1721,0.0,-3.1618,-3.1732,-3.1874,-3.1964,-3.2392,-3.2555,-3.2493,-3.2443,-3.228,-3.2015,-3.1913,-3.1823,-3.1618,-3.1618,-3.1618,-3.1618,-3.1618,-3.1618,-3.1618,-3.1618,0.0,0.0,-3.0827,-3.0516,-3.0099,-3.0401,-3.0505,-3.0495,-3.0547,-3.0765,-3.0879,-3.036,-3.0297,-3.0453,-3.0151,-3.0047,-2.9994,-2.9994,-2.9994,-2.9994,-2.9994,-2.9994,-2.9994,-2.9994,-2.9994,-2.9994,-2.9994,-2.9827,-2.9514,-2.8959,-2.8619,-2.8301,-2.7839,-2.7454,-2.7251,-2.72,-2.708,-2.7041,-2.7292,-2.7518,-2.7535,-2.728,-2.7761,-2.7679,-2.6631,-2.6816,-2.6982,-2.6894,-2.6797,-2.6602,-2.6269,-2.6338,-2.623,-2.5889,-2.5918,-2.5918,-2.583,-2.5526,-2.5321,-2.5235,-2.4883,-2.4578,-2.4332,-2.4125,-2.3881,-3.771,-3.8181,-3.8466,-3.8258,-3.8362,-3.833,-3.7644,-3.7062,-3.6638,-3.6637,-3.5612,-3.4723,-3.4651,-3.424,-3.3634,-3.2623,-3.2447,-3.2279,-3.1695,-3.121,-3.1129,-3.1578,-3.1373,-3.1322,-3.1618,-3.1618,-3.1618,-3.1618,-3.2088,-3.2291,-3.2015,-3.2555,-3.2768,-3.2505,-3.2179,-3.2015,-3.2015,-3.1772,-3.1618,-3.1618,-3.1618,-3.1618,-3.1618,-3.1618,-3.1618,-3.1618,-3.1618,0.0,0.0,-3.0879,-3.062,-3.0391,-3.0672,-3.0776,-3.0776,-3.1023,-3.1322,-3.1476,-3.0931,-3.0724,-3.0724,-3.0453,-3.0193,-2.9994,-2.9994,-2.9994,-2.9994,-2.9994,-2.9994,-2.9994,-2.9994,-2.9994,-2.9994,-2.9994,-2.9994,-2.9921,-2.989,-2.966,-2.9377,-2.9011,-2.8418,-2.8004,-2.791,-2.743,-2.7302,-2.8213,-2.785,-2.7587,-2.7954,-2.7716,-2.7326,-2.6963,-2.6992,-2.6865,-2.6484,-2.6084,-2.5791,-2.5752,-2.6172,-2.6367,-2.6328,-2.6699,-2.6719,-2.6338,-2.581,-2.537,-2.4932,-2.443,-2.4035,-2.3777,-2.3737,-2.3675,-3.7341,-3.7782,-3.8207,-3.8408,-3.833,-3.8103,-3.7756,-3.7188,-3.6597,-3.618,-3.5514,-3.4895,-3.4471,-3.4466,-3.4085,-3.2948,0.0,0.0,-3.1984,-3.1788,-3.1761,-3.1805,-3.1322,-3.1178,0.0,0.0,-3.1424,-3.1578,-3.1975,0.0,-3.1772,-3.2342,-3.2505,-3.2229,-3.1924,-3.1772,-3.1772,-3.1669,-3.1618,-3.1618,-3.1618,-3.1618,-3.1618,-3.1618,-3.1618,-3.1618,-3.1618,0.0,0.0,-3.0931,-3.062,-3.0391,-3.0505,-3.0672,-3.0827,-3.0931,-3.1127,-3.127,-3.0765,-3.0557,-3.0505,-3.0245,-3.0099,-2.9994,-2.9994,-2.9994,-2.9994,-2.9994,-2.9994,-2.9994,-2.9994,-2.9994,-2.9942,-2.9774,-2.9774,-2.9722,-2.9501,-2.9396,-2.9237,-2.9132,-2.8886,-2.866,-2.847,-2.8216,-2.8114,-2.8335,-2.8154,-2.7901,-2.7875,-2.7708,-2.7449,-2.7041,-2.7012,-2.6846,-2.6426,-2.623,-2.6133,-2.6133,-2.6299,-2.6504,-2.6758,-2.6548,-2.6279,-2.5937,-2.5213,-2.4597,-2.4183,-2.3836,-2.3538,-2.3297,-2.3485,-2.3475,-3.7015,-3.7446,-3.7979,-3.833,-3.807,-3.7749,-3.7605,-3.7129,-3.6487,-3.5752,-3.5464,-3.5078,-3.4272,-3.4475,-3.44,0.0,0.0,-3.3573,-3.2086,-3.2027,-3.2022,-3.1662,-3.123,-3.1127,-3.1721,-3.1476,-3.1373,-3.1476,-3.1823,0.0,-3.1618,-3.2077,-3.2229,-3.1863,-3.1721,-3.1618,-3.1618,-3.1618,-3.1618,-3.1618,-3.1618,-3.1618,-3.1618,-3.1618,-3.1618,-3.1618,-3.1618,0.0,0.0,-3.0931,-3.062,-3.0391,-3.0391,-3.0505,-3.0672,-3.0568,-3.0776,-3.0972,-3.0391,-3.0287,-3.0339,-3.0099,-2.9994,-2.9994,-2.9994,-2.9994,-2.9994,-2.9994,-2.9994,-2.9994,-2.9994,-2.9994,-2.9942,-2.9774,-2.9722,-2.9669,-2.9396,-2.929,-2.9237,-2.9132,-2.9036,-2.8877,-2.8621,-2.8568,-2.8514,-2.8344,-2.8291,-2.8184,-2.7891,-2.7851,-2.7734,-2.7432,-2.7393,-2.7168,-2.6621,-2.6572,-2.6572,-2.6572,-2.6538,-2.664,-2.694,-2.6466,-2.6074,-2.568,-2.4842,-2.417,-2.3758,-2.335,-2.3108,-2.3028,-2.3245,-2.3384,-3.6862,-3.7281,-3.7893,-3.7893,-3.7677,-3.7413,-3.7168,-3.6909,-3.6487,-3.5752,-3.562,-3.5284,-3.4261,-3.4475,-3.44,-3.311,-3.3288,0.0,-3.1797,-3.1629,-3.1435,-3.0879,-3.1034,-3.1178,-3.123,-3.1424,-3.1476,-3.123,-3.1721,0.0,-3.1618,-3.1874,-3.1874,-3.1618,-3.1618,-3.1618,-3.1618,-3.1618,-3.1618,-3.1618,-3.1618,-3.1618,-3.1618,-3.1618,-3.1618,0.0,0.0,0.0,0.0,-3.0931,-3.062,-3.0391,-3.0391,-3.0391,-3.0391,-3.0099,-3.036,-3.0672,-2.9869,-2.9973,-3.0339,-3.0099,-2.9994,-2.9994,-2.9994,-2.9994,-2.9994,-2.9994,-2.9994,-2.9994,-2.9994,-2.9994,-2.9994,-2.9994,-2.9994,-2.9994,-2.9994,-2.9774,-2.9501,-2.9185,-2.8877,-2.8621,-2.8344,-2.8291,-2.8291,-2.8291,-2.8291,-2.8291,-2.8281,-2.8281,-2.8281,-2.8281,-2.8281,-2.793,-2.708,-2.7012,-2.7012,-2.7012,-2.6893,-2.6816,-2.6816,-2.6658,-2.6344,-2.5931,-2.502,-2.4374,-2.3881,-2.3036,-2.2791,-2.3109,-2.3109,-2.3511,-3.7108,-3.7294,-3.7644,-3.7644,-3.74,-3.7168,-3.6909,-3.6756,-3.6439,-3.5512,-3.5476,-3.5284,-3.4272,-3.4475,-3.4288,-3.2813,-3.3011,0.0,0.0,-3.1424,-3.127,-3.1075,-3.0817,-3.0703,0.0,0.0,-3.0909,-3.1178,-3.1373,0.0,-3.0857,-3.1393,-3.1669,-3.1618,-3.1618,-3.1618,-3.1618,-3.1618,-3.1618,-3.1618,-3.1618,-3.1527,-3.1333,-3.1333,-3.1116,0.0,0.0,0.0,0.0,-3.0453,-3.0412,-3.062,-3.0088,-2.9984,-3.0088,-2.9827,-2.9931,-3.0203,-2.9931,-2.9984,-3.0099,-3.0047,-2.9994,-2.9994,-2.9994,-2.9994,-2.9994,-2.9994,-2.9994,-2.9994,-2.9994,-2.9994,-2.9994,-2.9994,-2.9994,-2.9994,-2.9994,-2.9942,-2.9827,-2.9732,-2.9511,-2.9248,-2.892,-2.8664,-2.8514,-2.8344,-2.8291,-2.8291,-2.8291,-2.8047,-2.7978,-2.8262,-2.8037,-2.7754,-2.748,-2.7295,-2.7078,-2.6879,-2.6625,-2.6505,-2.6677,-2.6218,-2.5819,-2.5353,-2.4702,-2.4137,-2.3748,-2.347,-2.3511,-2.3826,-2.3826,-2.4099,-3.7032,-3.7228,-3.7629,-3.7441,-3.7406,-3.7369,-3.7081,-3.7033,-3.6778,-3.5855,-3.577,-3.5563,-3.4443,-3.436,-3.4055,-3.2791,-3.2701,-3.2432,-3.157,-3.1219,-3.0961,-3.0765,-3.0609,0.0,0.0,-3.0557,-3.0661,-3.0858,0.0,0.0,-3.0798,-3.1108,-3.1322,-3.1424,-3.1578,-3.1618,-3.1618,-3.1618,-3.1578,-3.1476,-3.1476,-3.1333,-3.1023,-3.092,-3.0754,0.0,0.0,0.0,0.0,-3.0193,-3.0256,-3.0568,-2.9869,-2.9722,-2.9827,-2.9501,-2.9606,-2.9837,-2.9837,-2.9837,-2.9837,-2.9837,-2.9837,-2.9837,-2.9837,-2.9942,-2.9994,-2.9994,-2.9994,-2.9994,-2.9994,-2.9994,-2.9994,-2.9994,-2.9994,-2.9994,-2.9994,-2.9994,-2.9994,-2.9889,-2.9606,-2.929,-2.8983,-2.8727,-2.8514,-2.8344,-2.8291,-2.8291,-2.8291,-2.8066,-2.7998,-2.8262,-2.7897,-2.7583,-2.7583,-2.7511,-2.7299,-2.6883,-2.6456,-2.6235,-2.6263,-2.5688,-2.5243,-2.499,-2.447,-2.4119,-2.3879,-2.3879,-2.3999,-2.4185,-2.4384,-2.4581,0.0,-3.7204,-3.7814,-3.7283,-3.7552,-3.7891,-3.7494,-3.7481,0.0,-3.6481,-3.6358,-3.5965,-3.4637,-3.4197,-3.3741,-3.293,-3.2302,-3.1772,-3.123,-3.095,-3.0588,-3.0047,-3.0412,0.0,-3.0047,-3.0412,-3.0568,-3.0391,0.0,0.0,-3.1073,-3.0826,-3.0826,-3.1124,-3.1403,-3.1516,-3.1516,-3.1516,-3.1424,-3.1178,-3.1178,-3.1023,-3.0776,-3.0453,-3.0453,0.0,0.0,0.0,0.0,-3.0203,-3.0141,-3.0339,-2.9816,-2.9606,-2.9554,-2.9185,-2.929,-2.9606,-2.9554,-2.9554,-2.9606,-2.9554,-2.9606,-2.9606,-2.9606,-2.9774,-2.9994,-2.9994,-2.9994,-2.9994,-2.9994,-2.9994,-2.9994,-2.9994,-2.9994,-2.9994,-2.9942,-2.9942,-2.9889,-2.9669,-2.9343,-2.9026,-2.8781,-2.8514,-2.8291,-2.8291,-2.8291,-2.8291,-2.8291,-2.8291,-2.8291,-2.8291,-2.7755,-2.7431,-2.7377,-2.7584,-2.753,-2.6935,-2.6336,-2.5907,-2.5633,-2.509,-2.4821,-2.4821,-2.4407,-2.4219,-2.4219,-2.4219,-2.4219,-2.4227,-2.465,-2.4765,-3.7167,0.0,-3.8068,-3.7141,-3.7306,-3.7308,0.0,-3.6431,-3.6871,-3.5475,-3.5841,-3.5911,-3.4369,-3.4023,-3.3492,-3.1859,-3.1487,-3.1219,-3.0651,-3.0547,-3.0287,-2.9764,-2.9554,-2.9617,-2.9994,-2.9522,-2.9416,0.0,0.0,-2.9456,-2.9723,-2.9866,-3.0071,-3.0336,-3.079,-3.0983,-3.0983,-3.0983,-3.1086,-3.1178,-3.0754,-3.0557,-3.0505,-3.0026,-2.9564,0.0,0.0,0.0,-2.9869,-2.9994,-3.0141,-3.0339,-2.9816,-2.9606,-2.9554,-2.8983,-2.9142,-2.9554,-2.9089,-2.9195,-2.9554,-2.929,-2.9396,-2.9606,-2.9606,-2.9774,-2.9994,-2.9994,-2.9994,-2.9994,-2.9994,-2.9994,-2.9942,-2.9722,-2.9711,-2.9617,-2.9343,-2.9501,-2.9659,-2.9606,-2.9554,-2.9396,-2.9089,-2.8771,-2.8514,-2.8344,-2.8291,-2.8291,-2.8291,-2.8291,-2.8237,-2.8014,-2.7853,-2.753,-2.6826,-2.6609,-2.6391,-2.6008,-2.5615,-2.5293,-2.5034,-2.4876,-2.4821,-2.4821,-2.4727,-2.4684,-2.4684,-2.4684,-2.4684,-2.4684,-2.4778,-2.471,-3.7593,-3.8016,-3.8154,-3.7206,-3.7398,-3.7451,-3.6156,-3.6518,-3.6833,-3.573,-3.5545,-3.525,-3.3971,-3.339,-3.2643,-3.1251,-3.0817,-3.0401,-2.9722,-2.9879,-2.9764,-2.9079,-2.9185,-2.9343,0.0,-2.9099,-2.9089,0.0,0.0,-2.892,-2.9394,-2.9353,-2.9537,-3.0034,-3.0076,-3.0346,-3.0786,-3.0672,-3.0609,-3.0661,-3.0235,-2.9973,-2.9816,-2.9406,-2.9142,0.0,0.0,0.0,-2.9774,-2.9942,-3.0099,-3.0193,-2.9764,-2.9501,-2.9343,-2.8983,-2.9036,-2.9142,-2.893,-2.9036,-2.9142,-2.8814,-2.893,-2.9195,-2.9343,-2.9554,-2.9827,-2.9994,-2.9994,-2.9994,-2.9837,-2.9827,-2.9722,-2.9448,-2.9396,-2.9343,-2.9132,-2.9237,-2.9396,-2.9396,-2.9185,-2.8973,-2.8761,-2.8398,-2.8023,-2.7916,-2.7916,-2.7916,-2.7916,-2.7916,-2.7799,-2.753,-2.726,-2.6826,-2.6227,-2.5798,-2.5467,-2.545,-2.5284,-2.5072,-2.4821,-2.4821,-2.4821,-2.4821,-2.4821,-2.4821,-2.4821,-2.4821,-2.4821,-2.4821,-2.4821,-2.471,-3.7702,-3.7937,-3.7925,-3.7263,-3.7364,-3.75,-3.6814,-3.6736,-3.6617,-3.6015,-3.5193,-3.4275,-3.344,-3.245,-3.1511,-3.0735,-3.012,-2.9469,-2.8674,-2.9079,-2.9185,-2.8398,-2.8983,0.0,-2.8834,-2.8877,0.0,0.0,0.0,-2.8609,-2.9428,-2.9012,-2.9126,-2.9921,-2.9498,-2.9734,-3.062,-3.0328,-3.0068,-2.9942,-2.9617,-2.9343,-2.9079,-2.8781,-2.893,0.0,0.0,0.0,-2.9942,-3.0047,-3.0047,-2.9994,-2.9774,-2.9448,-2.9185,-2.9132,-2.8983,-2.8781,-2.8973,-2.8877,-2.8631,-2.8408,-2.8514,-2.88,-2.9159,-2.9497,-2.9719,-3.0075,-3.0045,-2.9889,-2.9659,-2.9554,-2.9448,-2.9132,-2.9036,-2.9026,-2.8973,-2.9026,-2.9046,-2.9116,-2.8763,-2.8462,-2.8476,-2.7943,-2.7526,-2.7517,-2.7415,-2.7377,-2.7377,-2.7377,-2.726,-2.6989,-2.6445,-2.5962,-2.5624,-2.5136,-2.4915,-2.5119,-2.5119,-2.5017,-2.4821,-2.4821,-2.4821,-2.4821,-2.4821,-2.4821,-2.4821,-2.4821,-2.4821,-2.4821,-2.4821,-2.4765,-3.6645,-3.6555,-3.6554,-3.6542,-3.6398,-3.5975,-3.4751,-3.4939,-3.5148,-3.426,-3.402,-3.3552,-3.2372,-3.146,-3.0586,-2.9655,-2.8989,-2.8451,-2.8067,0.0,-2.8698,-2.8344,0.0,-2.8887,-2.9036,0.0,0.0,0.0,0.0,-2.772,-2.8794,-2.8326,-2.8563,-2.9638,-2.9436,-2.9467,-2.9764,-2.9352,-2.93,-2.9659,-2.9099,-2.893,-2.9079,-2.8611,-2.8568,0.0,0.0,-2.9554,-2.9722,-3.013,-3.0193,-2.9994,-2.9942,-2.9774,-2.9501,-2.9185,-2.9079,-2.9036,-2.8834,-2.8568,-2.8398,-2.8568,-2.8684,-2.885,-2.9789,-3.0061,-3.0186,-3.0629,-3.0243,-2.9659,-2.9606,-2.9396,-2.9132,-2.8834,-2.8781,-2.8674,-2.8451,-2.8611,-2.889,-2.9267,-2.9228,-2.9164,-2.9297,-2.8742,-2.8236,-2.7943,-2.7595,-2.7377,-2.7377,-2.7206,-2.6935,-2.6708,-2.6336,-2.5898,-2.534,-2.5174,-2.5072,-2.4868,-2.4868,-2.4812,-2.4821,-2.4821,-2.4821,-2.4821,-2.4821,-2.4821,-2.4821,-2.4821,-2.4821,-2.4821,-2.4821,-2.4654,-3.555,-3.5485,-3.5395,-3.5047,-3.4919,-3.4787,-3.4125,-3.3715,-3.3354,-3.2925,-3.2083,-3.1192,-3.0469,-2.9802,-2.9166,-2.8402,-2.787,-2.753,-2.7422,-2.7745,-2.796,0.0,0.0,-2.8344,-2.8441,0.0,0.0,0.0,0.0,0.0,-2.814,-2.7599,-2.7824,-2.8968,-2.8625,-2.8644,-2.9207,-2.8604,-2.8571,-2.9089,-2.8674,-2.8558,-2.8654,-2.8558,-2.8674,-2.893,0.0,-2.9827,-2.9827,-3.0235,-3.0245,-2.9994,-2.9994,-2.9722,-2.929,-2.8814,-2.8664,-2.8654,-2.8514,-2.8408,-2.8291,-2.8461,-2.8618,-2.8942,-2.9725,-3.0011,-3.0188,-3.073,-3.0411,-2.9858,-2.9558,-2.9163,-2.8824,-2.8568,-2.8461,-2.852,-2.8584,-2.8564,-2.8589,-2.8867,-2.8587,-2.834,-2.8431,-2.8069,-2.7734,-2.7614,-2.728,-2.6967,-2.6755,-2.6445,-2.6172,-2.5881,-2.5725,-2.5459,-2.5026,-2.497,-2.4915,-2.4821,-2.4821,-2.4821,-2.4821,-2.4821,-2.4821,-2.4821,-2.4821,-2.4821,-2.4821,-2.4821,-2.4821,-2.4821,-2.4821,-2.471,-3.4496,-3.4276,-3.3988,-3.33,-3.3404,-3.357,-3.3514,-3.2679,-3.1824,-3.159,-3.0439,-2.929,-2.8742,-2.8167,-2.7644,-2.7062,-2.6826,-2.6718,-2.6718,-2.6989,-2.7206,-2.7206,-2.7444,-2.7693,0.0,0.0,0.0,0.0,0.0,0.0,-2.75,-2.708,-2.7262,-2.8307,-2.7812,-2.7881,-2.8748,-2.8046,-2.8061,-2.8684,-2.8408,-2.8291,-2.8291,-2.8568,-2.8834,-2.9132,-2.9669,-2.9942,-2.9994,-3.0245,-3.0193,-2.9994,-2.9942,-2.9564,-2.893,-2.8451,-2.8291,-2.8291,-2.8291,-2.8291,-2.831,-2.8515,-2.8716,-2.9064,-2.9883,-3.0128,-3.026,-3.0843,-3.066,-3.0166,-2.9649,-2.9198,-2.8803,-2.8481,-2.8398,-2.8442,-2.8701,-2.8462,-2.8286,-2.861,-2.8053,-2.7666,-2.7968,-2.7752,-2.7462,-2.7462,-2.7146,-2.6704,-2.6307,-2.5931,-2.5619,-2.5238,-2.5119,-2.5017,-2.4821,-2.4821,-2.4821,-2.4821,-2.4821,-2.4821,-2.4821,-2.4821,-2.4821,-2.4821,-2.4821,-2.4821,-2.4821,-2.4821,-2.4765,-2.471,-2.471,-2.471,-3.3312,-3.261,-3.1948,-3.1655,-3.2054,-3.2445,-3.2135,-3.162,-3.0934,-3.0128,-2.9804,-2.9251,-2.7783,-2.6929,-2.6319,-2.5906,-2.5789,-2.5789,-2.5789,0.0,-2.6654,-2.6654,-2.677,0.0,0.0,0.0,0.0,0.0,0.0,0.0,-2.706,-2.6862,-2.7123,-2.7844,-2.7461,-2.7551,-2.8228,-2.7723,-2.7845,-2.8684,-2.8408,-2.8291,-2.8291,-2.8568,-2.8834,-2.9132,-2.9448,-2.9774,-2.9994,-3.0047,-2.9994,-2.9994,-2.9722,-2.9248,-2.8674,-2.8408,-2.8291,-2.8291,-2.8291,-2.8291,-2.8413,-2.9105,-2.9134,-2.9172,-3.0604,-3.0827,-3.073,-3.1174,-3.0985,-3.0525,-2.9908,-2.9579,-2.9243,-2.8773,-2.8674,-2.8631,-2.8384,-2.8096,-2.8147,-2.892,-2.8549,-2.8387,-2.9238,-2.8778,-2.8306,-2.8306,-2.7697,-2.7128,-2.6713,-2.6164,-2.5639,-2.5264,-2.497,-2.4812,-2.4821,-2.4821,-2.4821,-2.4821,-2.4821,-2.4821,-2.4821,-2.4821,-2.4821,-2.4821,-2.4821,-2.4821,-2.4821,-2.4821,-2.4654,-2.4432,-2.4432,-2.4432,-3.2347,-3.1918,-3.146,-3.052,-3.0389,-3.047,-3.0527,-2.9976,-2.9239,-2.8459,-2.8083,-2.7628,-2.6858,-2.5839,-2.519,-2.5366,-2.5229,-2.5174,-2.534,-2.5898,-2.6282,-2.6282,-2.6421,0.0,0.0,0.0,0.0,0.0,0.0,0.0,-2.6631,-2.631,-2.6458,-2.7142,-2.693,-2.7018,-2.7561,-2.7352,-2.7451,-2.7905,-2.8196,-2.8291,-2.8291,-2.8771,-2.893,-2.8887,-2.9396,-2.9554,-2.9459,-2.9669,-2.9774,-2.9722,-2.9396,-2.9036,-2.8684,-2.8408,-2.8291,-2.8291,-2.8291,-2.8408,-2.8583,-2.8952,-2.9331,-2.9721,-3.0615,-3.0821,-3.0905,-3.1227,-3.1042,-3.0671,-3.0155,-2.981,-2.9394,-2.8952,-2.88,-2.8746,-2.8484,-2.8321,-2.833,-2.8511,-2.8342,-2.8349,-2.875,-2.8606,-2.833,-2.8146,-2.7719,-2.7187,-2.6615,-2.5961,-2.5479,-2.5332,-2.5005,-2.4821,-2.4821,-2.4821,-2.4821,-2.4821,-2.4821,-2.4821,-2.4821,-2.4821,-2.4932,-2.5163,-2.5163,-2.5162,-2.5163,-2.5163,-2.5049,-2.4762,-2.4762,-2.4751,-3.1158,-3.0722,-3.0339,-2.9349,-2.8889,-2.862,-2.862,-2.8293,-2.775,-2.7097,-2.6545,-2.6197,-2.6188,-2.5232,-2.4521,-2.4894,-2.4697,-2.462,-2.4906,-2.5404,-2.5734,-2.5962,0.0,0.0,0.0,0.0,0.0,0.0,0.0,0.0,0.0,-2.5849,-2.5967,-2.6537,-2.6366,-2.6502,-2.6959,-2.6893,-2.7003,-2.7201,-2.7832,-2.8096,-2.8149,-2.8807,-2.893,-2.8737,-2.9353,-2.9448,-2.929,-2.9501,-2.9554,-2.9396,-2.9185,-2.8877,-2.8568,-2.8354,-2.8291,-2.8291,-2.8291,-2.8461,-2.8773,-2.9055,-2.9502,-3.0079,-3.0616,-3.0828,-3.0947,-3.0976,-3.0869,-3.0626,-3.02,-2.9927,-2.9668,-2.9219,-2.9011,-2.8855,-2.8598,-2.8487,-2.8378,-2.8397,-2.831,-2.8325,-2.8566,-2.8522,-2.8346,-2.8102,-2.773,-2.7293,-2.6673,-2.6114,-2.5634,-2.5395,-2.5044,-2.4821,-2.4821,-2.4821,-2.4872,-2.4984,-2.4992,-2.4992,-2.4992,-2.5112,-2.5292,-2.554,-2.5426,-2.5381,-2.5402,-2.5277,-2.5111,-2.481,-2.481,-2.4795,-2.9733,-2.891,-2.8237,-2.8043,-2.7556,-2.707,-2.6495,-2.6659,-2.6707,-2.6092,-2.541,-2.5124,-2.5856,-2.5116,-2.4398,-2.4408,-2.4104,-2.4033,-2.4376,-2.4637,-2.5008,-2.5624,0.0,0.0,0.0,0.0,0.0,0.0,0.0,0.0,0.0,-2.5693,-2.583,-2.61,-2.582,-2.5975,-2.6496,-2.6409,-2.6526,-2.6814,-2.739,-2.7718,-2.7728,-2.8678,-2.893,-2.8737,-2.9353,-2.9606,-2.9606,-2.9606,-2.9396,-2.9079,-2.9079,-2.8761,-2.8291,-2.8291,-2.8291,-2.8291,-2.8291,-2.8461,-2.8823,-2.9407,-2.9803,-3.0148,-3.0683,-3.0889,-3.083,-3.0509,-3.0382,-3.0333,-2.9981,-3.0036,-3.007,-2.9612,-2.929,-2.9019,-2.8681,-2.8399,-2.8293,-2.8751,-2.8554,-2.8526,-2.892,-2.8696,-2.8526,-2.8517,-2.796,-2.7382,-2.7025,-2.6736,-2.6199,-2.5455,-2.5044,-2.483,-2.483,-2.483,-2.4984,-2.5409,-2.5434,-2.5434,-2.5378,-2.5737,-2.5876,-2.5885,-2.5585,-2.5411,-2.5411,-2.5119,-2.4827,-2.4525,-2.4525,-2.4525,-2.9386,-2.8828,-2.8212,-2.7268,-2.6587,-2.6114,-2.5799,-2.5821,-2.573,-2.4822,-2.4325,-2.4127,-2.4504,-2.4353,0.0,-2.408,-2.3975,-2.4048,-2.4354,-2.4637,-2.5008,0.0,0.0,0.0,0.0,0.0,0.0,0.0,0.0,0.0,0.0,-2.5693,-2.5732,-2.583,-2.5917,-2.5965,-2.5927,-2.6093,-2.6114,-2.6035,-2.6847,-2.7373,-2.7738,-2.8476,-2.8674,-2.8461,-2.8834,-2.8887,-2.8717,-2.8877,-2.8887,-2.8834,-2.8834,-2.8621,-2.8291,-2.8291,-2.8291,-2.8291,-2.8291,-2.8711,-2.9238,-2.9505,-2.9944,-3.0411,-3.0519,-3.0577,-3.046,-3.0157,-3.0039,-3.0039,-2.9922,-2.9768,-2.9628,-2.9384,-2.9298,-2.9041,-2.8464,-2.851,-2.8628,-2.8535,-2.8676,-2.8788,-2.8677,-2.8576,-2.8328,-2.7891,-2.7642,-2.7262,-2.6711,-2.655,-2.6302,-2.5823,-2.5429,-2.5318,-2.5526,-2.536,-2.5369,-2.5746,-2.6011,-2.6045,-2.578,-2.5874,-2.6054,-2.6319,-2.5974,-2.5871,-2.5874,-2.5581,-2.5226,-2.4915,-2.4915,-2.49,-2.8538,-2.8106,-2.7696,-2.6605,-2.6101,-2.5642,-2.4671,-2.4883,-2.4904,-2.374,-2.3548,-2.3634,-2.3685,-2.3642,0.0,-2.357,-2.3604,-2.3771,-2.4147,-2.4359,-2.474,0.0,0.0,0.0,0.0,0.0,0.0,0.0,0.0,0.0,0.0,-2.5693,-2.5693,-2.5693,-2.5868,-2.5868,-2.5693,-2.5868,-2.5868,-2.5693,-2.6435,-2.6992,-2.7422,-2.8292,-2.8568,-2.8291,-2.8717,-2.8727,-2.8514,-2.8877,-2.8993,-2.8887,-2.8887,-2.8727,-2.8461,-2.8461,-2.8398,-2.8291,-2.8291,-2.8682,-2.9233,-2.9378,-2.9797,-3.0236,-3.0199,-3.0216,-3.0157,-2.9804,-2.9745,-2.9686,-2.9577,-2.939,-2.9325,-2.9385,-2.9271,-2.9089,-2.8596,-2.8725,-2.8794,-2.8518,-2.8651,-2.8687,-2.8328,-2.8208,-2.796,-2.7581,-2.7409,-2.7211,-2.6807,-2.6585,-2.6405,-2.6174,-2.5699,-2.5513,-2.5859,-2.5605,-2.5639,-2.6131,-2.6362,-2.6456,-2.6396,-2.6388,-2.6431,-2.6534,-2.6183,-2.599,-2.59,-2.5541,-2.5296,-2.5111,-2.5111,-2.5053,-2.7368,-2.704,-2.6852,-2.6033,-2.5797,-2.5294,-2.3354,-2.3741,-2.4078,-2.2746,-2.2953,-2.3338,-2.31,-2.2981,-2.2949,-2.3072,-2.3041,-2.3255,-2.3843,-2.3937,0.0,0.0,0.0,0.0,0.0,0.0,0.0,0.0,0.0,0.0,0.0,-2.5693,-2.5693,-2.5693,-2.5693,-2.5693,-2.5693,-2.5693,-2.5703,0.0,-2.624,-2.667,-2.71,-2.8154,-2.8528,-2.8344,-2.8867,-2.893,-2.8727,-2.93,-2.9343,-2.9026,-2.9026,-2.8877,-2.8674,-2.8674,-2.8514,-2.8237,-2.8237,-2.854,-2.8878,-2.8997,-2.9383,-2.9767,-2.9808,-2.9863,-2.9804,-2.9509,-2.945,-2.939,-2.9044,-2.8984,-2.9044,-2.9331,-2.9213,-2.8984,-2.8984,-2.8984,-2.8925,-2.8576,-2.8526,-2.8397,-2.802,-2.7702,-2.7521,-2.7461,-2.7237,-2.7073,-2.7073,-2.6765,-2.6542,-2.6542,-2.5906,-2.5645,-2.592,-2.5653,-2.5788,-2.6457,-2.6483,-2.6705,-2.7056,-2.7073,-2.6943,-2.664,-2.6258,-2.5961,-2.561,-2.5234,-2.5111,-2.5111,-2.5111,-2.5111,-2.7476,-2.7,-2.6418,-2.5344,-2.4729,-2.3956,-2.2028,-2.2518,-2.3032,-2.1778,-2.1625,-2.1788,-2.1968,-2.2208,-2.252,-2.2994,-2.308,-2.3349,-2.4187,-2.4046,0.0,0.0,0.0,0.0,0.0,0.0,0.0,0.0,0.0,0.0,-2.5382,-2.5586,-2.5693,-2.5693,-2.5693,-2.5693,-2.5693,-2.5693,-2.5859,0.0,-2.668,-2.7109,-2.7581,-2.7819,-2.8147,-2.8621,-2.8727,-2.8727,-2.8727,-2.8834,-2.8727,-2.8504,-2.8727,-2.8621,-2.8408,-2.8408,-2.8237,-2.796,-2.796,-2.8288,-2.8773,-2.8756,-2.9288,-2.9808,-2.9658,-2.9568,-2.9509,-2.9213,-2.9103,-2.9044,-2.8696,-2.8806,-2.8925,-2.8746,-2.8865,-2.8984,-2.8984,-2.8984,-2.8925,-2.8576,-2.8526,-2.8337,-2.7711,-2.7581,-2.7401,-2.7246,-2.7133,-2.7073,-2.7073,-2.7004,-2.6944,-2.6944,-2.6542,-2.6304,-2.643,-2.6074,-2.6066,-2.6548,-2.6574,-2.6737,-2.7073,-2.7073,-2.6943,-2.664,-2.6258,-2.5961,-2.561,-2.5234,-2.5111,-2.5111,-2.5111,-2.5111,-2.7476,-2.6911,-2.6322,-2.4992,-2.3749,-2.2672,-2.1825,-2.1435,-2.1188,-2.0815,-2.0996,-2.1103,-2.0868,-2.1287,-2.1869,-2.23,-2.262,-2.3145,-2.3829,-2.3924,0.0,0.0,0.0,0.0,0.0,0.0,0.0,0.0,0.0,-2.503,-2.5284,-2.5538,-2.5693,-2.5693,-2.5693,-2.5693,-2.5693,-2.5693,-2.5801,-2.6084,-2.6514,-2.7051,-2.7728,-2.7881,-2.8245,-2.8684,-2.8684,-2.8684,-2.8684,-2.8684,-2.8621,-2.8514,-2.8771,-2.8664,-2.8291,-2.8441,-2.8121,-2.7638,-2.7638,-2.8026,-2.8446,-2.8446,-2.8894,-2.945,-2.9272,-2.9272,-2.9213,-2.8865,-2.8746,-2.8687,-2.8328,-2.8507,-2.8696,-2.8328,-2.8627,-2.8984,-2.8984,-2.8984,-2.8865,-2.8388,-2.8268,-2.8089,-2.7418,-2.7297,-2.7237,-2.7133,-2.7073,-2.7073,-2.7073,-2.7073,-2.7073,-2.7073,-2.6764,-2.6601,-2.6805,-2.6342,-2.6188,-2.6562,-2.6449,-2.6449,-2.6631,-2.6631,-2.6571,-2.638,-2.6022,-2.5725,-2.5357,-2.5173,-2.5111,-2.5111,-2.5111,-2.5111,-2.7645,-2.6847,-2.6019,-2.4589,-2.3049,-2.1847,-2.1782,-2.0669,-1.9667,-1.994,-2.047,-2.0658,-1.9928,-2.0457,-2.1169,-2.1536,-2.2095,-2.274,-2.3432,-2.3738,0.0,0.0,0.0,0.0,0.0,0.0,0.0,0.0,0.0,-2.503,-2.5284,-2.5538,-2.5693,-2.5693,-2.5693,-2.5693,-2.5693,-2.5693,-2.5723,-2.581,-2.6367,-2.7072,-2.7898,-2.8188,-2.8461,-2.8684,-2.8684,-2.8684,-2.8684,-2.8727,-2.8727,-2.8674,-2.892,-2.8708,-2.8237,-2.8432,-2.8004,-2.7314,-2.7314,-2.7696,-2.8106,-2.8106,-2.8556,-2.8984,-2.8984,-2.8984,-2.8925,-2.8636,-2.8517,-2.8397,-2.8089,-2.8268,-2.8397,-2.808,-2.8498,-2.8984,-2.8925,-2.8984,-2.8806,-2.814,-2.79,-2.7668,-2.7194,-2.7073,-2.7073,-2.7073,-2.7073,-2.7073,-2.7012,-2.7012,-2.7012,-2.6952,-2.67,-2.6571,-2.683,-2.6327,-2.6136,-2.6388,-2.6144,-2.6014,-2.6075,-2.6014,-2.6014,-2.6014,-2.5725,-2.5426,-2.5111,-2.5111,-2.5111,-2.5111,-2.5111,-2.5111,-2.8572,-2.6916,-2.4809,-2.3505,-2.2832,-2.2152,-2.085,-2.0743,-2.058,-1.9318,-1.9332,-1.9575,-1.9753,-2.0137,-2.0693,-2.1562,-2.1985,-2.2497,-2.3378,0.0,0.0,0.0,0.0,0.0,0.0,0.0,0.0,0.0,-2.4735,-2.503,-2.5284,-2.5538,-2.5693,-2.5693,-2.5693,-2.5693,-2.5693,-2.5693,-2.5879,-2.6309,-2.7119,-2.7901,-2.8542,-2.8378,-2.8461,-2.8684,-2.8684,-2.8684,-2.8737,-2.893,-2.8761,-2.8398,-2.8644,-2.8432,-2.7906,-2.7691,-2.7368,-2.7043,-2.7043,-2.7419,-2.7879,-2.7879,-2.8373,-2.8984,-2.8984,-2.8984,-2.8984,-2.8925,-2.8696,-2.8397,-2.8089,-2.8268,-2.8397,-2.808,-2.8498,-2.8925,-2.8636,-2.8806,-2.8806,-2.814,-2.7608,-2.7194,-2.7133,-2.7073,-2.7073,-2.7073,-2.7073,-2.7012,-2.67,-2.67,-2.6571,-2.6258,-2.6197,-2.6083,-2.5786,-2.5733,-2.5664,-2.5725,-2.5664,-2.5786,-2.6075,-2.5847,-2.5672,-2.5672,-2.561,-2.5426,-2.5111,-2.5111,-2.5111,-2.5111,-2.5111,-2.5111,-2.8259,-2.6613,-2.504,-2.3549,-2.2757,-2.2057,-2.1046,-2.0489,-1.9942,-1.9253,-1.909,-1.9122,-1.9246,-1.9839,-2.0485,-2.1076,-2.1685,-2.234,-2.2886,0.0,0.0,0.0,0.0,0.0,0.0,0.0,0.0,0.0,-2.4735,-2.503,-2.5284,-2.5538,-2.5693,-2.5693,-2.5693,-2.5693,-2.5693,-2.5693,-2.6025,-2.6738,-2.7119,-2.7708,-2.8461,-2.8344,-2.8504,-2.893,-2.8621,-2.8568,-2.8727,-2.8834,-2.8664,-2.8344,-2.8591,-2.8271,-2.7584,-2.7431,-2.7171,-2.6828,-2.704,-2.7391,-2.7858,-2.804,-2.8507,-2.8984,-2.8984,-2.8984,-2.8984,-2.8755,-2.8457,-2.814,-2.7831,-2.796,-2.8148,-2.7771,-2.8379,-2.8865,-2.8328,-2.8507,-2.8507,-2.7831,-2.7358,-2.7073,-2.7073,-2.7073,-2.7073,-2.7073,-2.7073,-2.6952,-2.6631,-2.6571,-2.6449,-2.6136,-2.6075,-2.6144,-2.6153,-2.5961,-2.5961,-2.6153,-2.5794,-2.5672,-2.5778,-2.548,-2.5296,-2.5296,-2.5296,-2.5234,-2.5111,-2.5111,-2.5111,-2.5111,-2.5111,-2.5111,-2.8274,-2.6695,-2.569,-2.4199,-2.3052,-2.2119,-2.1467,-2.0373,-1.9529,-1.9332,-1.9148,-1.9055,-1.9055,-1.9635,-2.027,-2.0551,-2.1303,-2.2002,-2.24,0.0,0.0,0.0,0.0,0.0,0.0,0.0,0.0,0.0,-2.4735,-2.503,-2.5284,-2.5538,-2.5693,-2.5693,-2.5693,-2.5693,-2.5693,-2.5693,-2.6064,-2.6855,-2.6963,-2.7454,-2.8231,-2.8295,-2.8504,-2.8867,-2.8398,-2.8344,-2.8568,-2.8514,-2.8398,-2.8237,-2.8325,-2.795,-2.7269,-2.7215,-2.6954,-2.6646,-2.704,-2.7435,-2.7895,-2.826,-2.8663,-2.8984,-2.8984,-2.8984,-2.8925,-2.8696,-2.8388,-2.808,-2.7831,-2.7951,-2.802,-2.7711,-2.8391,-2.8984,-2.8286,-2.8208,-2.808,-2.7581,-2.7297,-2.7073,-2.7073,-2.7073,-2.7073,-2.7073,-2.7073,-2.6952,-2.6631,-2.651,-2.6388,-2.6136,-2.6014,-2.6083,-2.6449,-2.6258,-2.6197,-2.6336,-2.5847,-2.5549,-2.5488,-2.5234,-2.5111,-2.5111,-2.5111,-2.5111,-2.5111,-2.5111,-2.5111,-2.5111,-2.5111,-2.5111,-2.9234,-2.7629,-2.6573,-2.5481,-2.3988,-2.2585,-2.1741,-2.0902,-2.0111,-1.9502,-1.9372,-1.9366,-1.9366,-1.9649,-1.9931,-2.027,-2.0852,-2.1432,-2.2059,0.0,0.0,0.0,0.0,0.0,0.0,0.0,0.0,0.0,-2.4735,-2.503,-2.5284,-2.5538,-2.5693,-2.5693,-2.5693,-2.5693,-2.5693,-2.5693,-2.5967,-2.6426,-2.6826,-2.74,-2.8103,-2.8255,-2.8291,-2.8344,-2.8014,-2.8067,-2.8291,-2.8077,-2.7906,-2.7906,-2.7593,-2.726,-2.6989,-2.6745,-2.6646,-2.6646,-2.704,-2.7435,-2.7895,-2.826,-2.8663,-2.8984,-2.8984,-2.8984,-2.8984,-2.8984,-2.8755,-2.8457,-2.8457,-2.8457,-2.8397,-2.802,-2.8778,-2.9382,-2.8658,-2.802,-2.7521,-2.7521,-2.7297,-2.7073,-2.7073,-2.7073,-2.7073,-2.7073,-2.7073,-2.6952,-2.6631,-2.6319,-2.6136,-2.6075,-2.5847,-2.5786,-2.6075,-2.6136,-2.5961,-2.5672,-2.561,-2.5488,-2.5173,-2.5111,-2.5111,-2.5111,-2.5111,-2.5111,-2.5111,-2.5111,-2.5111,-2.5111,-2.5111,-2.5111,-3.0468,-2.9179,-2.8139,-2.612,-2.483,-2.3617,-2.2196,-2.1175,-2.0289,-1.9514,-1.9335,-1.93,-1.9135,-1.9456,-1.9815,-1.9989,-2.0795,-2.1546,-2.1767,0.0,0.0,0.0,0.0,0.0,0.0,0.0,0.0,0.0,0.0,-2.503,-2.5284,-2.5538,-2.5693,-2.5693,-2.5693,-2.5693,-2.5693,-2.5693,-2.5957,-2.6396,-2.6816,-2.7297,-2.7823,-2.7989,-2.8014,-2.8014,-2.753,-2.7476,-2.7755,-2.7853,-2.7745,-2.7593,-2.7431,-2.726,-2.6989,-2.6691,-2.6591,-2.6683,-2.7334,-2.7702,-2.7932,-2.8553,-2.8865,-2.8984,-2.8984,-2.8984,-2.8984,-2.8984,-2.8746,-2.8526,-2.8526,-2.8706,-2.8898,-2.9079,-2.9065,-2.8951,-2.8703,-2.8412,-2.8226,-2.7961,-2.7846,-2.7706,-2.7458,-2.7415,-2.7338,-2.7107,-2.7073,-2.6952,-2.6631,-2.651,-2.6319,-2.6136,-2.6014,-2.6113,-2.6722,-2.6522,-2.6589,-2.694,-2.6278,-2.5876,-2.5732,-2.5346,-2.5111,-2.5111,-2.5111,-2.5111,-2.5111,-2.5111,-2.5111,-2.5111,-2.5111,-2.5111,-3.2002,-3.0625,-2.9427,-2.7461,-2.6024,-2.4654,-2.3133,-2.1876,-2.0772,-2.0023,-1.9695,-1.9477,-1.9088,-1.9438,-1.9815,-1.9815,-2.0558,-2.1253,-2.1539,0.0,0.0,0.0,0.0,0.0,0.0,0.0,0.0,0.0,0.0,0.0,-2.5284,-2.5538,-2.5693,-2.5693,-2.5693,-2.5693,-2.5693,-2.5693,-2.584,-2.6172,-2.6748,-2.7117,-2.7357,-2.7709,-2.7799,-2.7584,-2.7152,-2.7152,-2.7377,-2.7431,-2.7377,-2.726,-2.7161,-2.6999,-2.6836,-2.6691,-2.6591,-2.6701,-2.749,-2.7822,-2.795,-2.8718,-2.8984,-2.8984,-2.8984,-2.8984,-2.8984,-2.8984,-2.8746,-2.8553,-2.8679,-2.883,-2.9092,-2.9601,-2.9205,-2.8815,-2.8991,-2.8818,-2.8455,-2.8257,-2.8194,-2.8109,-2.7843,-2.7801,-2.7672,-2.7304,-2.7253,-2.7149,-2.6839,-2.67,-2.6571,-2.6449,-2.6436,-2.6672,-2.7224,-2.7201,-2.7275,-2.7702,-2.6906,-2.643,-2.6291,-2.5768,-2.5405,-2.5286,-2.5286,-2.523,-2.5111,-2.5111,-2.5111,-2.5111,-2.5111,-2.5111,0.0,0.0,0.0,-2.9479,-2.756,-2.5625,-2.4578,-2.3046,-2.1695,-2.1102,-2.06,-2.0075,-1.9456,-1.9597,-1.9802,-1.9809,-2.0097,-2.0622,-2.1497,0.0,0.0,0.0,0.0,0.0,0.0,0.0,0.0,0.0,-2.4961,-2.5039,-2.5284,-2.5538,-2.5693,-2.5693,-2.5693,-2.5693,-2.5693,-2.5693,-2.5693,-2.5693,-2.6541,-2.6849,-2.6622,-2.7458,-2.7511,-2.6989,-2.6989,-2.7161,-2.7323,-2.68,-2.6736,-2.6935,-2.6691,-2.6591,-2.6591,-2.6591,-2.6591,-2.6701,-2.749,-2.7822,-2.795,-2.8718,-2.8984,-2.8984,-2.8984,-2.8984,-2.8984,-2.8984,-2.8764,-2.8634,-2.9031,-2.8942,-2.8883,-2.9632,-2.929,-2.9017,-2.9613,-2.8991,-2.8229,-2.8229,-2.8229,-2.822,-2.8212,-2.8212,-2.8075,-2.7681,-2.7621,-2.7492,-2.7141,-2.6847,-2.6787,-2.709,-2.7117,-2.7275,-2.7576,-2.798,-2.8077,-2.7769,-2.738,-2.7062,-2.6743,-2.6408,-2.5993,-2.5659,-2.5581,-2.5469,-2.5127,-2.5111,-2.5111,-2.5111,-2.5111,-2.5111,-3.4685,0.0,0.0,0.0,0.0,0.0,-2.6026,-2.444,-2.3189,-2.2512,-2.1753,-2.1179,-2.0867,-2.0603,-2.0409,-2.0458,-2.0551,-2.0924,-2.1801,0.0,0.0,0.0,0.0,0.0,0.0,0.0,0.0,0.0,-2.5168,-2.5235,-2.5284,-2.5538,-2.5693,-2.5693,-2.5693,-2.5693,-2.5693,-2.5693,-2.5586,-2.5391,-2.599,-2.6304,-2.6294,-2.6678,-2.687,-2.6989,-2.6791,-2.6745,-2.68,-2.6636,-2.6636,-2.6691,-2.6646,-2.6591,-2.6591,-2.6591,-2.6591,-2.6701,-2.749,-2.7822,-2.795,-2.8718,-2.8984,-2.8984,-2.8984,-2.8806,-2.8696,-2.8925,-2.8955,-2.9094,-2.9788,-2.9536,-2.9203,-2.9699,-2.9479,-2.9188,-2.9413,-2.921,-2.8999,-2.8999,-2.8999,-2.8922,-2.8665,-2.8614,-2.8485,-2.8092,-2.8032,-2.7895,-2.7509,-2.7644,-2.7704,-2.7484,-2.7747,-2.8026,-2.8434,-2.8297,-2.8298,-2.8454,-2.7671,-2.7177,-2.7044,-2.648,-2.6168,-2.6073,-2.5763,-2.5525,-2.543,-2.523,-2.5111,-2.5111,-2.5111,-2.498,0.0,-3.4468,-3.3568,-3.2444,0.0,0.0,-2.7889,-2.6107,-2.4664,0.0,-2.3403,-2.2741,-2.2272,-2.2089,-2.1999,-2.1945,-2.1672,-2.1526,-2.1857,0.0,0.0,0.0,0.0,0.0,0.0,-2.5583,-2.5592,-2.5535,-2.5584,-2.5574,-2.545,-2.5723,-2.583,-2.5693,-2.583,-2.583,-2.5693,-2.5586,-2.543,-2.5294,-2.5666,-2.5885,-2.6046,-2.6312,-2.6563,-2.6836,-2.6518,-2.6409,-2.6409,-2.6409,-2.6473,-2.6591,-2.6591,-2.6591,-2.6591,-2.6591,-2.6692,-2.6921,-2.761,-2.7941,-2.8132,-2.8773,-2.8984,-2.8984,-2.8984,-2.8865,-2.8696,-2.8746,-2.8853,-2.9066,-2.9688,-2.957,-2.9293,-2.9509,-2.943,-2.9307,-2.9307,-2.9307,-2.9307,-2.9307,-2.9307,-2.9248,-2.9033,-2.8999,-2.8871,-2.8494,-2.8434,-2.8297,-2.7895,-2.8049,-2.81,-2.7878,-2.8203,-2.8528,-2.8759,-2.8708,-2.8781,-2.8962,-2.8135,-2.7661,-2.7679,-2.6961,-2.6582,-2.6431,-2.6176,-2.5929,-2.5573,-2.5278,-2.5111,-2.5111,-2.5111,-2.4988,0.0,0.0,0.0,0.0,-3.2351,0.0,-3.0036,-2.8042,-2.6239,0.0,-2.5381,-2.4645,-2.3943,-2.4041,-2.4153,-2.4013,-2.3382,-2.2597,-2.1919,0.0,0.0,0.0,0.0,0.0,-2.5688,-2.5928,-2.6076,-2.6182,-2.6085,-2.5963,-2.583,-2.5985,-2.6004,-2.5732,-2.5955,-2.5955,-2.5635,-2.544,-2.5284,-2.5186,-2.537,-2.5594,-2.5754,-2.6107,-2.6419,-2.6591,-2.63,-2.6127,-2.6127,-2.6127,-2.63,-2.6527,-2.6591,-2.6591,-2.6591,-2.6591,-2.6839,-2.7233,-2.7684,-2.804,-2.8462,-2.8856,-2.8984,-2.8984,-2.8984,-2.8984,-2.8884,-2.8685,-2.8764,-2.899,-2.9302,-2.9392,-2.9373,-2.9307,-2.9307,-2.9307,-2.9307,-2.9307,-2.9307,-2.9307,-2.9307,-2.9307,-2.9307,-2.9307,-2.9205,-2.8888,-2.8837,-2.87,-2.8314,-2.8289,-2.8297,-2.8263,-2.8605,-2.8837,-2.8837,-2.9128,-2.9307,-2.9307,-2.8659,-2.8329,-2.8329,-2.76,-2.705,-2.674,-2.67,-2.6335,-2.5573,-2.5318,-2.5151,-2.5111,-2.5111,-2.5111,0.0,0.0,0.0,0.0,-3.3496,0.0,-3.1884,-3.0278,-2.8846,-2.8758,-2.7855,-2.707,-2.7094,-2.6329,-2.5907,-2.645,-2.5744,-2.4617,-2.329,-2.3213,0.0,0.0,0.0,0.0,-2.5989,-2.6197,-2.6408,-2.665,-2.6471,-2.6388,-2.6586,-2.6289,-2.61,-2.6004,-2.6052,-2.5858,-2.5382,-2.5342,-2.5088,-2.4686,-2.4712,-2.5,-2.5476,-2.5558,-2.5938,-2.6591,-2.6527,-2.6354,-2.6127,-2.6127,-2.6127,-2.6236,-2.6473,-2.6591,-2.6591,-2.6591,-2.6839,-2.7233,-2.7684,-2.804,-2.8462,-2.8856,-2.8984,-2.8984,-2.8984,-2.8806,-2.8712,-2.9274,-2.9744,-3.0021,-3.0157,-2.9974,-2.9626,-2.9373,-2.9307,-2.9307,-2.9307,-2.9307,-2.9307,-2.9307,-2.9307,-2.9307,-2.9307,-2.9307,-2.929,-2.9222,-2.9205,-2.9076,-2.8708,-2.8914,-2.8982,-2.87,-2.8991,-2.9205,-2.9205,-2.9273,-2.9307,-2.9307,-2.8659,-2.8329,-2.8329,-2.76,-2.7169,-2.7097,-2.6819,-2.6335,-2.5573,-2.5501,-2.5389,-2.5111,-2.5111,-2.4988,0.0,0.0,0.0,-3.548,0.0,0.0,0.0,-3.233,-3.1122,-3.0979,-3.0411,-2.9831,-2.9466,-2.8928,-2.8523,-2.8447,-2.7612,-2.6683,-2.5881,-2.5093,0.0,0.0,0.0,0.0,-2.609,-2.6317,-2.6651,-2.6974,-2.6754,-2.6626,-2.6626,-2.6553,-2.64,-2.61,-2.6352,-2.6159,-2.5518,-2.5382,-2.503,-2.448,-2.439,-2.4623,-2.5139,-2.5332,-2.5754,-2.6289,-2.6327,-2.6245,-2.6127,-2.6127,-2.6127,-2.6127,-2.63,-2.6473,-2.6609,-2.6811,-2.7132,-2.7583,-2.7939,-2.8342,-2.8718,-2.892,-2.8984,-2.8984,-2.8984,-2.8892,-2.8931,-2.9712,-2.9978,-3.0119,-3.0522,-3.0222,-2.9822,-2.9839,-2.9578,-2.9373,-2.9495,-2.9438,-2.9307,-2.9307,-2.9307,-2.9307,-2.9307,-2.9307,-2.9307,-2.9307,-2.9307,-2.9248,-2.9068,-2.9196,-2.9248,-2.9068,-2.9205,-2.9307,-2.9307,-2.9307,-2.9307,-2.9307,-2.8659,-2.8329,-2.8329,-2.76,-2.72,-2.72,-2.7026,-2.6589,-2.589,-2.589,-2.562,-2.5111,-2.5111,-2.4988,0.0,0.0,0.0,0.0,0.0,-3.435,0.0,0.0,0.0,-3.2856,-3.2713,-3.2389,-3.1631,0.0,0.0,0.0,0.0,0.0,0.0,-2.7672,0.0,0.0,0.0,0.0,0.0,-2.6718,-2.7027,-2.7247,-2.7127,-2.6904,-2.6636,-2.6806,-2.6699,-2.6245,-2.6544,-2.64,-2.5654,-2.5323,-2.4883,-2.444,-2.4301,-2.4422,-2.4794,-2.524,-2.5635,-2.6039,-2.6118,-2.6181,-2.6127,-2.6127,-2.6127,-2.6127,-2.6181,-2.6364,-2.6628,-2.6949,-2.7417,-2.7868,-2.815,-2.8581,-2.8984,-2.8984,-2.8984,-2.8984,-2.9103,-2.9203,-2.9467,-3.0041,-3.0157,-3.0209,-3.0789,-3.0473,-3.0083,-3.0369,-2.9905,-2.9504,-2.9748,-2.9561,-2.9307,-2.9307,-2.9307,-2.9307,-2.9307,-2.9307,-2.9307,-2.9307,-2.9307,-2.9307,-2.9307,-2.9307,-2.9307,-2.9307,-2.9307,-2.9307,-2.9307,-2.9307,-2.9307,-2.9307,-2.8659,-2.8329,-2.8329,-2.76,-2.72,-2.72,-2.7134,-2.6825,-2.6311,-2.6247,-2.5787,-2.5111,-2.5111,-2.5081,0.0,0.0,0.0,0.0,-3.4669,0.0,-3.5901,0.0,-3.4589,-3.4451,0.0,-3.4086,-3.3931,0.0,0.0,0.0,0.0,0.0,-3.1476,-3.1274,-3.017,0.0,0.0,0.0,0.0,-2.7755,-2.7946,-2.7571,-2.7658,-2.7623,-2.7377,-2.7087,-2.6853,-2.6794,-2.64,-2.5907,-2.5333,-2.4833,-2.4489,-2.4251,-2.4202,-2.4422,-2.4794,-2.524,-2.5635,-2.6039,-2.6408,-2.6354,-2.6127,-2.6127,-2.6127,-2.6127,-2.6418,-2.6582,-2.6591,-2.6637,-2.7132,-2.7831,-2.7877,-2.8342,-2.8984,-2.8984,-2.8984,-2.9044,-2.9331,-2.9758,-3.0078,-3.0185,-3.0673,-3.1194,-3.0926,-3.0815,-3.0685,-3.0434,-3.0026,-2.9748,-2.9813,-2.9561,-2.9307,-2.9307,-2.9307,-2.9307,-2.9307,-2.9307,-2.9307,-2.9307,-2.9307,-2.9307,-2.9307,-2.9307,-2.9307,-2.9307,-2.9307,-2.9307,-2.9307,-2.9307,-2.9307,-2.9307,-2.8659,-2.8329,-2.8329,-2.76,-2.72,-2.72,-2.6934,-2.6737,-2.6613,-2.627,-2.576,-2.5111,-2.5111,-2.5092,0.0,0.0,0.0,0.0,0.0,0.0,-3.6466,0.0,-3.6084,0.0,0.0,0.0,0.0,0.0,0.0,0.0,-3.388,0.0,0.0,0.0,-3.1709,0.0,0.0,0.0,0.0,0.0,0.0,0.0,0.0,-2.7945,-2.7702,-2.7316,-2.7081,-2.69,-2.6699,-2.6304,-2.5761,-2.5226,-2.4784,-2.439,-2.4251,-2.4463,-2.5029,-2.5291,-2.5687,-2.6252,-2.6516,-2.6527,-2.6409,-2.6409,-2.6409,-2.6418,-2.6527,-2.6591,-2.6619,-2.6848,-2.7288,-2.7858,-2.804,-2.8507,-2.8984,-2.8984,-2.8984,-2.908,-2.943,-2.9858,-3.025,-3.0479,-3.0947,-3.1377,-3.1249,-3.1064,-3.0935,-3.0935,-3.0546,-3.0222,-3.0417,-3.0018,-2.9561,-2.9561,-2.9438,-2.9307,-2.9307,-2.9307,-2.9307,-2.9307,-2.9307,-2.9307,-2.9307,-2.9307,-2.9307,-2.9307,-2.9307,-2.9307,-2.9307,-2.9307,-2.9307,-2.9307,-2.8659,-2.813,-2.7666,-2.7334,-2.72,-2.72,-2.7067,-2.6893,-2.6676,-2.6537,-2.6205,-2.5707,-2.5707,-2.5605,-3.5781,0.0,0.0,0.0,0.0,0.0,0.0,0.0,0.0,0.0,0.0,0.0,0.0,0.0,0.0,0.0,0.0,-3.4442,0.0,-3.4145,0.0,0.0,0.0,0.0,0.0,0.0,0.0,0.0,0.0,0.0,-2.7711,-2.7469,-2.7262,-2.7034,-2.6794,-2.6496,-2.61,-2.5421,-2.4932,-2.4587,-2.444,-2.4712,-2.5324,-2.5531,-2.5949,-2.6527,-2.6669,-2.6691,-2.6691,-2.6646,-2.6591,-2.6591,-2.6591,-2.6591,-2.6619,-2.6912,-2.7334,-2.7868,-2.8113,-2.8553,-2.9044,-2.9103,-2.9177,-2.9237,-2.9471,-2.9917,-3.0396,-3.0571,-3.0992,-3.1377,-3.1377,-3.1193,-3.1129,-3.1313,-3.0944,-3.0629,-3.0879,-3.0417,-2.9952,-2.9952,-2.9691,-2.9438,-2.9438,-2.9373,-2.9307,-2.9307,-2.9307,-2.9307,-2.9307,-2.9307,-2.9307,-2.9307,-2.9307,-2.9307,-2.9307,-2.9307,-2.9242,-2.9185,-2.8593,-2.7998,-2.7326,-2.7267,-2.72,-2.72,-2.7134,-2.7007,-2.6819,-2.6753,-2.6619,-2.6495,-2.6175,-2.5886,0.0,0.0,0.0,-3.5547,0.0,0.0,0.0,0.0,-3.6542,0.0,0.0,0.0,0.0,0.0,0.0,0.0,0.0,0.0,0.0,0.0,0.0,0.0,0.0,0.0,0.0,0.0,0.0,0.0,0.0,0.0,-2.7392,-2.751,-2.7499,-2.7309,-2.6534,-2.61,-2.61,-2.5069,-2.4637,-2.4883,-2.4883,-2.5109,-2.5576,-2.5983,-2.6409,-2.6792,-2.6929,-2.6989,-2.6989,-2.6691,-2.6591,-2.6591,-2.6591,-2.6591,-2.6591,-2.66,-2.7095,-2.7822,-2.784,-2.8315,-2.9044,-2.939,-2.9531,-2.954,-2.9521,-3.0124,-3.069,-3.0323,-3.0781,-3.1377,-3.1377,-3.1377,-3.1377,-3.1377,-3.1129,-3.0879,-3.0879,-3.0629,-3.0378,-3.0378,-3.0026,-2.9813,-2.9813,-2.9495,-2.9307,-2.9307,-2.9307,-2.9307,-2.9307,-2.9307,-2.9307,-2.9307,-2.9307,-2.9307,-2.9307,-2.9307,-2.9185,-2.8807,-2.8469,-2.8122,-2.7708,-2.7392,-2.72,-2.72,-2.6867,-2.6859,-2.7185,-2.6843,-2.6843,-2.7153,-2.6088,-2.5631,0.0,0.0,-3.4702,-3.6156,0.0,0.0,0.0,0.0,0.0,0.0,0.0,0.0,0.0,0.0,0.0,0.0,0.0,0.0,0.0,0.0,0.0,0.0,0.0,0.0,0.0,0.0,0.0,0.0,0.0,0.0,0.0,-2.7978,-2.7762,-2.7489,-2.6907,-2.6524,-2.6352,-2.547,-2.5079,-2.5137,-2.4981,-2.54,-2.6289,-2.6218,-2.6707,-2.7544,-2.7365,-2.7152,-2.6989,-2.689,-2.6736,-2.6591,-2.6591,-2.6591,-2.6619,-2.6885,-2.7372,-2.7904,-2.8388,-2.8746,-2.9044,-2.9153,-2.9361,-2.9659,-2.9867,-3.0383,-3.0818,-3.0947,-3.1176,-3.1377,-3.1377,-3.1377,-3.1377,-3.1377,-3.1313,-3.1249,-3.1249,-3.0935,-3.075,-3.075,-3.0426,-3.023,-3.023,-2.9896,-2.9561,-2.9307,-2.9307,-2.9307,-2.9307,-2.9307,-2.9307,-2.9307,-2.9307,-2.9307,-2.9307,-2.9307,-2.9185,-2.8807,-2.8469,-2.8122,-2.7708,-2.7392,-2.72,-2.72,-2.7067,-2.7067,-2.72,-2.7067,-2.7,-2.6859,-2.6234,-2.5922,-3.5531,-3.5054,0.0,-3.6226,-3.6013,0.0,-3.7029,0.0,0.0,0.0,0.0,0.0,0.0,0.0,0.0,0.0,0.0,0.0,0.0,-3.649,0.0,0.0,0.0,0.0,0.0,0.0,0.0,0.0,0.0,0.0,0.0,0.0,-2.7998,-2.7773,-2.7194,-2.6812,-2.663,-2.5771,-2.5342,-2.544,-2.5284,-2.5726,-2.6746,-2.6541,-2.7054,-2.8014,-2.7691,-2.7476,-2.7314,-2.7098,-2.689,-2.6736,-2.6636,-2.6674,-2.683,-2.7077,-2.7526,-2.8086,-2.8746,-2.8984,-2.8984,-2.8984,-2.9351,-2.9819,-2.9938,-3.0451,-3.102,-3.1139,-3.1267,-3.1377,-3.1377,-3.1377,-3.1377,-3.1377,-3.1377,-3.1377,-3.1249,-3.1129,-3.1064,-3.0944,-3.075,-3.0564,-3.0564,-3.0148,-2.9748,-2.9495,-2.9373,-2.9307,-2.9307,-2.9307,-2.9307,-2.9307,-2.9307,-2.9307,-2.9307,-2.9307,-2.9185,-2.8996,-2.8667,-2.8329,-2.7915,-2.7592,-2.7334,-2.72,-2.72,-2.72,-2.72,-2.72,-2.7,-2.6658,-2.6272,-2.6011]},{"header":{"parameterUnit":"m.s-1","parameterCategory":1,"la1":30.6,"la2":29.2853,"lo1":-89.7004,"lo2":-87.6739,"dy":0.0162,"dx":0.0183,"nx":112,"ny":82,"refTime":"2023-04-19T12:00:00:Z","depth":0,"parameterNumber":3,"parameterNumberName":"V-component_of_WINDS"},"data":[0.0,0.0,0.0,0.0,0.0,0.0,0.0,0.0,0.0,0.0,0.0,0.0,0.0,0.0,0.0,0.0,0.0,0.0,0.0,0.0,0.0,0.0,0.0,0.0,0.0,0.0,0.0,0.0,0.0,0.0,0.0,0.0,0.0,0.0,0.0,0.0,0.0,0.0,0.0,0.0,0.0,0.0,0.0,0.0,0.0,0.0,0.0,0.0,0.0,0.0,0.0,0.0,0.0,0.0,0.0,0.0,0.0,0.0,0.0,0.0,0.0,0.0,0.0,0.0,0.0,0.0,0.0,0.0,0.0,0.0,0.0,0.0,0.0,0.0,0.0,0.0,0.0,0.0,0.0,0.0,0.0,0.0,0.0,0.0,0.0,0.0,0.0,0.0,0.0,0.0,1.6289,1.5804,1.5464,1.4944,1.4253,1.493,1.5216,1.4838,0.0,0.0,0.0,0.0,0.0,0.0,0.0,0.0,0.0,0.0,0.0,0.0,0.0,0.0,0.0,0.0,0.0,0.0,0.0,0.0,0.0,0.0,0.0,0.0,0.0,0.0,0.0,0.0,0.0,0.0,0.0,0.0,0.0,0.0,0.0,0.0,0.0,0.0,0.0,0.0,0.0,0.0,0.0,0.0,0.0,0.0,0.0,0.0,0.0,0.0,0.0,0.0,0.0,0.0,0.0,0.0,0.0,0.0,0.0,0.0,0.0,0.0,0.0,0.0,0.0,0.0,0.0,0.0,0.0,0.0,0.0,0.0,0.0,0.0,0.0,0.0,0.0,0.0,0.0,0.0,0.0,0.0,0.0,0.0,0.0,0.0,0.0,0.0,0.0,0.0,0.0,0.0,0.0,0.0,0.0,0.0,0.0,0.0,0.0,0.0,0.0,0.0,0.0,0.0,1.6877,1.6774,1.6554,1.6287,1.5972,1.6733,1.638,1.449,0.0,0.0,0.0,0.0,0.0,0.0,0.0,0.0,0.0,0.0,0.0,0.0,0.0,0.0,0.0,0.0,0.0,0.0,0.0,0.0,0.0,0.0,0.0,0.0,0.0,0.0,0.0,0.0,0.0,0.0,0.0,0.0,0.0,0.0,0.0,0.0,0.0,0.0,0.0,0.0,0.0,0.0,0.0,0.0,0.0,0.0,0.0,0.0,0.0,0.0,0.0,0.0,0.0,0.0,0.0,0.0,0.0,0.0,0.0,0.0,0.0,0.0,0.0,0.0,0.0,0.0,0.0,0.0,0.0,0.0,0.0,0.0,0.0,0.0,0.0,0.0,0.0,0.0,0.0,0.0,0.0,0.0,0.0,0.0,0.0,0.0,0.0,0.0,0.0,0.0,0.0,0.0,0.0,0.0,0.0,0.0,0.0,0.0,0.0,0.0,0.0,0.0,0.0,1.8287,1.8044,1.7997,1.763,1.7206,1.6631,1.7445,1.7456,1.6041,1.6255,0.0,0.0,0.0,0.0,0.0,0.0,0.0,0.0,0.0,0.0,0.0,0.0,0.0,0.0,0.0,0.0,0.0,0.0,0.0,0.0,0.0,0.0,0.0,0.0,0.0,0.0,0.0,0.0,0.0,0.0,0.0,0.0,0.0,0.0,0.0,0.0,0.0,0.0,0.0,0.0,0.0,0.0,0.0,0.0,0.0,0.0,0.0,0.0,0.0,0.0,0.0,0.0,0.0,0.0,0.0,0.0,0.0,0.0,0.0,0.0,0.0,0.0,0.0,0.0,0.0,0.0,0.0,0.0,0.0,0.0,0.0,0.0,0.0,0.0,0.0,0.0,0.0,0.0,0.0,0.0,0.0,0.0,0.0,0.0,0.0,0.0,0.0,0.0,0.0,0.0,0.0,0.0,0.0,0.0,0.0,0.0,0.0,0.0,0.0,0.0,0.0,0.0,1.946,1.9246,1.9207,1.879,1.8182,1.7443,1.8131,1.8195,1.7136,1.7588,0.0,0.0,0.0,0.0,0.0,0.0,0.0,0.0,0.0,0.0,0.0,0.0,0.0,0.0,0.0,0.0,0.0,0.0,0.0,0.0,0.0,0.0,0.0,0.0,0.0,0.0,0.0,0.0,0.0,0.0,0.0,0.0,0.0,0.0,0.0,0.0,0.0,0.0,0.0,0.0,0.0,0.0,0.0,0.0,0.0,0.0,0.0,0.0,0.0,0.0,0.0,0.0,0.0,0.0,0.0,0.0,0.0,0.0,0.0,0.0,0.0,0.0,0.0,0.0,0.0,0.0,0.0,0.0,0.0,0.0,0.0,0.0,0.0,0.0,0.0,0.0,0.0,0.0,0.0,0.0,0.0,0.0,0.0,0.0,0.0,0.0,0.0,0.0,0.0,0.0,0.0,0.0,0.0,0.0,0.0,0.0,0.0,0.0,0.0,0.0,0.0,0.0,2.0273,2.0153,2.0274,2.01,1.9717,1.919,1.919,1.8451,1.6583,1.7448,0.0,0.0,0.0,0.0,0.0,0.0,0.0,0.0,0.0,0.0,0.0,0.0,0.0,0.0,0.0,0.0,0.0,0.0,0.0,0.0,0.0,0.0,0.0,0.0,0.0,0.0,0.0,0.0,0.0,0.0,0.0,0.0,0.0,0.0,0.0,0.0,0.0,0.0,0.0,0.0,0.0,0.0,0.0,0.0,0.0,0.0,0.0,0.0,0.0,0.0,0.0,0.0,0.0,0.0,0.0,0.0,0.0,0.0,0.0,0.0,0.0,0.0,0.0,0.0,0.0,0.0,0.0,0.0,0.0,0.0,0.0,0.0,0.0,0.0,0.0,0.0,0.0,0.0,0.0,0.0,0.0,0.0,0.0,0.0,0.0,0.0,0.0,0.0,0.0,0.0,0.0,0.0,0.0,0.0,0.0,0.0,0.0,0.0,0.0,0.0,0.0,0.0,2.1778,2.1804,0.0,2.1178,2.0652,2.0086,2.0303,1.9387,1.6976,0.0,0.0,0.0,0.0,0.0,0.0,0.0,0.0,0.0,0.0,0.0,0.0,0.0,0.0,0.0,0.0,0.0,0.0,0.0,0.0,0.0,0.0,0.0,0.0,0.0,0.0,0.0,0.0,0.0,0.0,0.0,0.0,0.0,0.0,0.0,0.0,0.0,0.0,0.0,0.0,0.0,0.0,0.0,0.0,0.0,0.0,0.0,0.0,0.0,0.0,0.0,0.0,0.0,0.0,0.0,0.0,0.0,0.0,0.0,0.0,0.0,0.0,0.0,0.0,0.0,0.0,0.0,0.0,0.0,0.0,0.0,0.0,0.0,0.0,0.0,0.0,0.0,0.0,0.0,0.0,0.0,0.0,0.0,0.0,0.0,0.0,0.0,0.0,0.0,0.0,0.0,0.0,0.0,0.0,0.0,0.0,0.0,0.0,0.0,0.0,0.0,0.0,2.3047,2.3121,2.3109,0.0,2.2347,2.1745,2.1191,2.1228,2.0305,1.7974,0.0,0.0,0.0,0.0,0.0,0.0,0.0,0.0,0.0,0.0,0.0,0.0,0.0,0.0,0.0,0.0,0.0,0.0,0.0,0.0,0.0,0.0,0.0,0.0,0.0,0.0,0.0,0.0,0.0,0.0,0.0,0.0,0.0,0.0,0.0,0.0,0.0,0.0,0.0,0.0,0.0,0.0,0.0,0.0,0.0,0.0,0.0,0.0,0.0,0.0,0.0,0.0,0.0,0.0,0.0,0.0,0.0,0.0,0.0,0.0,0.0,0.0,0.0,0.0,0.0,0.0,0.0,0.0,0.0,0.0,0.0,0.0,0.0,0.0,0.0,0.0,0.0,0.0,0.0,0.0,0.0,0.0,0.0,0.0,0.0,0.0,0.0,0.0,0.0,0.0,0.0,0.0,0.0,0.0,0.0,0.0,0.0,0.0,0.0,0.0,0.0,0.0,2.4167,2.4083,2.3945,2.3859,2.3568,2.3188,2.2584,2.21,2.1131,0.0,0.0,0.0,0.0,0.0,0.0,0.0,0.0,0.0,0.0,0.0,0.0,0.0,0.0,0.0,0.0,0.0,0.0,0.0,0.0,0.0,0.0,0.0,0.0,0.0,0.0,0.0,0.0,0.0,0.0,0.0,0.0,0.0,0.0,0.0,0.0,0.0,0.0,0.0,0.0,0.0,0.0,0.0,0.0,0.0,0.0,0.0,0.0,0.0,0.0,0.0,0.0,0.0,0.0,0.0,0.0,0.0,0.0,0.0,0.0,0.0,0.0,0.0,0.0,0.0,0.0,0.0,0.0,0.0,0.0,0.0,0.0,0.0,0.0,0.0,0.0,0.0,0.0,0.0,0.0,0.0,0.0,0.0,0.0,0.0,0.0,0.0,0.0,0.0,0.0,0.0,0.0,0.0,0.0,0.0,0.0,0.0,0.0,0.0,0.0,0.0,0.0,0.0,2.5086,2.5171,2.5221,2.5131,2.49,2.4478,2.3777,2.3783,2.3272,2.1899,0.0,0.0,0.0,0.0,0.0,0.0,0.0,0.0,0.0,0.0,0.0,0.0,0.0,0.0,0.0,0.0,0.0,0.0,0.0,0.0,0.0,0.0,0.0,0.0,0.0,0.0,0.0,0.0,0.0,0.0,0.0,0.0,0.0,0.0,0.0,0.0,0.0,0.0,0.0,0.0,0.0,0.0,0.0,0.0,0.0,0.0,0.0,0.0,0.0,0.0,0.0,0.0,0.0,0.0,0.0,0.0,0.0,0.0,0.0,0.0,0.0,0.0,0.0,0.0,0.0,0.0,0.0,0.0,0.0,0.0,0.0,0.0,0.0,0.0,0.0,0.0,0.0,0.0,0.0,0.0,0.0,0.0,0.0,0.0,0.0,0.0,0.0,0.0,0.0,0.0,0.0,0.0,0.0,0.0,0.0,0.0,0.0,0.0,0.0,0.0,0.0,0.0,2.5712,2.6076,2.6281,2.6022,2.5858,2.5691,2.5395,2.5331,2.4824,2.3774,0.0,0.0,0.0,0.0,0.0,0.0,0.0,0.0,0.0,0.0,0.0,0.0,0.0,0.0,0.0,0.0,0.0,0.0,0.0,0.0,0.0,0.0,0.0,0.0,0.0,0.0,0.0,0.0,0.0,0.0,0.0,0.0,0.0,0.0,0.0,0.0,0.0,0.0,0.0,0.0,0.0,0.0,0.0,0.0,0.0,0.0,0.0,0.0,0.0,0.0,0.0,0.0,0.0,0.0,0.0,0.0,0.0,0.0,0.0,0.0,0.0,0.0,0.0,0.0,0.0,0.0,0.0,0.0,0.0,0.0,0.0,0.0,0.0,0.0,0.0,0.0,0.0,0.0,0.0,0.0,0.0,0.0,0.0,0.0,0.0,0.0,0.0,0.0,0.0,0.0,0.0,0.0,0.0,0.0,0.0,0.0,0.0,0.0,0.0,0.0,0.0,0.0,2.6135,2.6787,2.7099,2.6655,2.6647,2.6868,2.7233,2.678,2.6169,2.5327,0.0,0.0,0.0,0.0,0.0,0.0,0.0,0.0,0.0,0.0,0.0,0.0,0.0,0.0,0.0,0.0,0.0,0.0,0.0,0.0,0.0,0.0,0.0,0.0,0.0,0.0,0.0,0.0,0.0,0.0,0.0,0.0,0.0,0.0,0.0,0.0,0.0,0.0,0.0,0.0,0.0,0.0,0.0,0.0,0.0,0.0,0.0,0.0,0.0,0.0,0.0,0.0,0.0,0.0,0.0,0.0,0.0,0.0,0.0,0.0,3.1695,0.0,0.0,0.0,0.0,0.0,0.0,0.0,0.0,0.0,0.0,0.0,0.0,0.0,0.0,0.0,0.0,0.0,0.0,0.0,0.0,0.0,0.0,0.0,0.0,0.0,0.0,0.0,0.0,0.0,0.0,0.0,0.0,0.0,0.0,0.0,0.0,0.0,0.0,0.0,0.0,0.0,2.6981,2.7563,2.7881,2.7545,2.7962,2.8105,2.7838,2.8411,2.8629,2.8229,2.721,0.0,0.0,0.0,0.0,0.0,0.0,0.0,0.0,0.0,0.0,0.0,0.0,0.0,0.0,0.0,0.0,0.0,0.0,0.0,0.0,0.0,0.0,0.0,0.0,0.0,0.0,0.0,0.0,0.0,0.0,0.0,0.0,0.0,0.0,0.0,0.0,0.0,0.0,0.0,0.0,0.0,0.0,0.0,0.0,0.0,0.0,0.0,0.0,0.0,0.0,0.0,0.0,0.0,0.0,0.0,0.0,0.0,0.0,0.0,0.0,3.263,0.0,0.0,0.0,0.0,0.0,0.0,0.0,0.0,0.0,0.0,0.0,0.0,0.0,0.0,0.0,0.0,0.0,0.0,0.0,0.0,0.0,0.0,0.0,0.0,0.0,0.0,0.0,0.0,0.0,0.0,0.0,0.0,0.0,0.0,0.0,0.0,0.0,0.0,0.0,0.0,2.7753,2.8526,2.8988,2.8755,2.8834,2.9059,2.9397,2.9531,2.9602,2.9635,2.9147,0.0,0.0,0.0,0.0,0.0,0.0,0.0,0.0,0.0,0.0,0.0,0.0,0.0,0.0,0.0,0.0,0.0,0.0,0.0,0.0,0.0,0.0,0.0,0.0,0.0,0.0,0.0,0.0,0.0,0.0,0.0,0.0,0.0,0.0,0.0,0.0,0.0,0.0,0.0,0.0,0.0,0.0,0.0,0.0,0.0,0.0,0.0,0.0,0.0,0.0,0.0,0.0,0.0,3.814,3.8168,3.8572,3.8531,3.8088,3.733,3.5911,3.457,3.3395,3.3305,0.0,0.0,0.0,0.0,0.0,0.0,0.0,0.0,0.0,0.0,0.0,0.0,0.0,0.0,0.0,0.0,0.0,0.0,0.0,0.0,0.0,0.0,0.0,0.0,3.4036,3.3953,0.0,0.0,0.0,0.0,0.0,0.0,0.0,0.0,0.0,0.0,0.0,0.0,2.8554,2.9509,3.0165,2.9973,2.9649,2.9901,3.0985,3.0563,3.0308,3.0517,3.087,3.0408,0.0,0.0,0.0,0.0,0.0,0.0,0.0,0.0,0.0,0.0,0.0,0.0,0.0,0.0,0.0,0.0,0.0,0.0,0.0,0.0,0.0,0.0,0.0,0.0,0.0,0.0,0.0,0.0,0.0,0.0,0.0,0.0,3.6147,3.5785,0.0,0.0,0.0,0.0,0.0,0.0,0.0,0.0,0.0,0.0,0.0,0.0,0.0,3.9627,4.033,4.0345,4.0182,3.9935,4.0383,4.0354,3.9935,3.9762,3.9599,3.9473,3.9024,0.0,3.498,3.4486,0.0,0.0,0.0,0.0,0.0,0.0,0.0,0.0,0.0,0.0,0.0,0.0,0.0,0.0,0.0,0.0,0.0,0.0,0.0,0.0,0.0,0.0,3.4582,3.4687,3.499,3.5139,0.0,3.3699,3.2698,3.2475,3.1992,0.0,0.0,0.0,0.0,0.0,0.0,0.0,2.9549,3.0254,3.0872,3.0996,3.0907,3.0994,3.1318,3.1988,3.2256,3.1871,3.1789,3.1607,3.1174,3.1437,0.0,0.0,0.0,0.0,0.0,0.0,0.0,0.0,0.0,0.0,0.0,0.0,0.0,0.0,0.0,0.0,0.0,0.0,0.0,0.0,0.0,0.0,0.0,0.0,0.0,0.0,0.0,0.0,0.0,3.6793,3.6848,3.6522,3.7316,3.7772,0.0,0.0,0.0,0.0,0.0,0.0,0.0,0.0,0.0,4.1208,4.0916,4.0996,4.1532,4.1636,4.172,4.1754,4.168,4.1641,4.1609,4.1529,4.1284,4.0908,4.08,3.9571,3.7596,3.6872,3.6377,3.6029,0.0,0.0,0.0,0.0,3.5512,3.58,3.5786,3.6006,0.0,3.5748,0.0,0.0,0.0,0.0,0.0,0.0,0.0,0.0,0.0,0.0,0.0,3.5347,3.5688,3.5975,3.5816,3.4939,3.409,0.0,3.3332,3.2897,3.2313,0.0,0.0,0.0,0.0,3.1536,3.097,3.1576,3.2101,3.2209,3.1766,3.1759,3.2355,3.241,3.242,3.2367,3.2593,3.2453,3.1861,3.2454,3.2491,0.0,0.0,0.0,0.0,0.0,0.0,0.0,0.0,0.0,0.0,0.0,0.0,0.0,0.0,0.0,0.0,0.0,0.0,0.0,0.0,0.0,0.0,0.0,0.0,0.0,0.0,0.0,0.0,3.7938,3.788,3.7577,3.8211,3.8531,0.0,0.0,0.0,0.0,0.0,0.0,4.1213,4.14,4.1607,4.178,4.2139,4.2386,4.2587,4.2743,4.2968,4.3275,4.2811,4.2762,4.301,4.297,4.2574,4.1967,4.1888,4.1095,3.9732,3.89,3.793,3.7014,3.7169,3.69,3.6443,3.676,3.676,3.6647,3.6798,3.7135,3.7448,3.7068,0.0,3.6642,3.6089,0.0,0.0,0.0,0.0,3.4901,3.5573,3.5818,3.5816,3.5816,3.6274,3.6631,3.6492,3.6015,3.5446,0.0,3.4409,3.4061,3.3457,0.0,0.0,0.0,0.0,3.2939,3.2398,3.2889,3.329,3.3339,3.2712,3.2568,3.3289,3.2891,3.2802,3.3144,3.3595,3.358,3.2957,3.3667,3.3677,3.297,0.0,0.0,0.0,0.0,0.0,0.0,0.0,0.0,0.0,0.0,0.0,0.0,0.0,0.0,0.0,0.0,0.0,0.0,0.0,0.0,0.0,0.0,0.0,0.0,0.0,0.0,0.0,0.0,0.0,3.9332,3.9664,0.0,0.0,0.0,0.0,4.1346,4.1929,4.2164,4.1708,4.2266,4.2689,4.291,4.357,4.3888,4.3888,4.3888,4.3918,4.3934,4.3918,4.3918,4.3949,4.3684,4.3205,4.2619,4.2449,4.1723,4.0566,3.977,3.8935,3.8127,3.8127,3.8098,3.8069,3.8121,3.8121,3.8084,3.8121,3.8136,3.8202,3.8323,3.7804,3.7228,3.8018,3.6649,0.0,0.0,3.5703,3.4968,3.5314,3.5799,3.6164,3.6164,3.6693,3.7148,3.7148,3.6981,3.649,0.0,3.4832,3.4409,3.3853,0.0,3.4013,3.3407,3.3567,3.3748,3.3679,3.3899,3.4133,3.4298,3.3839,3.3563,3.3744,3.3959,3.4259,3.4645,3.4901,3.5163,3.552,3.5156,3.5019,3.5224,3.5696,0.0,0.0,0.0,0.0,0.0,0.0,0.0,0.0,0.0,0.0,0.0,0.0,0.0,0.0,0.0,0.0,0.0,0.0,0.0,0.0,0.0,0.0,0.0,0.0,0.0,0.0,0.0,0.0,3.9803,4.0309,0.0,4.042,4.1212,4.1761,4.1776,4.2418,4.2728,4.2561,4.3182,4.3585,4.3623,4.4005,4.4205,4.4205,4.432,4.432,4.4205,4.4205,4.4143,4.3988,4.3895,4.3492,4.2902,4.3287,4.2712,4.1509,4.1212,4.0345,3.9177,3.9177,3.909,3.8965,3.8965,3.8965,3.8965,3.8965,3.9053,3.9139,3.8886,3.8597,3.8314,3.8167,3.7541,3.6872,3.6857,3.6532,3.6213,3.6128,3.6368,3.6662,3.6815,3.7254,3.7626,3.7537,3.7099,3.66,3.6173,3.5936,3.575,3.5579,3.5539,3.5417,3.5109,3.5222,3.5222,3.4861,3.5121,3.5267,3.5055,3.4691,3.4524,3.4706,3.471,3.4661,3.4536,3.5647,3.6097,3.5586,3.6113,3.6373,3.623,3.6375,3.6612,0.0,0.0,0.0,0.0,0.0,0.0,0.0,0.0,0.0,0.0,0.0,0.0,0.0,0.0,0.0,0.0,0.0,0.0,0.0,0.0,0.0,0.0,0.0,0.0,0.0,0.0,4.0204,4.0389,4.0876,4.1159,4.1148,4.1834,4.234,4.2541,4.3167,4.3548,4.3548,4.4037,4.4281,4.4281,4.4649,4.478,4.4603,4.4879,4.4879,4.4587,4.4587,4.4511,4.4412,4.4412,4.3968,4.3228,4.3686,4.3205,4.211,4.2169,4.1599,4.0618,4.002,3.9732,3.961,3.961,3.961,3.9595,3.9651,3.9844,4.003,3.978,3.9542,3.9312,3.9164,3.8714,3.8249,3.8083,3.7837,3.75,3.7188,3.7265,3.7431,3.745,3.7756,3.802,3.7801,3.7476,3.7169,3.6998,3.6603,3.6322,3.6459,3.6415,3.6367,3.6399,3.6399,3.6227,3.5896,3.607,3.6116,3.58,3.5561,3.5522,3.5859,3.5564,3.5439,3.5525,3.6628,3.6985,3.636,3.7172,3.7501,3.7197,3.7453,3.7782,3.8173,0.0,0.0,0.0,0.0,0.0,0.0,0.0,0.0,0.0,0.0,0.0,0.0,0.0,0.0,0.0,0.0,0.0,0.0,0.0,0.0,0.0,0.0,0.0,4.1045,4.0964,4.1003,4.128,4.1441,4.1638,4.2028,4.3002,4.3608,4.3639,4.424,4.461,4.4625,4.4799,4.4927,4.4942,4.5563,4.5685,4.5229,4.567,4.5654,4.5182,4.5182,4.5182,4.5182,4.5182,4.4607,4.3608,4.3624,4.3144,4.2383,4.2565,4.2638,4.2442,4.0751,4.0092,4.0041,4.0061,4.0061,4.0066,4.0196,4.0493,4.0867,4.107,4.0653,4.02,4.107,4.02,3.9068,3.9868,3.9491,3.8742,3.8341,3.8385,3.8424,3.8035,3.8193,3.8319,3.8001,3.8177,3.8278,3.7817,3.6778,3.6043,3.6395,3.6591,3.6831,3.7164,3.6922,0.0,3.6723,3.6739,3.6693,3.6554,3.6492,3.669,3.7162,3.6583,3.666,3.7763,3.7866,3.7908,3.7971,3.8375,3.8501,3.8306,3.8972,3.9535,3.994,0.0,0.0,0.0,0.0,0.0,0.0,0.0,0.0,0.0,0.0,0.0,0.0,0.0,0.0,0.0,0.0,0.0,0.0,0.0,0.0,0.0,4.2226,4.2155,4.1653,4.1146,4.1047,4.1602,4.1718,4.2109,4.3076,4.3427,4.3846,4.4489,4.469,4.4889,4.5017,4.5092,4.5348,4.583,4.5566,4.555,4.5921,4.555,4.5316,4.5182,4.5182,4.5182,4.5182,4.5182,4.4771,4.406,4.4557,4.4349,4.3692,4.3728,4.3454,4.292,4.2314,4.1704,4.1168,4.1278,4.1148,4.0953,4.0972,4.1189,4.139,4.1423,4.1398,4.1354,4.1576,4.1271,4.0793,4.0527,4.0112,3.9668,3.9251,3.8962,3.8834,3.8966,3.8845,3.8667,3.8567,3.8556,3.8488,3.825,3.7742,3.7337,3.7356,3.7277,3.7238,3.7328,3.7373,0.0,3.7224,3.7769,3.7865,3.709,3.7904,3.8309,3.7825,3.8271,3.8572,3.8596,3.9323,3.9567,3.9145,4.0273,4.0781,4.0603,4.0258,4.0224,0.0,0.0,0.0,0.0,0.0,0.0,0.0,0.0,0.0,0.0,0.0,0.0,0.0,0.0,0.0,0.0,0.0,0.0,0.0,0.0,0.0,0.0,4.3178,4.3169,4.2881,4.2282,4.193,4.2087,4.2559,4.32,4.3969,4.4189,4.4471,4.4971,4.5039,4.5092,4.5182,4.5294,4.5628,4.6285,4.5941,4.5962,4.6451,4.6075,4.5708,4.5442,4.5552,4.5515,4.5442,4.5442,4.5185,0.0,4.483,4.4606,4.4143,4.3934,4.3559,0.0,0.0,0.0,0.0,0.0,4.1567,4.1538,4.1538,4.1736,4.1948,4.1948,4.2029,4.2142,4.2142,4.2077,4.1949,4.1566,4.131,4.096,4.0192,3.9829,3.9586,3.9304,3.9044,3.886,3.875,3.875,3.8694,3.8403,0.0,0.0,3.802,3.7743,3.7581,3.7698,3.7743,3.7759,3.761,3.8362,3.8663,3.8013,3.9024,3.9596,3.9313,3.959,0.0,0.0,0.0,4.0687,4.0313,4.1196,0.0,0.0,0.0,4.1295,0.0,0.0,0.0,0.0,4.3476,4.391,0.0,0.0,0.0,0.0,0.0,0.0,0.0,0.0,0.0,0.0,0.0,0.0,0.0,0.0,0.0,0.0,4.411,4.4113,4.4287,4.3989,4.3494,4.2844,4.3733,4.4481,4.4662,4.498,4.522,4.522,4.522,4.5257,4.5294,0.0,0.0,0.0,0.0,4.6597,4.6877,4.6798,4.6465,4.5844,4.6024,4.6024,4.5844,4.5844,4.5771,4.5541,4.4897,4.4506,4.4314,4.3882,4.3549,4.3278,4.3134,4.2337,4.1278,4.1321,4.1604,4.1963,4.1963,0.0,0.0,4.2445,4.2571,4.2696,4.2696,4.2695,4.2679,4.2679,4.2648,4.2356,4.1244,4.0847,4.0466,3.9456,3.9111,3.8969,3.8722,3.886,3.8914,3.8439,3.8511,3.8583,3.8476,3.8078,3.7876,3.8151,3.8049,3.7963,3.7963,3.8766,3.9245,3.9049,0.0,0.0,4.1084,4.0705,4.0666,4.1162,4.1376,4.1507,4.1586,4.1638,4.1655,4.1619,4.2126,4.2475,4.2679,4.374,4.4634,4.5371,4.4253,4.4658,0.0,0.0,0.0,0.0,0.0,0.0,0.0,0.0,0.0,0.0,0.0,0.0,0.0,0.0,0.0,4.4685,4.4818,4.4705,4.4486,4.5213,4.5357,4.4398,4.4338,4.459,4.503,4.5129,4.5257,4.5442,4.5442,4.5589,4.5932,4.5952,4.6378,4.7191,4.665,4.6634,4.728,4.6686,4.6335,4.6207,0.0,0.0,4.6207,4.6207,4.6171,4.612,4.5865,4.5802,4.5877,4.5659,4.5191,4.4471,4.2934,4.2304,4.2262,4.1728,4.1851,4.2286,4.2286,4.2508,4.2806,4.2806,4.3007,4.3251,4.3251,4.3251,0.0,4.3251,4.3068,4.2803,4.2527,4.1686,4.0794,4.0574,3.9863,3.9245,3.9191,3.9218,3.9175,3.8914,3.8914,3.8887,3.875,3.846,3.825,3.8209,3.8266,3.8307,3.8307,3.9434,3.9971,3.9242,4.096,4.1911,4.132,4.1802,4.2188,4.2285,4.2492,4.2845,4.3363,4.3019,4.3049,4.3634,4.3175,4.3035,4.3251,4.4158,4.5022,4.5875,4.5926,4.6438,0.0,0.0,0.0,0.0,0.0,0.0,0.0,0.0,0.0,0.0,0.0,4.3617,4.3875,0.0,4.3955,4.5056,4.497,4.4946,4.547,4.5771,4.5693,4.4941,4.5085,4.534,4.5484,4.5515,4.5515,4.5515,4.5589,4.5698,4.5771,4.6004,4.645,4.7228,4.663,4.6649,4.7405,4.6756,4.6388,4.6298,4.6388,4.6404,4.6298,4.6298,4.6298,4.6282,4.5876,4.5732,4.5754,4.5384,4.4998,4.4548,4.3574,4.3083,4.2803,4.2121,4.2109,4.2508,4.2619,4.2775,4.2899,4.2976,4.319,4.3402,4.3402,4.3449,4.3539,4.3598,4.3525,4.3323,4.2944,4.2343,4.1712,4.1247,4.0469,3.9862,3.9862,3.9564,3.9272,3.9175,3.9148,3.9094,3.8942,3.8777,3.8655,3.8516,3.8572,3.873,3.9088,4.0082,4.0704,4.0661,4.1959,4.2658,4.2239,4.2608,4.2851,4.2836,4.3037,4.3293,4.3637,4.357,4.3674,4.3974,4.3734,4.3641,4.3747,4.4184,4.4993,4.6152,4.635,4.702,0.0,0.0,0.0,0.0,0.0,0.0,0.0,4.6392,4.5268,4.5375,4.4591,4.3895,4.3936,4.3894,4.4169,4.5216,4.505,4.516,4.626,4.6035,4.5709,4.5416,4.5801,4.604,4.588,4.5807,4.5735,4.5552,4.5698,4.5735,4.5625,4.5916,4.6386,4.6984,4.6586,4.6641,4.7305,4.6888,4.6563,4.6404,4.6598,4.6563,4.6404,4.6404,4.6404,4.6372,4.5846,4.5589,4.5507,4.487,4.4581,4.4547,4.4403,4.3904,4.3182,4.2606,4.2606,4.2922,4.3095,4.3173,4.3235,4.3326,4.338,4.3432,4.3432,4.3539,4.3687,4.3868,4.3898,4.3764,4.3165,4.287,4.2546,4.1801,4.1094,4.0608,4.0636,4.0055,3.9568,3.9594,3.9452,3.9299,3.9121,3.9193,3.9161,3.8849,3.8919,3.9231,3.982,4.0656,4.1426,4.2045,4.2717,4.3174,4.3204,4.3204,4.3204,4.3204,4.3372,4.3509,4.3509,4.3793,4.3894,4.386,4.4039,4.4126,4.4155,4.4155,4.4842,4.618,4.6314,4.7139,4.5156,4.6561,4.7801,4.8672,4.8301,4.8105,0.0,4.8627,4.7457,4.7251,4.6626,4.5969,4.5389,4.5306,4.5232,4.5084,4.5539,4.5876,4.5727,4.6148,4.6555,4.6659,4.6353,4.6112,4.6076,4.588,4.5771,4.5771,4.5771,4.588,4.6024,4.6076,4.6255,4.6641,4.6596,4.67,4.6971,4.689,4.6858,4.6807,4.6858,4.6842,4.6807,4.6807,4.6807,4.6807,4.6761,4.6625,4.6421,4.585,4.5575,4.5391,4.473,4.4054,4.3492,4.3509,4.3733,4.4017,4.4048,4.4189,4.4329,4.436,4.4007,4.3598,4.3598,4.3704,4.3868,4.3898,4.3898,4.3881,4.3798,4.3149,4.2502,4.239,4.1839,4.1337,4.1522,4.1,4.0511,4.0628,4.0014,3.9475,3.9432,3.99,3.9908,3.8958,3.9362,3.9804,3.9886,4.1127,4.2029,4.2094,4.287,4.3402,4.3522,4.3522,4.3522,4.3522,4.3734,4.3839,4.3839,4.3998,4.4068,4.4068,4.4097,4.4155,4.4281,4.4281,4.4776,4.5781,4.6422,4.7353,4.6939,4.8291,4.9235,5.0274,5.0338,5.0311,5.0849,5.0038,4.9128,4.8908,4.7771,4.6671,4.618,4.5856,4.5604,4.5324,4.5397,4.5543,4.5847,4.5945,4.6148,4.6496,4.6349,4.6223,4.6223,4.5936,4.5735,4.5625,4.5735,4.5771,4.5735,4.5952,4.6187,4.6423,4.6528,4.6703,4.6876,4.6772,4.6772,4.6876,4.6772,4.6772,4.6876,4.6876,4.6876,4.6876,4.6876,4.6842,4.6756,4.6518,4.6405,4.632,4.6013,4.5531,4.4901,4.3945,4.3523,4.3529,4.4015,4.4056,4.393,4.445,4.4164,4.3598,4.3598,4.3658,4.3763,4.3868,4.3898,4.3898,4.3898,4.3606,4.3298,4.3164,4.2572,4.2054,4.2157,4.1677,4.1216,4.1172,4.0967,4.0739,4.0641,4.0807,4.0823,4.0381,4.0567,4.0986,4.1517,4.2142,4.2688,4.3089,4.3462,4.3704,4.3763,4.3763,4.3988,4.4493,4.4009,4.4035,4.4729,4.4344,4.4184,4.44,4.44,4.4429,4.4468,4.4468,4.4902,4.572,4.6024,4.6866,4.8296,4.942,5.017,5.1303,5.1684,5.1778,5.1684,5.1018,5.0304,4.9876,4.8583,4.7384,4.7012,4.6392,4.5907,4.5935,4.5563,4.5421,4.6032,4.5828,4.5824,4.6214,4.6207,4.6171,4.6171,4.5936,4.5735,4.5589,4.5698,4.5735,4.5589,4.5916,4.6132,4.6243,4.6458,4.6668,4.6807,4.6738,4.6772,4.6876,4.6738,4.6772,4.6876,4.6876,4.6876,4.6876,4.6876,4.6876,4.6911,4.6961,4.6996,4.6996,4.6996,4.6625,4.5928,4.4624,4.3913,4.3707,4.434,4.4331,4.4122,4.4558,4.434,4.3876,4.3648,4.3598,4.3628,4.3763,4.3839,4.3839,4.3839,4.3839,4.3793,4.3687,4.3273,4.2891,4.2933,4.2482,4.2022,4.1921,4.1827,4.1722,4.1622,4.1704,4.178,4.178,4.1905,4.2183,4.2646,4.2891,4.3269,4.3889,4.3927,4.3927,4.3956,4.3956,4.4298,4.5165,4.4306,4.4298,4.537,4.4656,4.4344,4.4615,4.4615,4.4615,4.4615,4.4615,4.4886,4.5399,4.5618,4.6397,4.8956,4.9769,5.035,5.1525,5.1794,5.1851,5.203,5.1594,5.0919,4.9968,4.9074,4.8392,4.8206,4.7018,4.6319,4.6934,4.6328,4.5864,4.606,4.59,4.5884,4.61,4.5936,4.5807,0.0,4.5807,4.5807,4.5771,4.5807,4.5807,4.5771,4.6004,4.6112,4.6112,4.6439,4.6582,4.6617,4.6807,4.6876,4.6876,4.6876,4.6876,4.6876,4.6876,4.6876,4.6876,4.6876,4.6876,4.6927,4.7098,4.7183,4.7183,4.7183,4.6727,4.6058,4.5826,4.562,4.5416,4.5432,4.5575,4.5616,4.4903,4.4671,4.4522,4.3813,4.3598,4.3598,4.3598,4.3598,4.3598,4.3598,4.3598,4.3658,4.3868,4.3881,4.3894,4.4006,4.3478,4.3015,4.3127,4.2473,4.1931,4.2051,4.2462,4.2748,4.2748,4.3202,4.3284,4.2618,4.3118,4.3713,4.4068,4.3969,4.3939,4.4068,4.4097,4.4415,4.5165,4.4627,4.4618,4.5358,4.4874,4.4587,4.4615,4.4615,4.4615,4.4615,4.4615,4.4615,4.4649,4.5365,4.6109,4.8487,4.9138,4.9727,5.0632,5.1345,5.1831,5.1904,5.1647,5.1268,5.0822,4.9724,4.8739,4.8461,4.72,4.6303,4.6398,4.6074,4.5807,4.588,4.6044,4.6064,4.59,4.6044,0.0,0.0,0.0,0.0,4.5807,4.5807,4.5807,4.5807,4.6004,4.6132,4.6207,4.6333,4.6528,4.6807,4.6598,4.6649,4.6876,4.6876,4.6876,4.6876,4.6876,4.6876,4.6876,4.6876,4.6876,4.6927,4.7115,4.7217,4.7217,4.7217,4.7138,4.6993,4.6808,4.6519,4.614,4.5567,4.5561,4.5748,4.55,4.5086,4.4638,4.4406,4.3992,4.3628,4.3763,4.3687,4.3628,4.3763,4.3704,4.3628,4.3687,4.3704,4.3763,4.3939,4.3768,4.3602,4.3659,4.343,4.3206,4.3115,4.3215,4.3398,4.3515,4.3744,4.3823,4.3573,4.3843,4.4294,4.4884,4.4922,4.4922,4.498,4.4963,4.5139,4.5525,4.4673,4.4606,4.5566,4.4845,4.4468,4.4615,4.4615,4.4615,4.4615,4.4615,4.4615,4.4615,4.4869,4.5365,4.7538,4.8001,4.8421,4.9571,5.048,5.1177,5.1475,5.1408,5.1237,5.0978,4.987,4.8893,4.8871,4.7489,4.6449,4.6558,4.6183,4.5932,4.5932,4.6044,4.6044,4.5807,4.6028,4.61,0.0,0.0,0.0,4.5932,4.5932,4.5932,4.5932,4.6096,4.6187,4.6223,4.6333,4.6528,4.6772,4.6615,4.6633,4.6876,4.6876,4.6876,4.6876,4.6876,4.6876,4.6876,4.6876,4.6876,4.6911,4.7183,4.7301,4.7319,4.7352,4.7454,4.7571,4.7352,4.7176,4.6864,4.6043,4.5957,4.6146,4.5881,4.5649,4.5433,4.5152,4.4572,4.4009,4.4145,4.3886,4.3628,4.3763,4.3704,4.3628,4.3687,4.3704,4.3734,4.3868,4.3898,4.3898,4.3898,4.3898,4.3881,4.3864,4.3848,4.3894,4.3969,4.4085,4.4184,4.4184,4.4196,4.4555,4.5428,4.5214,4.5134,4.5479,4.5289,4.5284,4.5686,4.4822,4.4709,4.5669,4.4874,4.4468,4.4615,4.4615,4.4615,4.4615,4.4615,4.4615,4.4615,4.4654,4.506,4.622,4.6447,4.6528,4.8275,4.9228,4.9919,5.0779,5.0897,5.0707,5.0499,4.9523,4.8843,4.9331,4.7886,4.6786,4.7281,4.667,4.6112,4.6112,4.5952,4.5844,4.5807,4.5992,4.5956,4.5589,0.0,0.0,4.6096,0.0,4.6112,4.6112,4.6259,4.6243,4.6148,4.6439,4.6582,4.6633,4.6807,4.6876,4.6876,4.6876,4.6876,4.6876,4.6876,4.6876,4.6876,4.6876,4.6876,4.6927,4.7319,4.752,4.7504,4.7654,4.7704,4.7704,4.7537,4.7588,4.7605,4.6897,4.678,4.6825,4.6096,4.6328,4.6775,4.6063,4.5334,4.4768,4.4768,4.4257,4.3698,4.3727,4.3714,4.3757,4.3889,4.3948,4.3931,4.3914,4.3898,4.3898,4.3898,4.3898,4.3998,4.4253,4.431,4.4253,4.4126,4.4224,4.4327,4.436,4.4229,4.4543,4.564,4.4951,4.4754,4.5624,4.5077,4.4976,4.5602,4.4976,4.4936,4.5618,4.4987,4.4598,4.4626,4.4598,4.4598,4.4598,4.4598,4.4598,4.4598,4.4737,4.5167,4.489,4.5005,4.5063,4.6175,4.7214,4.8225,4.9413,4.9281,4.9074,4.9645,4.924,4.8586,4.805,4.7537,4.7113,4.6866,4.6406,4.6132,4.6243,4.6333,4.6333,4.6207,4.6369,4.6353,4.6136,4.6207,0.0,0.0,4.6223,4.6112,4.6112,4.6385,4.6493,4.6474,4.6563,4.6652,4.6807,4.6876,4.6876,4.6876,4.6876,4.6876,4.6876,4.6876,4.6876,4.6876,4.6876,4.6876,4.6927,4.7319,4.752,4.7504,4.7654,4.7787,4.7902,4.7604,4.7588,4.7671,4.749,4.7539,4.7603,4.6858,4.6742,4.6858,4.6676,4.6096,4.5531,4.5637,4.546,4.5265,4.5372,4.531,4.5102,4.4616,4.4483,4.4381,4.3985,4.3763,4.3747,4.3998,4.4056,4.4068,4.4155,4.4224,4.431,4.4253,4.4412,4.4671,4.5067,4.4737,4.4992,4.638,4.63,4.6046,4.5737,4.6024,4.5838,4.4953,4.4716,4.4738,4.5009,4.4867,4.482,4.4913,4.4803,4.4765,4.4765,4.4654,4.4654,4.4765,4.4776,4.496,4.3652,4.3677,4.3817,4.4679,4.5583,4.657,4.7669,4.7792,4.7842,4.8428,4.8254,4.7922,4.7485,4.7205,4.6959,4.6647,4.6385,4.6243,4.6404,4.6528,4.6563,4.6474,4.6528,4.6528,4.6333,4.6298,4.6333,0.0,4.6385,4.6314,4.6314,4.6493,4.6563,4.6458,4.6458,4.6563,4.6772,4.6772,4.6807,4.6876,4.6876,4.6876,4.6876,4.6876,4.6876,4.6876,0.0,4.6961,4.7064,4.7369,4.7537,4.7588,4.7754,4.7886,4.7968,4.777,4.777,4.782,4.782,4.7902,4.7934,4.752,4.7388,4.7388,4.7388,4.6874,4.631,4.6356,4.6092,4.5829,4.5889,4.5844,4.5682,4.5268,4.5168,4.51,4.4809,4.4384,4.4069,4.4019,4.4097,4.4196,4.4196,4.431,4.444,4.444,4.4784,4.5302,4.5942,4.546,4.5517,4.6667,4.6786,4.6752,4.6684,4.6752,4.6295,4.5145,4.5077,4.4981,4.4709,4.4709,4.4765,4.4831,4.4765,4.4709,4.4709,4.4626,4.4626,4.4709,4.4831,4.494,4.2581,4.2566,4.278,4.3571,4.4233,4.4895,4.5868,4.6388,4.6757,4.7138,4.7158,4.7098,4.7296,4.6984,4.666,4.6598,4.6458,4.6439,4.6633,4.6668,4.6668,4.6652,4.6633,4.6563,4.6404,4.6369,4.6369,4.6369,4.6528,4.6633,4.6547,4.6582,4.6528,4.6298,4.6333,4.6423,4.6582,4.6617,4.6738,4.6876,4.6876,4.6876,4.6876,4.6876,4.6876,4.6876,0.0,0.0,4.7183,4.7403,4.7571,4.7671,4.7902,4.7968,4.7968,4.7902,4.7902,4.7902,4.7902,4.7902,4.7935,4.8001,4.8001,4.8001,4.8001,4.7554,4.704,4.704,4.6576,4.6079,4.6079,4.6079,4.6063,4.5963,4.5947,4.5914,4.5814,4.5315,4.4746,4.4297,4.4344,4.4461,4.4444,4.4536,4.4621,4.4677,4.5167,4.5793,4.6519,4.6177,4.6126,4.687,4.6853,4.7022,4.7551,4.7022,4.6329,4.5602,4.5551,4.5263,4.466,4.4643,4.4626,4.4654,4.4626,4.4643,4.4643,4.4598,4.4626,4.4654,4.4886,4.5032,4.2242,4.2049,4.2022,4.2565,4.2758,4.3231,4.464,4.4858,4.521,4.6656,4.6922,4.6877,4.6914,4.7112,4.7129,4.6679,4.6703,4.6823,4.6842,4.6996,4.703,4.6876,4.6842,4.6842,4.6823,4.6789,0.0,0.0,4.6807,4.6703,4.6369,4.6528,4.6528,4.6298,4.6458,4.6547,4.6582,4.6772,4.6892,4.6876,4.6876,4.6876,4.6876,4.6876,4.6876,4.6876,4.6876,0.0,4.6996,4.7369,4.7504,4.7537,4.7688,4.7737,4.7704,4.7454,4.7352,4.7352,4.7352,4.747,4.7637,4.7902,4.8001,4.8001,4.8001,4.7918,4.7819,4.7819,4.7719,4.762,4.762,4.762,4.7454,4.6841,4.6709,4.6527,4.5914,4.5806,4.5796,4.5878,4.5509,4.5219,4.5202,4.4874,4.4705,4.5052,4.4774,4.481,4.5551,4.6207,4.6887,4.7648,4.7158,4.6599,4.6126,4.5974,4.5585,4.4852,4.4801,4.4789,4.4765,4.4765,4.4803,4.494,4.4831,4.4765,4.4765,4.4654,4.4709,4.494,4.4978,4.5167,4.2366,4.2078,4.1939,4.2007,4.2213,4.2588,4.333,4.3713,4.4241,4.531,4.5761,4.6045,4.6245,4.6443,4.657,4.6577,4.692,4.7103,4.6941,4.7302,4.7399,4.6821,4.6842,4.6842,4.6772,4.6842,4.6876,4.6876,4.6876,4.6772,4.6458,4.6458,4.6388,4.6298,4.6388,4.6493,4.6582,4.6703,4.6807,4.6876,4.6876,4.6876,4.6876,4.6876,4.6876,4.6876,4.6876,0.0,4.7217,4.7403,4.7604,4.777,4.7721,4.7704,4.7671,4.7504,4.742,4.7403,4.7554,4.7621,4.7654,4.7902,4.8001,4.8001,4.8001,4.8001,4.8001,4.8001,4.8001,4.8001,4.8001,4.8001,4.7918,4.7554,4.7535,4.7416,4.6779,4.6736,4.6756,4.6462,4.6245,4.6127,4.614,4.5928,4.5826,4.5989,4.6102,4.6161,4.6127,4.7183,4.7648,4.6853,4.6786,4.665,4.6295,4.6261,4.5957,4.5213,4.5162,4.5021,4.4726,4.4709,4.4737,4.4776,4.482,4.4803,4.4803,4.4803,4.4913,4.5113,4.5194,4.5336,4.2418,4.216,4.1912,4.1744,4.1966,4.2228,4.2351,4.297,4.3636,4.4271,4.4756,4.522,4.5777,4.5955,4.6147,4.649,4.7068,4.7348,4.6955,4.7464,4.7591,4.6768,4.6842,4.6892,4.6687,4.6807,0.0,4.6876,4.6823,4.6703,4.6617,4.6369,4.6278,4.6298,4.6333,4.6423,4.6582,4.6652,4.6738,4.6876,4.6876,4.6876,4.6876,4.6876,4.6876,4.6876,4.6876,0.0,0.0,4.747,4.7671,4.7935,4.7721,4.7654,4.7638,4.7605,4.7487,4.7436,4.777,4.7787,4.7688,4.7902,4.7968,4.8001,4.8001,4.8001,4.8001,4.8001,4.8001,4.8001,4.8001,4.8001,4.8001,4.8001,4.8082,4.8045,4.7606,4.763,4.7569,4.7026,4.6958,4.6963,4.6993,4.6904,4.6836,4.6916,4.7305,4.7453,4.7014,4.7841,4.7821,4.6126,4.6447,4.6735,4.6583,4.6413,4.6075,4.55,4.5618,4.5432,4.484,4.5004,4.5004,4.4852,4.5003,4.4984,4.4831,4.5005,4.515,4.5283,4.5372,4.5632,4.2158,4.1758,4.1522,4.166,4.1591,4.1647,4.2269,4.2729,4.3374,4.4444,4.4671,4.4946,4.5984,4.6485,4.6613,4.6374,4.721,4.7632,4.6989,4.7266,4.7366,4.6927,4.7064,4.7098,4.6876,4.6876,4.6876,4.6876,4.658,4.6439,4.6582,4.6278,4.6152,4.6314,4.6493,4.6582,4.6582,4.6772,4.6876,4.6876,4.6876,4.6876,4.6876,4.6876,4.6876,4.6876,4.6876,0.0,0.0,4.7436,4.7604,4.7704,4.7571,4.7504,4.7504,4.7319,4.7098,4.6996,4.7403,4.7537,4.7537,4.7688,4.7853,4.8001,4.8001,4.8001,4.8001,4.8001,4.8001,4.8001,4.8001,4.8001,4.8001,4.8001,4.8001,4.8,4.7951,4.8047,4.8175,4.8283,4.7886,4.7541,4.7619,4.7153,4.6933,4.7304,4.6928,4.6834,4.7457,4.7053,4.6739,4.6701,4.6752,4.6532,4.5872,4.5179,4.4784,4.4716,4.5331,4.5669,4.5602,4.6244,4.6278,4.5618,4.5852,4.5651,4.4978,4.523,4.5441,4.5555,4.5598,4.6091,4.2485,4.2146,4.1787,4.1549,4.1647,4.1856,4.2117,4.2592,4.323,4.4086,4.4349,4.4664,4.5435,4.605,4.6381,4.6191,0.0,0.0,4.6864,4.735,4.7533,4.6821,4.7098,4.7217,0.0,0.0,4.703,4.6927,4.6633,0.0,4.6772,4.6404,4.6314,4.6458,4.6668,4.6772,4.6772,4.6842,4.6876,4.6876,4.6876,4.6876,4.6876,4.6876,4.6876,4.6876,4.6876,0.0,0.0,4.7403,4.7604,4.7704,4.7654,4.7571,4.747,4.7403,4.7251,4.7132,4.7487,4.7621,4.7654,4.782,4.7935,4.8001,4.8001,4.8001,4.8001,4.8001,4.8001,4.8001,4.8001,4.8001,4.8033,4.8115,4.8115,4.8147,4.826,4.8324,4.842,4.8483,4.8312,4.8174,4.8332,4.8141,4.8088,4.8343,4.8155,4.7963,4.7798,4.7511,4.7187,4.6836,4.6786,4.6498,4.5771,4.5432,4.5263,4.5263,4.5551,4.5906,4.6346,4.6804,4.6686,4.596,4.6316,4.6138,4.5363,4.5546,4.5701,4.5846,4.6342,4.6828,4.2769,4.2418,4.1995,4.1647,4.1912,4.2201,4.2225,4.2618,4.3195,4.3856,4.4089,4.4396,4.507,4.575,4.6172,0.0,0.0,4.7615,4.6794,4.726,4.7475,4.6941,4.7183,4.7251,4.6807,4.6996,4.7064,4.6996,4.6738,0.0,4.6876,4.6563,4.6458,4.6687,4.6807,4.6876,4.6876,4.6876,4.6876,4.6876,4.6876,4.6876,4.6876,4.6876,4.6876,4.6876,4.6876,0.0,0.0,4.7403,4.7604,4.7704,4.7704,4.7654,4.7571,4.7637,4.7504,4.7352,4.7704,4.777,4.7737,4.7935,4.8001,4.8001,4.8001,4.8001,4.8001,4.8001,4.8001,4.8001,4.8001,4.8001,4.8033,4.8115,4.8147,4.8179,4.8324,4.8388,4.842,4.8483,4.8564,4.8658,4.8832,4.8863,4.8894,4.897,4.9001,4.8815,4.8308,4.824,4.8037,4.7513,4.7445,4.7056,4.6109,4.6024,4.6024,4.6024,4.6314,4.6729,4.7255,4.7745,4.7649,4.6929,4.7091,4.6803,4.6005,4.5951,4.6095,4.644,4.7008,4.7549,4.2875,4.2511,4.1993,4.1993,4.2213,4.2474,4.2662,4.2835,4.3195,4.3856,4.3988,4.4258,4.5055,4.575,4.6172,4.6099,4.6668,0.0,4.692,4.6892,4.7046,4.7436,4.7335,4.7217,4.7183,4.703,4.6996,4.7183,4.6807,0.0,4.6876,4.6703,4.6703,4.6876,4.6876,4.6876,4.6876,4.6876,4.6876,4.6876,4.6876,4.6876,4.6876,4.6876,4.6876,0.0,0.0,0.0,0.0,4.7403,4.7604,4.7704,4.7704,4.7704,4.7704,4.7935,4.777,4.7571,4.8033,4.7968,4.7737,4.7935,4.8001,4.8001,4.8001,4.8001,4.8001,4.8001,4.8001,4.8001,4.8001,4.8001,4.8001,4.8001,4.8001,4.8001,4.8001,4.8115,4.826,4.8452,4.8658,4.8832,4.897,4.9001,4.9001,4.9001,4.9001,4.9001,4.8984,4.8984,4.8984,4.8984,4.8984,4.8376,4.6904,4.6786,4.6786,4.6786,4.7775,4.8377,4.8377,4.9354,4.9545,4.8769,4.832,4.7708,4.6995,4.6458,4.66,4.738,4.738,4.8205,4.2688,4.2526,4.2269,4.2269,4.2459,4.2662,4.2835,4.2941,4.3235,4.405,4.4104,4.4258,4.507,4.575,4.6231,4.6215,4.6817,0.0,0.0,4.703,4.7132,4.7285,4.7454,4.7504,0.0,0.0,4.737,4.7217,4.7064,0.0,4.6399,4.6651,4.6842,4.6876,4.6876,4.6876,4.6876,4.6876,4.6876,4.6876,4.6876,4.6961,4.7115,4.7115,4.7235,0.0,0.0,0.0,0.0,4.7688,4.7737,4.7604,4.7919,4.7984,4.7919,4.8082,4.8017,4.7869,4.8017,4.7984,4.7935,4.7968,4.8001,4.8001,4.8001,4.8001,4.8001,4.8001,4.8001,4.8001,4.8001,4.8001,4.8001,4.8001,4.8001,4.8001,4.8001,4.8033,4.8082,4.8164,4.8276,4.8436,4.861,4.8784,4.8894,4.897,4.9001,4.9001,4.9001,4.8578,4.846,4.8951,4.8562,4.8071,4.7597,4.7636,4.7738,4.7873,4.8282,4.8815,4.9389,4.9965,4.9864,4.9094,4.9141,4.8811,4.8023,4.7855,4.8205,4.8986,4.8986,4.9548,4.2883,4.292,4.2908,4.3071,4.3412,4.3753,4.3997,4.4037,4.4123,4.4476,4.4469,4.451,4.4989,4.5494,4.5918,4.6184,4.6701,4.7078,4.7026,4.7167,4.7336,4.7487,4.7588,0.0,0.0,4.7621,4.7554,4.7404,0.0,0.0,4.6531,4.6888,4.7098,4.703,4.6927,4.6876,4.6876,4.6876,4.6927,4.6996,4.6996,4.7115,4.7319,4.7386,4.7471,0.0,0.0,0.0,0.0,4.7853,4.7836,4.7637,4.8033,4.8147,4.8082,4.826,4.8195,4.8099,4.8099,4.8099,4.8099,4.8099,4.8099,4.8099,4.8099,4.8033,4.8001,4.8001,4.8001,4.8001,4.8001,4.8001,4.8001,4.8001,4.8001,4.8001,4.8001,4.8001,4.8001,4.8066,4.8195,4.8388,4.8595,4.8769,4.8894,4.897,4.9001,4.9001,4.9001,4.8612,4.8494,4.8951,4.8687,4.8506,4.8506,4.8502,4.8622,4.8876,4.9108,4.947,5.0051,5.0415,5.0355,4.9849,4.9757,4.9451,4.896,4.896,4.9205,4.9723,4.9995,5.0399,0.0,4.356,4.3885,4.4236,4.4851,4.5357,4.5585,4.5671,0.0,4.5151,4.5099,4.5114,4.5038,4.5176,4.5494,4.606,4.6455,4.6772,4.7183,4.732,4.7555,4.7968,4.7737,0.0,4.7968,4.7737,4.7637,4.7704,0.0,0.0,4.7169,4.7354,4.7354,4.7135,4.6997,4.6945,4.6945,4.6945,4.703,4.7217,4.7217,4.7319,4.7504,4.7688,4.7688,0.0,0.0,0.0,0.0,4.7869,4.7886,4.7737,4.8065,4.8195,4.8227,4.8452,4.8388,4.8195,4.8227,4.8227,4.8195,4.8227,4.8195,4.8195,4.8195,4.8115,4.8001,4.8001,4.8001,4.8001,4.8001,4.8001,4.8001,4.8001,4.8001,4.8001,4.8033,4.8033,4.8066,4.8179,4.8356,4.8547,4.8738,4.8894,4.9001,4.9001,4.9001,4.9001,4.9001,4.9001,4.9001,4.9001,4.9307,4.9488,4.9518,4.9381,4.9411,4.9737,5.0057,5.0302,5.0443,5.0737,5.0891,5.0891,5.018,4.9794,4.9794,4.9794,4.9794,4.9811,5.0539,5.0918,4.4001,0.0,4.4671,4.4558,4.5056,4.546,0.0,4.5392,4.594,4.592,4.6081,4.6275,4.6341,4.6402,4.6523,4.6902,4.7012,4.7167,4.7538,4.7605,4.777,4.8098,4.8227,4.8212,4.8001,4.8293,4.8357,0.0,0.0,4.7139,4.6995,4.6881,4.675,4.6601,4.7075,4.7369,4.7369,4.7369,4.7301,4.7217,4.7471,4.7621,4.7654,4.7935,4.8244,0.0,0.0,0.0,4.8033,4.8001,4.7886,4.7737,4.8065,4.8195,4.8227,4.8595,4.85,4.8227,4.8532,4.8468,4.8227,4.8388,4.8324,4.8195,4.8195,4.8115,4.8001,4.8001,4.8001,4.8001,4.8001,4.8001,4.8033,4.8147,4.813,4.8212,4.8356,4.826,4.8163,4.8195,4.8227,4.8324,4.8532,4.8721,4.8894,4.897,4.9001,4.9001,4.9001,4.9001,4.9032,4.9138,4.9229,4.9411,4.9796,4.9913,5.0028,5.0228,5.0408,5.0592,5.0764,5.0863,5.0891,5.0891,5.0697,5.061,5.061,5.061,5.061,5.061,5.0803,5.0945,4.5402,4.5608,4.5773,4.5946,4.6493,4.6977,4.6801,4.7163,4.7463,4.7201,4.7169,4.7098,4.6972,4.6812,4.6836,4.7215,4.7454,4.7721,4.8147,4.8049,4.8098,4.8515,4.8452,4.8356,0.0,4.8549,4.8532,0.0,0.0,4.731,4.75,4.7089,4.6927,4.7144,4.721,4.7292,4.752,4.7571,4.7588,4.7554,4.7803,4.7968,4.8065,4.834,4.85,0.0,0.0,0.0,4.8115,4.8033,4.7935,4.7853,4.8098,4.826,4.8356,4.8595,4.8564,4.85,4.8627,4.8564,4.85,4.8673,4.8627,4.8468,4.8356,4.8227,4.8082,4.8001,4.8001,4.8001,4.8099,4.8082,4.8147,4.8292,4.8324,4.8356,4.8483,4.842,4.8324,4.8324,4.8452,4.8578,4.8704,4.894,4.9155,4.9216,4.9216,4.9216,4.9216,4.9216,4.926,4.9411,4.956,4.9796,5.0114,5.0359,5.0526,5.0492,5.0575,5.0702,5.0891,5.0891,5.0891,5.0891,5.0891,5.0891,5.0891,5.0891,5.0891,5.0891,5.0891,5.0945,4.6976,4.7163,4.7148,4.7374,4.8039,4.8651,4.8854,4.9084,4.9148,4.8671,4.8329,4.8052,4.7757,4.7326,4.716,4.7669,4.7968,4.8325,4.8801,4.8515,4.8452,4.894,4.8595,0.0,4.8707,4.8658,0.0,0.0,0.0,4.7613,4.8258,4.746,4.7298,4.8,4.7321,4.7126,4.7604,4.7605,4.777,4.8033,4.8212,4.8356,4.8515,4.8738,4.8627,0.0,0.0,0.0,4.8033,4.7968,4.7968,4.8001,4.8115,4.8292,4.8452,4.8483,4.8595,4.8738,4.8578,4.8658,4.8849,4.8956,4.8894,4.8772,4.8649,4.8491,4.8378,4.8365,4.8199,4.8066,4.8163,4.8227,4.8292,4.8483,4.8564,4.8547,4.8578,4.8547,4.858,4.8698,4.8952,4.9173,4.9323,4.9515,4.9658,4.9641,4.9586,4.9518,4.9518,4.9518,4.956,4.9708,4.9999,5.0274,5.0425,5.0692,5.0801,5.0657,5.0657,5.0729,5.0891,5.0891,5.0891,5.0891,5.0891,5.0891,5.0891,5.0891,5.0891,5.0891,5.0891,5.0918,4.7756,4.8731,4.8951,4.7194,4.765,4.8287,4.7394,4.82,4.9276,4.9732,4.9731,4.986,5.0448,4.9501,4.8829,4.9354,4.9091,4.8909,4.9107,0.0,4.8719,4.897,0.0,4.8675,4.8564,0.0,0.0,0.0,0.0,4.7413,4.8639,4.7259,4.6956,4.8129,4.7336,4.7271,4.8098,4.7549,4.7581,4.8163,4.8549,4.8627,4.8515,4.8815,4.8863,0.0,0.0,4.8227,4.8147,4.7869,4.7853,4.8001,4.8033,4.8115,4.826,4.8452,4.8515,4.8564,4.8707,4.8863,4.894,4.8863,4.8818,4.8856,4.9091,4.9176,4.926,4.9859,4.9111,4.8163,4.8195,4.8324,4.8483,4.8707,4.8738,4.8801,4.8909,4.8815,4.8923,4.9562,4.9744,5.0008,5.0744,5.0544,5.0291,5.041,4.9911,4.9518,4.9518,4.959,4.9737,4.9837,5.0057,5.0285,5.0547,5.063,5.0702,5.0846,5.0846,5.0873,5.0891,5.0891,5.0891,5.0891,5.0891,5.0891,5.0891,5.0891,5.0891,5.0891,5.0891,5.0972,4.7824,4.9179,5.0083,4.8796,4.9295,4.9913,4.9421,4.975,5.0274,5.0579,5.0239,5.0039,5.046,4.9721,4.9145,4.9568,4.9511,4.9411,4.9471,4.929,4.9168,0.0,0.0,4.897,4.8892,0.0,0.0,0.0,0.0,0.0,4.8253,4.6737,4.6421,4.7738,4.6483,4.6402,4.7661,4.7022,4.7316,4.8532,4.8801,4.8846,4.8767,4.8846,4.8801,4.8627,0.0,4.8082,4.8082,4.7803,4.782,4.8001,4.8001,4.8147,4.8388,4.8673,4.8784,4.8767,4.8894,4.8956,4.9001,4.8925,4.9196,4.9504,4.9471,4.9824,5.0241,5.0393,4.9626,4.8843,4.9071,4.8897,4.869,4.8863,4.8925,4.9027,4.9509,4.9227,4.9145,4.9999,4.989,4.9963,5.0898,5.0899,5.0815,5.0858,5.0639,5.0319,4.9923,4.9999,5.0143,5.025,5.0352,5.0509,5.0747,5.0774,5.0801,5.0891,5.0891,5.0891,5.0891,5.0891,5.0891,5.0891,5.0891,5.0891,5.0891,5.0891,5.0891,5.0891,5.0891,5.0945,4.7918,4.9293,5.0508,5.0192,5.0709,5.1324,5.1361,5.1295,5.1302,5.1424,5.091,5.0477,5.0544,5.0039,4.9615,4.9713,4.9796,4.9854,4.9854,4.9708,4.959,4.959,4.9257,4.9073,0.0,0.0,0.0,0.0,0.0,0.0,4.7631,4.6203,4.5937,4.7111,4.5721,4.561,4.6912,4.6561,4.7167,4.8818,4.8956,4.9001,4.9001,4.8863,4.8707,4.8483,4.8179,4.8033,4.8001,4.782,4.7853,4.8001,4.8033,4.8244,4.8627,4.8909,4.9001,4.9001,4.9001,4.9001,4.9035,4.9142,4.9613,5.0088,5.0105,5.0641,5.1244,5.1078,5.0527,4.9958,4.9835,4.9444,4.902,4.8959,4.894,4.914,4.9712,4.9421,4.9365,5.0439,5.0349,5.0429,5.151,5.1649,5.1649,5.1649,5.1595,5.1298,5.0535,5.0619,5.069,5.062,5.0657,5.0729,5.0891,5.0891,5.0891,5.0891,5.0891,5.0891,5.0891,5.0891,5.0891,5.0891,5.0891,5.0891,5.0891,5.0891,5.0918,5.0945,5.0945,5.0945,4.8582,4.9385,4.9908,5.0048,5.0558,5.1051,5.1177,5.1474,5.1866,5.2316,5.2411,5.2365,5.2252,5.1731,5.1101,5.0435,5.0341,5.0341,5.0341,0.0,4.9866,4.9866,4.9049,0.0,0.0,0.0,0.0,0.0,0.0,0.0,4.687,4.5946,4.5702,4.634,4.5591,4.5514,4.6177,4.6368,4.7272,4.8818,4.8956,4.9001,4.9001,4.8863,4.8707,4.8483,4.8292,4.8115,4.8001,4.7968,4.8001,4.8001,4.8147,4.8436,4.8801,4.8956,4.9001,4.9001,4.9001,4.9001,4.9089,4.9658,4.9957,5.0274,5.1313,5.1816,5.2169,5.2791,5.2472,5.1564,5.0022,4.9718,4.9645,4.8969,4.8801,4.8849,4.9038,4.9158,4.9624,5.1116,5.1637,5.2283,5.371,5.3559,5.3235,5.3235,5.2784,5.2112,5.1315,5.1488,5.1424,5.0672,5.0774,5.0873,5.0891,5.0891,5.0891,5.0891,5.0891,5.0891,5.0891,5.0891,5.0891,5.0891,5.0891,5.0891,5.0891,5.0891,5.0972,5.1079,5.1079,5.1079,4.841,4.9741,5.0838,5.0794,5.1463,5.2117,5.2084,5.2448,5.2885,5.3242,5.2956,5.2511,5.2009,5.1542,5.108,5.0599,5.0602,5.063,5.0547,5.0285,5.0086,5.0086,4.9171,0.0,0.0,0.0,0.0,0.0,0.0,0.0,4.6126,4.5341,4.5142,4.5736,4.493,4.4855,4.5531,4.5634,4.6257,4.7373,4.847,4.9001,4.9001,4.8721,4.8627,4.8675,4.8324,4.8227,4.8308,4.8179,4.8115,4.8147,4.8324,4.8564,4.8818,4.8956,4.9001,4.9001,4.9001,4.8956,4.9012,4.977,5.0295,5.0836,5.1715,5.2455,5.2994,5.3145,5.3095,5.2724,5.1578,5.0988,5.0529,4.977,4.9632,4.9664,4.9837,4.9929,5.0328,5.1569,5.1929,5.2348,5.3507,5.3518,5.3422,5.3497,5.3389,5.307,5.2376,5.207,5.1808,5.151,5.1127,5.0891,5.0891,5.0891,5.0891,5.0891,5.0891,5.0891,5.0891,5.0891,5.1119,5.1593,5.1593,5.1876,5.2461,5.2461,5.2516,5.2651,5.2651,5.2332,4.821,4.9526,5.0743,5.0962,5.185,5.2712,5.2712,5.2932,5.3307,5.3905,5.3241,5.2542,5.2525,5.1733,5.1122,5.1181,5.1059,5.0901,5.0784,5.0537,5.0369,5.0274,0.0,0.0,0.0,0.0,0.0,0.0,0.0,0.0,0.0,4.4886,4.475,4.505,4.4539,4.4435,4.4867,4.5203,4.5614,4.6178,4.7845,4.8663,4.8632,4.8541,4.8627,4.8786,4.8373,4.8292,4.8388,4.826,4.8227,4.8324,4.8452,4.8658,4.8863,4.8987,4.9001,4.9001,4.9001,4.8925,4.8969,5.0071,5.0715,5.1192,5.2236,5.2994,5.3467,5.3382,5.3467,5.3449,5.2973,5.2229,5.1386,5.0608,5.0503,5.0614,5.0805,5.0867,5.1196,5.2166,5.2413,5.2716,5.3584,5.3784,5.3877,5.3983,5.4131,5.4002,5.3352,5.2954,5.2558,5.2067,5.1347,5.0891,5.0891,5.0891,5.0996,5.1224,5.1242,5.1242,5.1242,5.1487,5.1856,5.2365,5.2421,5.2768,5.3407,5.3445,5.3545,5.3663,5.3663,5.3326,4.8048,4.8593,4.928,5.0332,5.1554,5.256,5.2852,5.2747,5.2986,5.4246,5.3274,5.2674,5.4208,5.2657,5.1441,5.2343,5.1838,5.1246,5.1105,5.0936,5.0712,5.0425,0.0,0.0,0.0,0.0,0.0,0.0,0.0,0.0,0.0,4.4615,4.4514,4.431,4.4497,4.4429,4.4097,4.5171,4.56,4.5408,4.7085,4.7889,4.7906,4.8322,4.8627,4.8786,4.8373,4.8195,4.8195,4.8195,4.8324,4.8515,4.8515,4.8704,4.9001,4.9001,4.9001,4.9001,4.9001,4.8925,4.9053,5.068,5.1105,5.131,5.301,5.3501,5.3534,5.3651,5.37,5.375,5.3948,5.3223,5.2214,5.1419,5.1378,5.1554,5.1743,5.1898,5.2245,5.2952,5.328,5.3649,5.4391,5.4686,5.4797,5.478,5.5022,5.4919,5.4203,5.4215,5.3717,5.219,5.1347,5.0908,5.0908,5.0908,5.1224,5.1951,5.2004,5.2004,5.2032,5.2769,5.3201,5.3218,5.3341,5.3425,5.3425,5.3563,5.3699,5.3816,5.3816,5.3816,4.8307,4.9186,4.9991,5.009,5.1072,5.2234,5.3043,5.3683,5.4095,5.4153,5.3842,5.3717,5.4082,5.3593,0.0,5.2687,5.2456,5.2015,5.1202,5.0936,5.0712,0.0,0.0,0.0,0.0,0.0,0.0,0.0,0.0,0.0,0.0,4.4615,4.457,4.4514,4.444,4.4412,4.4457,4.4631,4.4778,4.4868,4.6384,4.7411,4.7922,4.8464,4.8801,4.8925,4.8707,4.8675,4.8753,4.8658,4.8675,4.8707,4.8707,4.8832,4.9001,4.9001,4.9001,4.9001,4.9001,4.9232,4.9761,5.0848,5.1475,5.2016,5.3262,5.3634,5.3701,5.3849,5.3915,5.3915,5.398,5.3842,5.3451,5.2603,5.245,5.2392,5.2018,5.2372,5.2863,5.3246,5.379,5.4284,5.4652,5.4749,5.4855,5.5035,5.5139,5.4979,5.4314,5.4285,5.3928,5.2944,5.2137,5.1909,5.2481,5.1997,5.2014,5.2786,5.3331,5.3401,5.2857,5.305,5.3418,5.3963,5.4151,5.4547,5.5172,5.533,5.5514,5.5633,5.5633,5.5275,4.8813,4.9804,5.0746,5.1107,5.2066,5.3162,5.4135,5.4919,5.5124,5.3953,5.3995,5.4192,5.4148,5.389,0.0,5.2939,5.286,5.2464,5.1343,5.107,5.0865,0.0,0.0,0.0,0.0,0.0,0.0,0.0,0.0,0.0,0.0,4.4615,4.4615,4.4615,4.4468,4.4468,4.4615,4.4468,4.4468,4.4615,4.5788,4.6752,4.7496,4.8391,4.8863,4.9001,4.8753,4.8769,4.8894,4.8658,4.8612,4.8675,4.8675,4.8769,4.8925,4.8925,4.894,4.9001,4.9001,4.9429,5.0126,5.1012,5.174,5.2502,5.3512,5.3816,5.3849,5.4045,5.4078,5.411,5.4192,5.4271,5.4151,5.3562,5.3492,5.3435,5.308,5.3321,5.3728,5.3919,5.4312,5.4669,5.4855,5.4917,5.5022,5.5169,5.5277,5.5179,5.4811,5.4507,5.4138,5.3664,5.2983,5.2747,5.3166,5.279,5.286,5.3576,5.405,5.4244,5.4121,5.4103,5.4343,5.4857,5.5047,5.5419,5.6021,5.6207,5.6318,5.6401,5.6401,5.6106,4.95,5.0324,5.1308,5.2645,5.3782,5.4709,5.5353,5.6101,5.6043,5.3914,5.3911,5.432,5.4421,5.3814,5.3254,5.3222,5.315,5.2694,5.1571,5.1334,0.0,0.0,0.0,0.0,0.0,0.0,0.0,0.0,0.0,0.0,0.0,4.4615,4.4615,4.4615,4.4615,4.4615,4.4615,4.4615,4.4632,0.0,4.5449,4.6194,4.6938,4.8155,4.8796,4.897,4.8642,4.8627,4.8769,4.8405,4.8356,4.8547,4.8547,4.8658,4.8801,4.8801,4.8894,4.9032,4.9032,4.9557,5.0399,5.1252,5.2066,5.2881,5.3775,5.4013,5.4045,5.4207,5.4239,5.4271,5.448,5.4512,5.448,5.4303,5.4367,5.4512,5.4512,5.4512,5.4543,5.4749,5.4797,5.4842,5.4992,5.5109,5.5199,5.5229,5.5383,5.5507,5.5507,5.4875,5.4419,5.4419,5.3859,5.3465,5.344,5.3482,5.3764,5.4395,5.4448,5.4753,5.5472,5.5507,5.5549,5.5695,5.5833,5.5993,5.6197,5.6346,5.6401,5.6401,5.6401,5.6401,4.9441,4.9858,5.0345,5.1112,5.2731,5.3964,5.3346,5.5213,5.6649,5.5111,5.4898,5.496,5.4888,5.4623,5.4368,5.4169,5.3559,5.2909,5.2316,5.1714,0.0,0.0,0.0,0.0,0.0,0.0,0.0,0.0,0.0,0.0,4.4748,4.4654,4.4615,4.4615,4.4615,4.4615,4.4615,4.4615,4.4902,0.0,4.621,4.6955,4.7652,4.7943,4.8385,4.8832,4.8769,4.8769,4.8769,4.8707,4.8769,4.8877,4.8769,4.8832,4.8956,4.8956,4.9032,4.9168,4.9168,5.0127,5.1378,5.1612,5.2567,5.3775,5.4059,5.4175,5.4207,5.4367,5.4448,5.448,5.4686,5.4606,5.4543,5.4637,5.4575,5.4512,5.4512,5.4512,5.4543,5.4749,5.4797,5.4873,5.5126,5.5169,5.5259,5.5401,5.5478,5.5507,5.5507,5.5367,5.5244,5.5244,5.4571,5.4383,5.5102,5.4666,5.4649,5.5349,5.5402,5.5432,5.5507,5.5507,5.5549,5.5695,5.5833,5.5993,5.6197,5.6346,5.6401,5.6401,5.6401,5.6401,4.9441,5.0083,5.0835,5.1958,5.303,5.3902,5.4188,5.5119,5.5925,5.6045,5.5601,5.4975,5.4187,5.4213,5.4128,5.3507,5.3288,5.2913,5.2137,5.1598,0.0,0.0,0.0,0.0,0.0,0.0,0.0,0.0,0.0,4.4923,4.4803,4.4682,4.4615,4.4615,4.4615,4.4615,4.4615,4.4615,4.4801,4.5179,4.5923,4.6853,4.7906,4.8291,4.8554,4.8818,4.8818,4.8818,4.8818,4.8818,4.8832,4.8894,4.8721,4.8784,4.9001,4.8892,4.9077,4.935,4.935,5.0431,5.185,5.185,5.2941,5.4239,5.4335,5.4335,5.4367,5.4575,5.4637,5.4669,5.4855,5.4762,5.4686,5.4855,5.47,5.4512,5.4512,5.4512,5.4575,5.4824,5.4886,5.4978,5.5294,5.5354,5.5383,5.5478,5.5507,5.5507,5.5507,5.5507,5.5507,5.5507,5.518,5.515,5.5572,5.5383,5.5369,5.5689,5.5764,5.5764,5.5677,5.5677,5.5706,5.5775,5.5964,5.6123,5.629,5.6373,5.6401,5.6401,5.6401,5.6401,4.8988,5.0095,5.1342,5.3034,5.3487,5.3905,5.5298,5.5098,5.4966,5.6113,5.5672,5.4706,5.3478,5.3466,5.3398,5.264,5.2852,5.277,5.1866,5.1491,0.0,0.0,0.0,0.0,0.0,0.0,0.0,0.0,0.0,4.4923,4.4803,4.4682,4.4615,4.4615,4.4615,4.4615,4.4615,4.4615,4.4666,4.4818,4.5669,4.6773,4.8078,4.87,4.8925,4.8818,4.8818,4.8818,4.8818,4.8769,4.8769,4.8801,4.861,4.8736,4.9032,4.8875,4.9121,4.953,4.953,5.0613,5.2035,5.2035,5.3146,5.4512,5.4512,5.4512,5.4543,5.4717,5.478,5.4842,5.4978,5.4886,5.4842,5.4961,5.4745,5.4512,5.4543,5.4512,5.4606,5.493,5.5053,5.5191,5.5448,5.5507,5.5507,5.5507,5.5507,5.5507,5.5537,5.5537,5.5537,5.5566,5.5666,5.5706,5.5625,5.5822,5.589,5.5793,5.5908,5.5947,5.5918,5.5947,5.5947,5.5947,5.6123,5.6281,5.6401,5.6401,5.6401,5.6401,5.6401,5.6401,4.7202,4.8433,4.9895,5.1576,5.2666,5.3315,5.3272,5.4214,5.4861,5.3992,5.4215,5.4522,5.4271,5.3504,5.304,5.3367,5.275,5.2364,5.2661,0.0,0.0,0.0,0.0,0.0,0.0,0.0,0.0,0.0,4.5086,4.4923,4.4803,4.4682,4.4615,4.4615,4.4615,4.4615,4.4615,4.4615,4.4936,4.5568,4.6972,4.7963,4.8697,4.8906,4.8925,4.8818,4.8818,4.8818,4.8786,4.8627,4.8704,4.894,4.875,4.8875,4.9199,4.932,4.95,4.9679,4.9679,5.0763,5.2157,5.2157,5.3222,5.4512,5.4512,5.4512,5.4512,5.4543,5.4686,5.4842,5.4978,5.4886,5.4842,5.4961,5.4745,5.4543,5.4717,5.4606,5.4606,5.493,5.5221,5.5448,5.5478,5.5507,5.5507,5.5507,5.5507,5.5537,5.5666,5.5666,5.5706,5.5833,5.5861,5.5936,5.6095,5.6141,5.6151,5.6123,5.6151,5.6095,5.5918,5.6067,5.6169,5.6169,5.6197,5.6281,5.6401,5.6401,5.6401,5.6401,5.6401,5.6401,4.6569,4.7887,4.9276,5.0502,5.1719,5.2762,5.3258,5.3726,5.4056,5.3994,5.3907,5.3813,5.3789,5.324,5.2848,5.2994,5.2515,5.2155,5.2323,0.0,0.0,0.0,0.0,0.0,0.0,0.0,0.0,0.0,4.5086,4.4923,4.4803,4.4682,4.4615,4.4615,4.4615,4.4615,4.4615,4.4615,4.519,4.6312,4.6972,4.7872,4.8925,4.897,4.8877,4.8627,4.8832,4.8863,4.8769,4.8707,4.8784,4.897,4.8781,4.8968,4.9381,4.9488,4.9654,4.9928,5.0324,5.1244,5.2257,5.2735,5.3615,5.4512,5.4512,5.4512,5.4512,5.4655,5.4811,5.493,5.5066,5.5022,5.4948,5.5096,5.4807,5.4575,5.4855,5.4762,5.4762,5.5066,5.5324,5.5507,5.5507,5.5507,5.5507,5.5507,5.5507,5.5566,5.5677,5.5706,5.5764,5.589,5.5918,5.5908,5.5925,5.5993,5.5993,5.5925,5.6113,5.6169,5.6077,5.6235,5.6318,5.6318,5.6318,5.6346,5.6401,5.6401,5.6401,5.6401,5.6401,5.6401,4.569,4.6944,4.8189,4.9477,5.0731,5.1952,5.3132,5.3247,5.3292,5.4028,5.37,5.3256,5.3256,5.3045,5.2806,5.2676,5.2397,5.215,5.198,0.0,0.0,0.0,0.0,0.0,0.0,0.0,0.0,0.0,4.5086,4.4923,4.4803,4.4682,4.4615,4.4615,4.4615,4.4615,4.4615,4.4615,4.5258,4.6515,4.6701,4.7432,4.8652,4.8886,4.8877,4.8642,4.894,4.897,4.8863,4.8894,4.894,4.9032,4.8937,4.9152,4.9577,4.9607,4.9772,5.0114,5.0856,5.1597,5.2326,5.3149,5.3908,5.4512,5.4512,5.4512,5.4543,5.4686,5.4824,5.4961,5.5066,5.5005,5.4992,5.5126,5.4977,5.4799,5.4921,5.4917,5.4961,5.5169,5.5354,5.5507,5.5507,5.5507,5.5507,5.5507,5.5507,5.5566,5.5677,5.5735,5.5793,5.589,5.5947,5.5936,5.5764,5.5833,5.5861,5.5839,5.6067,5.6225,5.6253,5.6346,5.6401,5.6401,5.6401,5.6401,5.6401,5.6401,5.6401,5.6401,5.6401,5.6401,4.396,4.4757,4.5911,4.8432,4.9732,5.0727,5.2006,5.2559,5.2908,5.3219,5.3225,5.3206,5.3206,5.3082,5.2955,5.2806,5.2599,5.2387,5.2126,0.0,0.0,0.0,0.0,0.0,0.0,0.0,0.0,0.0,4.5086,4.4923,4.4803,4.4682,4.4615,4.4615,4.4615,4.4615,4.4615,4.4615,4.4976,4.5771,4.6464,4.7102,4.7709,4.8571,4.9001,4.897,4.9138,4.9107,4.9001,4.9124,4.9199,4.9199,4.9398,4.956,4.9708,4.9906,4.9982,5.0114,5.0856,5.1597,5.2326,5.3149,5.3908,5.4512,5.4512,5.4512,5.4512,5.4512,5.4655,5.4811,5.4811,5.4811,5.4842,5.4992,5.5282,5.5406,5.4904,5.4992,5.5199,5.5199,5.5354,5.5507,5.5507,5.5507,5.5507,5.5507,5.5507,5.5566,5.5677,5.5804,5.589,5.5918,5.6067,5.6095,5.5918,5.589,5.5993,5.6169,5.6197,5.6253,5.6373,5.6401,5.6401,5.6401,5.6401,5.6401,5.6401,5.6401,5.6401,5.6401,5.6401,5.6401,4.2129,4.3056,4.4276,4.5586,4.7319,4.8826,4.9274,5.0189,5.1016,5.1338,5.1886,5.2315,5.2396,5.2736,5.2999,5.2934,5.2622,5.234,5.2228,0.0,0.0,0.0,0.0,0.0,0.0,0.0,0.0,0.0,0.0,4.4923,4.4803,4.4682,4.4615,4.4615,4.4615,4.4615,4.4615,4.4615,4.4959,4.572,4.6447,4.7162,4.7828,4.8724,4.9138,4.9138,4.9411,4.9441,4.9307,4.9229,4.929,4.9398,4.9488,4.956,4.9708,4.9935,5.0011,5.0183,5.1407,5.1964,5.2394,5.3701,5.4287,5.4512,5.4512,5.4512,5.4512,5.4512,5.4637,5.4797,5.4797,5.5144,5.566,5.616,5.6585,5.6819,5.6638,5.6675,5.6768,5.6856,5.6934,5.6806,5.6297,5.621,5.6052,5.5578,5.5507,5.5566,5.5677,5.5735,5.5804,5.589,5.5947,5.6159,5.6499,5.6075,5.6217,5.7282,5.6513,5.629,5.6957,5.6595,5.6401,5.6401,5.6401,5.6401,5.6401,5.6401,5.6401,5.6401,5.6401,5.6401,4.0504,4.1482,4.2816,4.3734,4.5303,4.6859,4.7694,4.8562,4.9383,5.0029,5.0976,5.1749,5.1914,5.2514,5.2999,5.2999,5.2694,5.2439,5.2322,0.0,0.0,0.0,0.0,0.0,0.0,0.0,0.0,0.0,0.0,0.0,4.4803,4.4682,4.4615,4.4615,4.4615,4.4615,4.4615,4.4615,4.4869,4.5331,4.6329,4.7086,4.7623,4.8727,4.926,4.9381,4.9619,4.9619,4.9518,4.9488,4.9518,4.956,4.9637,4.9725,4.9813,4.9935,5.0011,5.0218,5.1701,5.2188,5.2429,5.4011,5.4512,5.4512,5.4512,5.4512,5.4512,5.4512,5.4637,5.4849,5.5092,5.5827,5.6637,5.732,5.7785,5.8111,5.8307,5.7957,5.7701,5.7776,5.7807,5.7632,5.7087,5.7,5.6736,5.5981,5.5876,5.5818,5.5643,5.5666,5.5706,5.5764,5.6051,5.6393,5.6758,5.6552,5.6863,5.7915,5.7211,5.7003,5.769,5.7369,5.7061,5.6793,5.6793,5.6668,5.6401,5.6401,5.6401,5.6401,5.6401,5.6401,0.0,0.0,0.0,4.2993,4.3786,4.4834,4.734,4.7779,4.8022,4.9264,5.0511,5.1457,5.1694,5.2413,5.2962,5.298,5.2872,5.269,5.2382,0.0,0.0,0.0,0.0,0.0,0.0,0.0,0.0,0.0,4.5497,4.494,4.4803,4.4682,4.4615,4.4615,4.4615,4.4615,4.4615,4.4615,4.4615,4.4615,4.6087,4.6857,4.7053,4.8532,4.9376,4.9708,4.9708,4.9637,4.9547,4.9877,4.9889,4.9737,4.9935,5.0011,5.0011,5.0011,5.0011,5.0218,5.1701,5.2188,5.2429,5.4011,5.4512,5.4512,5.4512,5.4512,5.4512,5.4512,5.4672,5.5005,5.5767,5.6802,5.7772,5.8313,5.8747,5.9166,5.9721,5.8787,5.7877,5.7877,5.7877,5.786,5.7842,5.7842,5.7561,5.6754,5.6631,5.6368,5.5648,5.566,5.5689,5.5543,5.6376,5.6863,5.6696,5.7368,5.7886,5.8056,5.8219,5.8367,5.8514,5.8623,5.8381,5.7632,5.7624,5.7204,5.6436,5.6401,5.6401,5.6401,5.6401,5.6401,3.8522,0.0,0.0,0.0,0.0,0.0,4.2784,4.3978,4.5024,4.5649,4.7459,4.9146,4.9915,5.0995,5.1977,5.2607,5.2676,5.2781,5.3122,0.0,0.0,0.0,0.0,0.0,0.0,0.0,0.0,0.0,4.5405,4.4831,4.4803,4.4682,4.4615,4.4615,4.4615,4.4615,4.4615,4.4615,4.4654,4.4765,4.5705,4.6493,4.7193,4.8253,4.9105,4.9708,4.986,4.9906,4.9877,4.9964,4.9964,4.9935,4.9982,5.0011,5.0011,5.0011,5.0011,5.0218,5.1701,5.2188,5.2429,5.4011,5.4512,5.4512,5.4512,5.4606,5.4686,5.4543,5.5035,5.5888,5.7222,5.7967,5.8573,5.9242,5.9613,5.9843,5.9972,5.9724,5.9457,5.9457,5.9457,5.9299,5.8773,5.8667,5.8404,5.7596,5.7474,5.7193,5.6403,5.6837,5.696,5.635,5.7047,5.7781,5.8299,5.8018,5.8343,5.9655,5.8837,5.8615,5.9343,5.8955,5.8602,5.8388,5.7864,5.7499,5.7285,5.6668,5.6401,5.6401,5.6401,5.6437,0.0,3.8113,3.8701,3.8837,0.0,0.0,4.0484,4.1378,4.2186,0.0,4.4957,4.6885,4.7628,4.9323,5.0898,5.1856,5.2161,5.2454,5.293,0.0,0.0,0.0,0.0,0.0,0.0,4.8754,4.7754,4.6786,4.58,4.5088,4.4754,4.4553,4.4514,4.4615,4.4514,4.4514,4.4615,4.4654,4.472,4.482,4.5597,4.6459,4.7352,4.8209,4.905,4.9813,5.0005,5.0063,5.0063,5.0063,5.0051,5.0011,5.0011,5.0011,5.0011,5.0011,5.02,5.0631,5.1791,5.2412,5.2908,5.4115,5.4512,5.4512,5.4512,5.4575,5.4686,5.4637,5.5574,5.6892,5.8109,5.8826,5.94,5.9838,6.0008,6.0089,6.0089,6.0089,6.0089,6.0089,6.0089,5.9966,5.9527,5.9457,5.9194,5.8421,5.8299,5.8018,5.7193,5.7509,5.7614,5.7158,5.7825,5.8492,5.8966,5.886,5.9173,6.0213,5.9655,5.9489,6.004,5.9852,5.953,5.9191,5.8792,5.8238,5.7606,5.6775,5.6401,5.6401,5.6401,5.6455,0.0,0.0,0.0,0.0,3.8046,0.0,3.941,3.9495,3.9642,0.0,4.2875,4.469,4.5269,4.7439,4.9521,5.0629,5.116,5.1661,5.227,0.0,0.0,0.0,0.0,0.0,5.0415,4.9411,4.8403,4.7478,4.6459,4.5541,4.4739,4.4446,4.4367,4.457,4.4395,4.4395,4.4626,4.4737,4.4803,4.4858,4.5651,4.6531,4.7556,4.8209,4.9039,5.0011,5.012,5.0189,5.0189,5.0189,5.012,5.0022,5.0011,5.0011,5.0011,5.0011,5.0476,5.1218,5.1929,5.2735,5.3529,5.427,5.4512,5.4512,5.4512,5.4512,5.4609,5.4956,5.63,5.7828,5.8611,5.9438,6.0057,6.0089,6.0089,6.0089,6.0089,6.0089,6.0089,6.0089,6.0089,6.0089,6.0089,6.0089,5.9879,5.9229,5.9124,5.8843,5.8053,5.8,5.8018,5.7948,5.865,5.9124,5.9124,5.9721,6.0089,6.0089,6.0423,6.0578,6.0578,6.0914,6.0754,6.0058,5.9969,5.9148,5.7606,5.6865,5.649,5.6401,5.6401,5.6401,0.0,0.0,0.0,0.0,3.7201,0.0,3.7084,3.7306,3.7763,3.8952,4.072,4.2594,4.4214,4.5488,4.6737,4.8088,4.8802,5.0055,5.2465,5.2755,0.0,0.0,0.0,0.0,5.0326,4.9269,4.8512,4.8201,4.6668,4.559,4.5248,4.463,4.431,4.4367,4.4338,4.4452,4.4748,4.4793,4.4913,4.5113,4.5277,4.6165,4.7662,4.7817,4.8654,5.0011,5.0022,5.0092,5.0189,5.0189,5.0189,5.0132,5.0051,5.0011,5.0011,5.0011,5.0476,5.1218,5.1929,5.2735,5.3529,5.427,5.4512,5.4512,5.4512,5.4606,5.5008,5.6235,5.729,5.829,5.9186,5.9628,5.9911,6.0057,6.0089,6.0089,6.0089,6.0089,6.0089,6.0089,6.0089,6.0089,6.0089,6.0089,6.0054,5.9914,5.9879,5.9615,5.886,5.9282,5.9422,5.8843,5.944,5.9879,5.9879,6.0019,6.0089,6.0089,6.0423,6.0578,6.0578,6.0914,6.1022,6.0861,6.0237,5.9148,5.7606,5.7445,5.7025,5.6401,5.6401,5.6455,0.0,0.0,0.0,3.7226,0.0,0.0,0.0,3.6383,3.6682,3.7413,3.8749,4.0223,4.1597,4.2989,4.4238,4.5305,4.6411,4.7646,4.9061,5.0605,0.0,0.0,0.0,0.0,5.0252,4.9625,4.8958,4.8289,4.6573,4.5542,4.5542,4.4632,4.4155,4.431,4.4184,4.4298,4.4648,4.4748,4.4923,4.5203,4.5274,4.5947,4.7155,4.7517,4.831,4.9441,4.9907,5.0149,5.0189,5.0189,5.0189,5.0189,5.012,5.0051,5.0045,5.0424,5.1028,5.174,5.2546,5.3304,5.4011,5.4391,5.4512,5.4512,5.4512,5.4914,5.5577,5.6623,5.7586,5.8481,5.9262,5.9635,5.9814,5.9849,5.9978,6.0057,5.9975,6.0025,6.0089,6.0089,6.0089,6.0089,6.0089,6.0089,6.0089,6.0089,6.0089,5.9966,5.9598,5.9861,5.9966,5.9598,5.9879,6.0089,6.0089,6.0089,6.0089,6.0089,6.0423,6.0578,6.0578,6.0914,6.1093,6.1093,6.0701,5.9719,5.8149,5.8149,5.7543,5.6401,5.6401,5.6455,0.0,0.0,0.0,0.0,0.0,3.6198,0.0,0.0,0.0,3.6252,3.7139,3.8091,3.8975,0.0,0.0,0.0,0.0,0.0,0.0,4.7689,0.0,0.0,0.0,0.0,0.0,4.9854,4.9264,4.8158,4.6515,4.556,4.5558,4.4503,4.3998,4.4224,4.4068,4.4155,4.4547,4.4759,4.5005,4.5247,4.5344,4.5811,4.6631,4.7345,4.8086,4.8844,4.9774,5.016,5.0189,5.0189,5.0189,5.0189,5.016,5.0109,5.008,5.0683,5.1429,5.2274,5.2942,5.3753,5.4512,5.4512,5.4512,5.4512,5.4448,5.5213,5.6156,5.6648,5.7625,5.8654,5.9145,5.9485,5.9683,5.9603,5.9816,5.9993,5.9829,5.9943,6.0089,6.0089,6.0089,6.0089,6.0089,6.0089,6.0089,6.0089,6.0089,6.0089,6.0089,6.0089,6.0089,6.0089,6.0089,6.0089,6.0089,6.0089,6.0089,6.0089,6.0423,6.0578,6.0578,6.0914,6.1093,6.1093,6.1123,6.0427,5.8923,5.8952,5.8088,5.6401,5.6401,5.6499,0.0,0.0,0.0,0.0,3.5511,0.0,3.4745,0.0,3.474,3.5831,0.0,3.6874,3.8017,0.0,0.0,0.0,0.0,0.0,4.3522,4.5504,4.7243,0.0,0.0,0.0,0.0,4.9307,4.8772,4.7996,4.6838,4.5858,4.5117,4.431,4.3927,4.3939,4.4155,4.4423,4.4776,4.5032,4.522,4.5371,4.5397,4.5811,4.6631,4.7345,4.8086,4.8844,4.9666,5.0092,5.0189,5.0189,5.0189,5.0189,5.008,4.9993,5.0011,5.0097,5.1028,5.2205,5.2291,5.3304,5.4512,5.4512,5.4512,5.448,5.4303,5.5382,5.6717,5.6771,5.7839,5.8977,5.925,5.9352,5.9419,5.957,5.9733,5.9829,5.9796,5.9943,6.0089,6.0089,6.0089,6.0089,6.0089,6.0089,6.0089,6.0089,6.0089,6.0089,6.0089,6.0089,6.0089,6.0089,6.0089,6.0089,6.0089,6.0089,6.0089,6.0089,6.0423,6.0578,6.0578,6.0914,6.1093,6.1093,6.1211,6.0764,5.9773,5.9881,5.8719,5.6401,5.6401,5.6858,0.0,0.0,0.0,0.0,0.0,0.0,3.5369,0.0,3.5229,0.0,0.0,0.0,0.0,0.0,0.0,0.0,3.9669,0.0,0.0,0.0,4.4867,0.0,0.0,0.0,0.0,0.0,0.0,0.0,0.0,4.6052,4.5765,4.4467,4.3763,4.3898,4.3998,4.4212,4.4508,4.4814,4.5059,4.5274,4.5371,4.5767,4.646,4.7317,4.8058,4.873,4.9608,5.0022,5.0063,5.0063,5.0063,5.008,5.0022,5.0011,5.0062,5.0493,5.1321,5.2257,5.2735,5.3615,5.4512,5.4512,5.4512,5.4549,5.4916,5.5861,5.6891,5.7322,5.8202,5.9012,5.9081,5.92,5.9268,5.9268,5.9469,5.9635,5.9535,5.9716,5.9943,5.9943,6.0025,6.0089,6.0089,6.0089,6.0089,6.0089,6.0089,6.0089,6.0089,6.0089,6.0089,6.0089,6.0089,6.0089,6.0089,6.0089,6.0089,6.0089,6.0423,6.0671,6.0884,6.1034,6.1093,6.1093,6.1152,6.0759,5.9916,5.9956,5.9206,5.7739,5.7739,5.8019,3.9479,0.0,0.0,0.0,0.0,0.0,0.0,0.0,0.0,0.0,0.0,0.0,0.0,0.0,0.0,0.0,0.0,3.8844,0.0,4.1055,0.0,0.0,0.0,0.0,0.0,0.0,0.0,0.0,0.0,0.0,4.5554,4.4281,4.3628,4.3793,4.3939,4.4097,4.431,4.4703,4.4978,4.5167,4.5247,4.5633,4.6278,4.7144,4.7917,4.8603,4.9504,4.9935,4.9935,4.9982,5.0011,5.0011,5.0011,5.0011,5.0062,5.0614,5.1407,5.2274,5.2873,5.3701,5.448,5.4448,5.4586,5.4842,5.5137,5.6117,5.7167,5.7495,5.8288,5.9012,5.9012,5.9132,5.9166,5.9047,5.9285,5.947,5.9319,5.9535,5.9748,5.9748,5.9879,6.0025,6.0025,6.0057,6.0089,6.0089,6.0089,6.0089,6.0089,6.0089,6.0089,6.0089,6.0089,6.0089,6.0089,6.0089,6.0121,6.0171,6.0454,6.0732,6.1016,6.1064,6.1093,6.1093,6.1123,6.0837,6.0237,6.0266,5.9963,5.9334,5.8963,5.9005,0.0,0.0,0.0,3.6891,0.0,0.0,0.0,0.0,3.4753,0.0,0.0,0.0,0.0,0.0,0.0,0.0,0.0,0.0,0.0,0.0,0.0,0.0,0.0,0.0,0.0,0.0,0.0,0.0,0.0,0.0,4.3731,4.3495,4.3479,4.3598,4.4051,4.431,4.431,4.4879,4.514,4.5005,4.5005,4.5415,4.614,4.6874,4.7643,4.8458,4.934,4.9708,4.9708,4.9935,5.0011,5.0011,5.0011,5.0011,5.0011,5.0028,5.0959,5.2188,5.2222,5.3253,5.448,5.4271,5.4817,5.5411,5.4512,5.5917,5.7719,5.7029,5.7892,5.9012,5.9012,5.9012,5.9012,5.9012,5.9166,5.9319,5.9319,5.947,5.9621,5.9621,5.9733,5.9796,5.9796,5.9975,6.0089,6.0089,6.0089,6.0089,6.0089,6.0089,6.0089,6.0089,6.0089,6.0089,6.0089,6.0089,6.0171,6.0396,6.0534,6.0653,6.08,6.0986,6.1093,6.1093,6.1241,6.1223,6.1058,6.1187,6.1187,6.0986,5.9642,5.9478,0.0,0.0,3.8795,3.8603,0.0,0.0,0.0,0.0,0.0,0.0,0.0,0.0,0.0,0.0,0.0,0.0,0.0,0.0,0.0,0.0,0.0,0.0,0.0,0.0,0.0,0.0,0.0,0.0,0.0,0.0,0.0,4.3497,4.3265,4.3462,4.3802,4.4035,4.4184,4.4676,4.4896,4.4886,4.4951,4.5589,4.6703,4.7056,4.7812,4.8933,4.9368,4.9619,4.9708,4.9784,4.9889,5.0011,5.0011,5.0011,5.0062,5.0562,5.1343,5.2343,5.3391,5.4063,5.448,5.4399,5.493,5.5635,5.5878,5.6842,5.7961,5.8202,5.8633,5.9012,5.9012,5.9012,5.9012,5.9012,5.9047,5.9081,5.9081,5.9268,5.9386,5.9386,5.9553,5.9652,5.9652,5.9799,5.9943,6.0089,6.0089,6.0089,6.0089,6.0089,6.0089,6.0089,6.0089,6.0089,6.0089,6.0089,6.0171,6.0396,6.0534,6.0653,6.08,6.0986,6.1093,6.1093,6.1152,6.1152,6.1093,6.1152,6.1182,6.1223,6.0877,6.0883,4.1418,4.0772,0.0,3.9708,3.8789,0.0,3.7272,0.0,0.0,0.0,0.0,0.0,0.0,0.0,0.0,0.0,0.0,0.0,0.0,4.026,0.0,0.0,0.0,0.0,0.0,0.0,0.0,0.0,0.0,0.0,0.0,0.0,4.3113,4.3281,4.3625,4.386,4.3993,4.4525,4.4793,4.4737,4.4803,4.5586,4.6915,4.7031,4.7818,4.9138,4.932,4.9441,4.953,4.9649,4.9784,4.9889,4.9964,5.0166,5.0459,5.0925,5.177,5.2822,5.4063,5.4512,5.4512,5.4512,5.5201,5.6081,5.6305,5.7271,5.834,5.8564,5.8806,5.9012,5.9012,5.9012,5.9012,5.9012,5.9012,5.9012,5.9081,5.9166,5.92,5.9285,5.9386,5.9504,5.9504,5.965,5.9829,5.9975,6.0057,6.0089,6.0089,6.0089,6.0089,6.0089,6.0089,6.0089,6.0089,6.0089,6.0171,6.0283,6.0441,6.0578,6.0727,6.0896,6.1034,6.1093,6.1093,6.1093,6.1093,6.1093,6.1182,6.131,6.1519,6.1651]}]]